<?xml version='1.0' encoding='UTF-8'?><gpx version="1.1" creator="JPX - https://github.com/jenetics/jpx" xmlns="http://www.topografix.com/GPX/1/1"><trk><trkseg><trkpt lat="37.0196578" lon="15.108621"><ele>247.0</ele><time>2026-04-18T11:58:36.853Z</time></trkpt><trkpt lat="37.0195987" lon="15.1086761"><ele>247.0</ele><time>2026-04-18T11:58:37.853Z</time></trkpt><trkpt lat="37.0194979" lon="15.1087631"><ele>247.0</ele><time>2026-04-18T11:58:38.853Z</time></trkpt><trkpt lat="37.0193786" lon="15.1088652"><ele>247.0</ele><time>2026-04-18T11:58:39.854Z</time></trkpt><trkpt lat="37.0192563" lon="15.1089671"><ele>248.0</ele><time>2026-04-18T11:58:40.853Z</time></trkpt><trkpt lat="37.0191273" lon="15.1090659"><ele>249.0</ele><time>2026-04-18T11:58:41.853Z</time></trkpt><trkpt lat="37.0189866" lon="15.1091727"><ele>250.0</ele><time>2026-04-18T11:58:42.853Z</time></trkpt><trkpt lat="37.0188359" lon="15.1092936"><ele>250.0</ele><time>2026-04-18T11:58:43.852Z</time></trkpt><trkpt lat="37.0186702" lon="15.1094211"><ele>250.0</ele><time>2026-04-18T11:58:44.853Z</time></trkpt><trkpt lat="37.0184832" lon="15.1095714"><ele>250.0</ele><time>2026-04-18T11:58:45.852Z</time></trkpt><trkpt lat="37.0182802" lon="15.1097399"><ele>250.5</ele><time>2026-04-18T11:58:46.853Z</time></trkpt><trkpt lat="37.0180753" lon="15.1099076"><ele>251.0</ele><time>2026-04-18T11:58:47.853Z</time></trkpt><trkpt lat="37.017883" lon="15.1100609"><ele>250.33333333333334</ele><time>2026-04-18T11:58:48.853Z</time></trkpt><trkpt lat="37.017691" lon="15.1102105"><ele>249.66666666666669</ele><time>2026-04-18T11:58:49.854Z</time></trkpt><trkpt lat="37.0175241" lon="15.1103611"><ele>249.0</ele><time>2026-04-18T11:58:50.853Z</time></trkpt><trkpt lat="37.0173554" lon="15.1104835"><ele>249.0</ele><time>2026-04-18T11:58:51.853Z</time></trkpt><trkpt lat="37.017186" lon="15.1106248"><ele>249.0</ele><time>2026-04-18T11:58:52.853Z</time></trkpt><trkpt lat="37.017011" lon="15.1107635"><ele>249.0</ele><time>2026-04-18T11:58:53.853Z</time></trkpt><trkpt lat="37.0168253" lon="15.1109176"><ele>249.5</ele><time>2026-04-18T11:58:54.854Z</time></trkpt><trkpt lat="37.0166285" lon="15.1110843"><ele>250.0</ele><time>2026-04-18T11:58:55.853Z</time></trkpt><trkpt lat="37.0164088" lon="15.1112635"><ele>250.0</ele><time>2026-04-18T11:58:56.853Z</time></trkpt><trkpt lat="37.0162096" lon="15.1114275"><ele>250.0</ele><time>2026-04-18T11:58:57.853Z</time></trkpt><trkpt lat="37.0160453" lon="15.1115623"><ele>250.0</ele><time>2026-04-18T11:58:58.854Z</time></trkpt><trkpt lat="37.015897" lon="15.1116764"><ele>249.33333333333331</ele><time>2026-04-18T11:58:59.852Z</time></trkpt><trkpt lat="37.0157398" lon="15.1117821"><ele>248.66666666666669</ele><time>2026-04-18T11:59:00.852Z</time></trkpt><trkpt lat="37.0155764" lon="15.1118825"><ele>248.0</ele><time>2026-04-18T11:59:01.853Z</time></trkpt><trkpt lat="37.0153976" lon="15.1119769"><ele>248.0</ele><time>2026-04-18T11:59:02.852Z</time></trkpt><trkpt lat="37.015242" lon="15.1120511"><ele>248.0</ele><time>2026-04-18T11:59:03.853Z</time></trkpt><trkpt lat="37.0151049" lon="15.1121332"><ele>248.0</ele><time>2026-04-18T11:59:04.853Z</time></trkpt><trkpt lat="37.0149578" lon="15.1122148"><ele>247.5</ele><time>2026-04-18T11:59:05.852Z</time></trkpt><trkpt lat="37.0148003" lon="15.112305"><ele>247.0</ele><time>2026-04-18T11:59:06.853Z</time></trkpt><trkpt lat="37.0146732" lon="15.1123753"><ele>246.5</ele><time>2026-04-18T11:59:07.852Z</time></trkpt><trkpt lat="37.0145689" lon="15.1124146"><ele>246.0</ele><time>2026-04-18T11:59:08.853Z</time></trkpt><trkpt lat="37.0144679" lon="15.1124316"><ele>246.0</ele><time>2026-04-18T11:59:09.853Z</time></trkpt><trkpt lat="37.0143494" lon="15.1124179"><ele>246.0</ele><time>2026-04-18T11:59:10.853Z</time></trkpt><trkpt lat="37.0142326" lon="15.1123933"><ele>246.0</ele><time>2026-04-18T11:59:11.853Z</time></trkpt><trkpt lat="37.0141011" lon="15.1124168"><ele>246.0</ele><time>2026-04-18T11:59:12.853Z</time></trkpt><trkpt lat="37.0139431" lon="15.1124794"><ele>245.33333333333331</ele><time>2026-04-18T11:59:13.853Z</time></trkpt><trkpt lat="37.0137609" lon="15.1125888"><ele>244.66666666666666</ele><time>2026-04-18T11:59:14.852Z</time></trkpt><trkpt lat="37.0135459" lon="15.1126852"><ele>244.0</ele><time>2026-04-18T11:59:15.852Z</time></trkpt><trkpt lat="37.0132989" lon="15.1127778"><ele>242.5</ele><time>2026-04-18T11:59:16.853Z</time></trkpt><trkpt lat="37.013049" lon="15.1128768"><ele>241.0</ele><time>2026-04-18T11:59:17.853Z</time></trkpt><trkpt lat="37.0128459" lon="15.1129673"><ele>241.0</ele><time>2026-04-18T11:59:18.852Z</time></trkpt><trkpt lat="37.0126569" lon="15.1130371"><ele>241.0</ele><time>2026-04-18T11:59:19.852Z</time></trkpt><trkpt lat="37.0125003" lon="15.1131008"><ele>241.0</ele><time>2026-04-18T11:59:20.851Z</time></trkpt><trkpt lat="37.0123842" lon="15.113153"><ele>240.8</ele><time>2026-04-18T11:59:21.853Z</time></trkpt><trkpt lat="37.0123113" lon="15.1131892"><ele>240.60000000000002</ele><time>2026-04-18T11:59:22.852Z</time></trkpt><trkpt lat="37.0122251" lon="15.1132226"><ele>240.4</ele><time>2026-04-18T11:59:23.854Z</time></trkpt><trkpt lat="37.0121296" lon="15.1132629"><ele>240.2</ele><time>2026-04-18T11:59:24.853Z</time></trkpt><trkpt lat="37.0120294" lon="15.1133115"><ele>240.0</ele><time>2026-04-18T11:59:25.851Z</time></trkpt><trkpt lat="37.0119055" lon="15.11336"><ele>240.0</ele><time>2026-04-18T11:59:26.852Z</time></trkpt><trkpt lat="37.0117633" lon="15.1134162"><ele>240.0</ele><time>2026-04-18T11:59:27.852Z</time></trkpt><trkpt lat="37.0116221" lon="15.1134736"><ele>240.0</ele><time>2026-04-18T11:59:28.852Z</time></trkpt><trkpt lat="37.0114814" lon="15.1135349"><ele>240.0</ele><time>2026-04-18T11:59:29.852Z</time></trkpt><trkpt lat="37.0113395" lon="15.1135903"><ele>239.66666666666669</ele><time>2026-04-18T11:59:30.853Z</time></trkpt><trkpt lat="37.0111831" lon="15.1136411"><ele>239.33333333333334</ele><time>2026-04-18T11:59:31.853Z</time></trkpt><trkpt lat="37.0110267" lon="15.113691"><ele>239.0</ele><time>2026-04-18T11:59:32.853Z</time></trkpt><trkpt lat="37.0108712" lon="15.1137428"><ele>238.75</ele><time>2026-04-18T11:59:33.852Z</time></trkpt><trkpt lat="37.0107406" lon="15.1138031"><ele>238.5</ele><time>2026-04-18T11:59:34.854Z</time></trkpt><trkpt lat="37.0105996" lon="15.1138548"><ele>238.25</ele><time>2026-04-18T11:59:35.853Z</time></trkpt><trkpt lat="37.0104696" lon="15.1139065"><ele>238.0</ele><time>2026-04-18T11:59:36.852Z</time></trkpt><trkpt lat="37.0103494" lon="15.1139587"><ele>238.0</ele><time>2026-04-18T11:59:37.853Z</time></trkpt><trkpt lat="37.0102341" lon="15.1140047"><ele>238.0</ele><time>2026-04-18T11:59:38.853Z</time></trkpt><trkpt lat="37.0101327" lon="15.1140461"><ele>238.0</ele><time>2026-04-18T11:59:39.852Z</time></trkpt><trkpt lat="37.0100321" lon="15.1140878"><ele>238.0</ele><time>2026-04-18T11:59:40.854Z</time></trkpt><trkpt lat="37.009932" lon="15.1141332"><ele>238.0</ele><time>2026-04-18T11:59:41.853Z</time></trkpt><trkpt lat="37.0098358" lon="15.1141721"><ele>236.99999999999997</ele><time>2026-04-18T11:59:42.853Z</time></trkpt><trkpt lat="37.0097556" lon="15.1142107"><ele>236.0</ele><time>2026-04-18T11:59:43.852Z</time></trkpt><trkpt lat="37.0096713" lon="15.1142428"><ele>235.0</ele><time>2026-04-18T11:59:44.852Z</time></trkpt><trkpt lat="37.009603" lon="15.1142742"><ele>234.0</ele><time>2026-04-18T11:59:45.854Z</time></trkpt><trkpt lat="37.0095203" lon="15.1142873"><ele>232.99999999999997</ele><time>2026-04-18T11:59:47.852Z</time></trkpt><trkpt lat="37.0094258" lon="15.1142821"><ele>232.0</ele><time>2026-04-18T11:59:49.851Z</time></trkpt><trkpt lat="37.0093343" lon="15.1142664"><ele>232.0</ele><time>2026-04-18T11:59:51.852Z</time></trkpt><trkpt lat="37.0092688" lon="15.1142735"><ele>232.0</ele><time>2026-04-18T11:59:52.853Z</time></trkpt><trkpt lat="37.0091731" lon="15.1142795"><ele>232.0</ele><time>2026-04-18T11:59:53.853Z</time></trkpt><trkpt lat="37.009099" lon="15.1142882"><ele>232.0</ele><time>2026-04-18T11:59:54.853Z</time></trkpt><trkpt lat="37.0089957" lon="15.1143289"><ele>232.0</ele><time>2026-04-18T11:59:56.853Z</time></trkpt><trkpt lat="37.0089098" lon="15.1144685"><ele>230.16666666666666</ele><time>2026-04-18T11:59:58.853Z</time></trkpt><trkpt lat="37.0088895" lon="15.1145568"><ele>228.33333333333331</ele><time>2026-04-18T11:59:59.853Z</time></trkpt><trkpt lat="37.0088741" lon="15.1146513"><ele>226.5</ele><time>2026-04-18T12:00:00.852Z</time></trkpt><trkpt lat="37.0088852" lon="15.1147802"><ele>224.66666666666669</ele><time>2026-04-18T12:00:01.853Z</time></trkpt><trkpt lat="37.0088958" lon="15.1148888"><ele>222.83333333333334</ele><time>2026-04-18T12:00:02.853Z</time></trkpt><trkpt lat="37.0088951" lon="15.1149823"><ele>221.0</ele><time>2026-04-18T12:00:03.853Z</time></trkpt><trkpt lat="37.0088823" lon="15.1151337"><ele>219.8</ele><time>2026-04-18T12:00:05.853Z</time></trkpt><trkpt lat="37.008833" lon="15.1151942"><ele>218.60000000000002</ele><time>2026-04-18T12:00:06.853Z</time></trkpt><trkpt lat="37.0087467" lon="15.1152758"><ele>217.4</ele><time>2026-04-18T12:00:08.854Z</time></trkpt><trkpt lat="37.0086529" lon="15.1152279"><ele>216.2</ele><time>2026-04-18T12:00:10.853Z</time></trkpt><trkpt lat="37.0086124" lon="15.1151579"><ele>215.0</ele><time>2026-04-18T12:00:11.852Z</time></trkpt><trkpt lat="37.0085825" lon="15.1150216"><ele>216.2</ele><time>2026-04-18T12:00:12.852Z</time></trkpt><trkpt lat="37.0085386" lon="15.1148833"><ele>217.4</ele><time>2026-04-18T12:00:13.853Z</time></trkpt><trkpt lat="37.0084872" lon="15.1147401"><ele>218.60000000000002</ele><time>2026-04-18T12:00:14.851Z</time></trkpt><trkpt lat="37.0084377" lon="15.1146263"><ele>219.8</ele><time>2026-04-18T12:00:15.853Z</time></trkpt><trkpt lat="37.0083962" lon="15.1145312"><ele>221.0</ele><time>2026-04-18T12:00:16.853Z</time></trkpt><trkpt lat="37.0083554" lon="15.1144519"><ele>218.16666666666669</ele><time>2026-04-18T12:00:17.852Z</time></trkpt><trkpt lat="37.0083029" lon="15.1144066"><ele>215.33333333333334</ele><time>2026-04-18T12:00:18.852Z</time></trkpt><trkpt lat="37.0081749" lon="15.1144092"><ele>212.5</ele><time>2026-04-18T12:00:20.853Z</time></trkpt><trkpt lat="37.0080931" lon="15.1144619"><ele>209.66666666666669</ele><time>2026-04-18T12:00:21.854Z</time></trkpt><trkpt lat="37.0080195" lon="15.1145229"><ele>206.83333333333334</ele><time>2026-04-18T12:00:22.853Z</time></trkpt><trkpt lat="37.007955" lon="15.1145649"><ele>204.0</ele><time>2026-04-18T12:00:23.853Z</time></trkpt><trkpt lat="37.0078903" lon="15.1145787"><ele>204.0</ele><time>2026-04-18T12:00:24.853Z</time></trkpt><trkpt lat="37.0078123" lon="15.1145515"><ele>204.0</ele><time>2026-04-18T12:00:25.852Z</time></trkpt><trkpt lat="37.0077322" lon="15.1145031"><ele>204.0</ele><time>2026-04-18T12:00:26.852Z</time></trkpt><trkpt lat="37.0076704" lon="15.114441"><ele>204.0</ele><time>2026-04-18T12:00:27.853Z</time></trkpt><trkpt lat="37.0076061" lon="15.1143972"><ele>204.0</ele><time>2026-04-18T12:00:28.852Z</time></trkpt><trkpt lat="37.0075059" lon="15.114413"><ele>204.0</ele><time>2026-04-18T12:00:30.853Z</time></trkpt><trkpt lat="37.0074709" lon="15.1144857"><ele>204.0</ele><time>2026-04-18T12:00:32.853Z</time></trkpt><trkpt lat="37.0074634" lon="15.1145661"><ele>204.0</ele><time>2026-04-18T12:00:33.854Z</time></trkpt><trkpt lat="37.0074864" lon="15.1146774"><ele>204.0</ele><time>2026-04-18T12:00:34.853Z</time></trkpt><trkpt lat="37.0075" lon="15.1148041"><ele>204.0</ele><time>2026-04-18T12:00:35.852Z</time></trkpt><trkpt lat="37.0074983" lon="15.1149198"><ele>204.0</ele><time>2026-04-18T12:00:36.853Z</time></trkpt><trkpt lat="37.0074893" lon="15.1150271"><ele>204.0</ele><time>2026-04-18T12:00:37.853Z</time></trkpt><trkpt lat="37.0075059" lon="15.115139"><ele>203.2</ele><time>2026-04-18T12:00:38.853Z</time></trkpt><trkpt lat="37.0075417" lon="15.1152512"><ele>202.39999999999998</ele><time>2026-04-18T12:00:39.852Z</time></trkpt><trkpt lat="37.0076014" lon="15.1153805"><ele>201.6</ele><time>2026-04-18T12:00:40.852Z</time></trkpt><trkpt lat="37.0076433" lon="15.1154993"><ele>200.8</ele><time>2026-04-18T12:00:41.852Z</time></trkpt><trkpt lat="37.0076722" lon="15.1156496"><ele>200.0</ele><time>2026-04-18T12:00:42.853Z</time></trkpt><trkpt lat="37.0076918" lon="15.1157782"><ele>199.00000000000003</ele><time>2026-04-18T12:00:43.852Z</time></trkpt><trkpt lat="37.0076971" lon="15.1159076"><ele>198.0</ele><time>2026-04-18T12:00:44.852Z</time></trkpt><trkpt lat="37.0077033" lon="15.1160308"><ele>197.0</ele><time>2026-04-18T12:00:45.852Z</time></trkpt><trkpt lat="37.0077055" lon="15.1161242"><ele>196.0</ele><time>2026-04-18T12:00:46.852Z</time></trkpt><trkpt lat="37.007707" lon="15.1162115"><ele>195.00000000000003</ele><time>2026-04-18T12:00:47.852Z</time></trkpt><trkpt lat="37.0077291" lon="15.1163057"><ele>194.0</ele><time>2026-04-18T12:00:48.852Z</time></trkpt><trkpt lat="37.0077312" lon="15.1163881"><ele>194.0</ele><time>2026-04-18T12:00:49.853Z</time></trkpt><trkpt lat="37.0076961" lon="15.116503"><ele>194.0</ele><time>2026-04-18T12:00:51.852Z</time></trkpt><trkpt lat="37.0076046" lon="15.1165334"><ele>194.0</ele><time>2026-04-18T12:00:53.854Z</time></trkpt><trkpt lat="37.0075257" lon="15.116401"><ele>194.0</ele><time>2026-04-18T12:00:55.853Z</time></trkpt><trkpt lat="37.0074937" lon="15.1162835"><ele>194.0</ele><time>2026-04-18T12:00:56.853Z</time></trkpt><trkpt lat="37.0074499" lon="15.116141"><ele>195.2</ele><time>2026-04-18T12:00:57.853Z</time></trkpt><trkpt lat="37.0074145" lon="15.1160022"><ele>196.39999999999998</ele><time>2026-04-18T12:00:58.852Z</time></trkpt><trkpt lat="37.0073842" lon="15.1158704"><ele>197.6</ele><time>2026-04-18T12:00:59.852Z</time></trkpt><trkpt lat="37.0073492" lon="15.1157553"><ele>198.8</ele><time>2026-04-18T12:01:00.852Z</time></trkpt><trkpt lat="37.0072896" lon="15.1156329"><ele>200.0</ele><time>2026-04-18T12:01:01.852Z</time></trkpt><trkpt lat="37.0072165" lon="15.1155274"><ele>200.0</ele><time>2026-04-18T12:01:02.854Z</time></trkpt><trkpt lat="37.0071564" lon="15.1154116"><ele>200.0</ele><time>2026-04-18T12:01:03.853Z</time></trkpt><trkpt lat="37.0071251" lon="15.1152808"><ele>200.0</ele><time>2026-04-18T12:01:04.853Z</time></trkpt><trkpt lat="37.0070826" lon="15.1151415"><ele>200.0</ele><time>2026-04-18T12:01:05.854Z</time></trkpt><trkpt lat="37.0070428" lon="15.1149268"><ele>199.33333333333334</ele><time>2026-04-18T12:01:06.853Z</time></trkpt><trkpt lat="37.0069949" lon="15.114695"><ele>198.66666666666669</ele><time>2026-04-18T12:01:07.853Z</time></trkpt><trkpt lat="37.0069434" lon="15.1144756"><ele>198.0</ele><time>2026-04-18T12:01:08.853Z</time></trkpt><trkpt lat="37.0068898" lon="15.1142952"><ele>198.0</ele><time>2026-04-18T12:01:09.853Z</time></trkpt><trkpt lat="37.0068386" lon="15.1142052"><ele>198.0</ele><time>2026-04-18T12:01:10.854Z</time></trkpt><trkpt lat="37.0068048" lon="15.1141235"><ele>198.0</ele><time>2026-04-18T12:01:11.852Z</time></trkpt><trkpt lat="37.0067218" lon="15.1140664"><ele>198.0</ele><time>2026-04-18T12:01:13.852Z</time></trkpt><trkpt lat="37.0066681" lon="15.1141149"><ele>198.0</ele><time>2026-04-18T12:01:15.852Z</time></trkpt><trkpt lat="37.0066818" lon="15.1142056"><ele>198.0</ele><time>2026-04-18T12:01:16.852Z</time></trkpt><trkpt lat="37.00672" lon="15.1143174"><ele>198.0</ele><time>2026-04-18T12:01:17.853Z</time></trkpt><trkpt lat="37.0067514" lon="15.114443"><ele>198.0</ele><time>2026-04-18T12:01:18.853Z</time></trkpt><trkpt lat="37.0067654" lon="15.1145734"><ele>198.0</ele><time>2026-04-18T12:01:19.853Z</time></trkpt><trkpt lat="37.0067773" lon="15.1146958"><ele>198.0</ele><time>2026-04-18T12:01:20.854Z</time></trkpt><trkpt lat="37.00678" lon="15.114833"><ele>198.0</ele><time>2026-04-18T12:01:21.854Z</time></trkpt><trkpt lat="37.0067644" lon="15.114973"><ele>198.5</ele><time>2026-04-18T12:01:22.851Z</time></trkpt><trkpt lat="37.0067347" lon="15.1151695"><ele>199.0</ele><time>2026-04-18T12:01:23.853Z</time></trkpt><trkpt lat="37.006696" lon="15.1153531"><ele>199.5</ele><time>2026-04-18T12:01:24.853Z</time></trkpt><trkpt lat="37.0066636" lon="15.1154938"><ele>200.0</ele><time>2026-04-18T12:01:25.853Z</time></trkpt><trkpt lat="37.0066444" lon="15.1156032"><ele>201.16666666666669</ele><time>2026-04-18T12:01:26.852Z</time></trkpt><trkpt lat="37.0066156" lon="15.1156875"><ele>202.33333333333334</ele><time>2026-04-18T12:01:27.852Z</time></trkpt><trkpt lat="37.0065397" lon="15.1157752"><ele>203.5</ele><time>2026-04-18T12:01:29.852Z</time></trkpt><trkpt lat="37.0064724" lon="15.1157767"><ele>204.66666666666669</ele><time>2026-04-18T12:01:30.852Z</time></trkpt><trkpt lat="37.0064065" lon="15.1157655"><ele>205.83333333333334</ele><time>2026-04-18T12:01:31.854Z</time></trkpt><trkpt lat="37.0063331" lon="15.1157164"><ele>207.0</ele><time>2026-04-18T12:01:32.852Z</time></trkpt><trkpt lat="37.0062731" lon="15.1156477"><ele>207.5</ele><time>2026-04-18T12:01:33.852Z</time></trkpt><trkpt lat="37.0062147" lon="15.1155406"><ele>208.0</ele><time>2026-04-18T12:01:34.853Z</time></trkpt><trkpt lat="37.0061948" lon="15.1153429"><ele>208.5</ele><time>2026-04-18T12:01:35.852Z</time></trkpt><trkpt lat="37.0061571" lon="15.1151395"><ele>209.0</ele><time>2026-04-18T12:01:36.853Z</time></trkpt><trkpt lat="37.006123" lon="15.1148774"><ele>210.0</ele><time>2026-04-18T12:01:37.852Z</time></trkpt><trkpt lat="37.0060743" lon="15.1146215"><ele>211.0</ele><time>2026-04-18T12:01:38.853Z</time></trkpt><trkpt lat="37.0060423" lon="15.1144166"><ele>212.0</ele><time>2026-04-18T12:01:39.853Z</time></trkpt><trkpt lat="37.0060158" lon="15.1142302"><ele>212.00000000000003</ele><time>2026-04-18T12:01:40.851Z</time></trkpt><trkpt lat="37.0059962" lon="15.1140784"><ele>212.0</ele><time>2026-04-18T12:01:41.852Z</time></trkpt><trkpt lat="37.0059901" lon="15.113956"><ele>212.0</ele><time>2026-04-18T12:01:42.852Z</time></trkpt><trkpt lat="37.0059878" lon="15.1138516"><ele>212.0</ele><time>2026-04-18T12:01:43.852Z</time></trkpt><trkpt lat="37.0059933" lon="15.1137519"><ele>212.00000000000003</ele><time>2026-04-18T12:01:45.853Z</time></trkpt><trkpt lat="37.0059877" lon="15.1136709"><ele>212.0</ele><time>2026-04-18T12:01:47.853Z</time></trkpt><trkpt lat="37.0059877" lon="15.1135776"><ele>212.16666666666669</ele><time>2026-04-18T12:01:49.852Z</time></trkpt><trkpt lat="37.0059799" lon="15.1134833"><ele>212.33333333333334</ele><time>2026-04-18T12:01:51.852Z</time></trkpt><trkpt lat="37.0059533" lon="15.1133984"><ele>212.5</ele><time>2026-04-18T12:01:53.853Z</time></trkpt><trkpt lat="37.0059001" lon="15.1133237"><ele>212.66666666666669</ele><time>2026-04-18T12:01:55.852Z</time></trkpt><trkpt lat="37.0058481" lon="15.113262"><ele>212.83333333333334</ele><time>2026-04-18T12:01:59.853Z</time></trkpt><trkpt lat="37.0058431" lon="15.1131161"><ele>213.0</ele><time>2026-04-18T12:03:12.851Z</time></trkpt><trkpt lat="37.0058211" lon="15.112998"><ele>213.75</ele><time>2026-04-18T12:03:13.853Z</time></trkpt><trkpt lat="37.0057922" lon="15.1128394"><ele>214.5</ele><time>2026-04-18T12:03:14.851Z</time></trkpt><trkpt lat="37.0057643" lon="15.1126808"><ele>215.25</ele><time>2026-04-18T12:03:15.854Z</time></trkpt><trkpt lat="37.0057477" lon="15.1125251"><ele>216.0</ele><time>2026-04-18T12:03:16.851Z</time></trkpt><trkpt lat="37.0057419" lon="15.1123551"><ele>216.0</ele><time>2026-04-18T12:03:17.852Z</time></trkpt><trkpt lat="37.0057413" lon="15.1122048"><ele>216.0</ele><time>2026-04-18T12:03:18.851Z</time></trkpt><trkpt lat="37.0057329" lon="15.1120584"><ele>216.0</ele><time>2026-04-18T12:03:19.852Z</time></trkpt><trkpt lat="37.0057097" lon="15.1118869"><ele>216.0</ele><time>2026-04-18T12:03:20.852Z</time></trkpt><trkpt lat="37.0056674" lon="15.1117137"><ele>217.0</ele><time>2026-04-18T12:03:21.852Z</time></trkpt><trkpt lat="37.0056017" lon="15.1114796"><ele>218.0</ele><time>2026-04-18T12:03:22.852Z</time></trkpt><trkpt lat="37.0055239" lon="15.1111984"><ele>219.0</ele><time>2026-04-18T12:03:23.851Z</time></trkpt><trkpt lat="37.0054448" lon="15.1109095"><ele>221.5</ele><time>2026-04-18T12:03:24.852Z</time></trkpt><trkpt lat="37.0053595" lon="15.1106124"><ele>224.0</ele><time>2026-04-18T12:03:25.852Z</time></trkpt><trkpt lat="37.0052882" lon="15.1103629"><ele>224.0</ele><time>2026-04-18T12:03:26.853Z</time></trkpt><trkpt lat="37.0052314" lon="15.1101382"><ele>224.0</ele><time>2026-04-18T12:03:27.853Z</time></trkpt><trkpt lat="37.0051655" lon="15.1099045"><ele>224.0</ele><time>2026-04-18T12:03:28.851Z</time></trkpt><trkpt lat="37.0050927" lon="15.1096553"><ele>225.66666666666669</ele><time>2026-04-18T12:03:29.852Z</time></trkpt><trkpt lat="37.0050266" lon="15.1094331"><ele>227.33333333333331</ele><time>2026-04-18T12:03:30.853Z</time></trkpt><trkpt lat="37.0049679" lon="15.1091824"><ele>229.0</ele><time>2026-04-18T12:03:31.852Z</time></trkpt><trkpt lat="37.0049053" lon="15.1088956"><ele>231.66666666666666</ele><time>2026-04-18T12:03:32.853Z</time></trkpt><trkpt lat="37.0048538" lon="15.1086494"><ele>234.33333333333331</ele><time>2026-04-18T12:03:33.853Z</time></trkpt><trkpt lat="37.0048105" lon="15.1084268"><ele>237.0</ele><time>2026-04-18T12:03:34.852Z</time></trkpt><trkpt lat="37.0047782" lon="15.1082557"><ele>238.83333333333334</ele><time>2026-04-18T12:03:35.852Z</time></trkpt><trkpt lat="37.004744" lon="15.1081275"><ele>240.66666666666669</ele><time>2026-04-18T12:03:36.853Z</time></trkpt><trkpt lat="37.0047173" lon="15.1079848"><ele>242.5</ele><time>2026-04-18T12:03:37.852Z</time></trkpt><trkpt lat="37.0046962" lon="15.107898"><ele>244.33333333333334</ele><time>2026-04-18T12:03:38.852Z</time></trkpt><trkpt lat="37.0046834" lon="15.1078122"><ele>246.16666666666669</ele><time>2026-04-18T12:03:39.853Z</time></trkpt><trkpt lat="37.0046768" lon="15.107725"><ele>248.0</ele><time>2026-04-18T12:03:40.852Z</time></trkpt><trkpt lat="37.0046688" lon="15.107588"><ele>248.00000000000003</ele><time>2026-04-18T12:03:42.853Z</time></trkpt><trkpt lat="37.0046571" lon="15.107507"><ele>248.0</ele><time>2026-04-18T12:03:44.852Z</time></trkpt><trkpt lat="37.004588" lon="15.1075178"><ele>248.0</ele><time>2026-04-18T12:04:21.852Z</time></trkpt><trkpt lat="37.0046542" lon="15.1076219"><ele>248.0</ele><time>2026-04-18T12:04:35.852Z</time></trkpt><trkpt lat="37.0046761" lon="15.1077331"><ele>248.00000000000003</ele><time>2026-04-18T12:04:37.852Z</time></trkpt><trkpt lat="37.0046835" lon="15.1078632"><ele>248.0</ele><time>2026-04-18T12:04:39.854Z</time></trkpt><trkpt lat="37.0046937" lon="15.1079766"><ele>248.0</ele><time>2026-04-18T12:04:41.852Z</time></trkpt><trkpt lat="37.0047177" lon="15.1080891"><ele>248.0</ele><time>2026-04-18T12:04:43.851Z</time></trkpt><trkpt lat="37.0047388" lon="15.1081998"><ele>248.0</ele><time>2026-04-18T12:04:45.852Z</time></trkpt><trkpt lat="37.0047807" lon="15.108307"><ele>248.0</ele><time>2026-04-18T12:04:47.852Z</time></trkpt><trkpt lat="37.0047951" lon="15.1084187"><ele>248.0</ele><time>2026-04-18T12:04:49.853Z</time></trkpt><trkpt lat="37.0048204" lon="15.1085184"><ele>245.8</ele><time>2026-04-18T12:04:51.851Z</time></trkpt><trkpt lat="37.0048573" lon="15.1086294"><ele>243.60000000000002</ele><time>2026-04-18T12:04:53.851Z</time></trkpt><trkpt lat="37.0048916" lon="15.1087441"><ele>241.39999999999998</ele><time>2026-04-18T12:04:55.852Z</time></trkpt><trkpt lat="37.0049305" lon="15.1088735"><ele>239.2</ele><time>2026-04-18T12:04:57.853Z</time></trkpt><trkpt lat="37.004938" lon="15.1089543"><ele>237.0</ele><time>2026-04-18T12:04:58.852Z</time></trkpt><trkpt lat="37.0049634" lon="15.1090844"><ele>235.6</ele><time>2026-04-18T12:05:00.851Z</time></trkpt><trkpt lat="37.0049741" lon="15.1091689"><ele>234.2</ele><time>2026-04-18T12:05:01.852Z</time></trkpt><trkpt lat="37.0050169" lon="15.109291"><ele>232.8</ele><time>2026-04-18T12:05:03.852Z</time></trkpt><trkpt lat="37.0050662" lon="15.1094234"><ele>231.4</ele><time>2026-04-18T12:05:05.852Z</time></trkpt><trkpt lat="37.0050928" lon="15.1095542"><ele>230.0</ele><time>2026-04-18T12:05:07.853Z</time></trkpt><trkpt lat="37.0051248" lon="15.1096273"><ele>229.75</ele><time>2026-04-18T12:05:08.852Z</time></trkpt><trkpt lat="37.0051679" lon="15.1097606"><ele>229.5</ele><time>2026-04-18T12:05:10.853Z</time></trkpt><trkpt lat="37.0051993" lon="15.1098983"><ele>229.25</ele><time>2026-04-18T12:05:12.853Z</time></trkpt><trkpt lat="37.0052228" lon="15.1100364"><ele>229.0</ele><time>2026-04-18T12:05:14.852Z</time></trkpt><trkpt lat="37.0052704" lon="15.1101847"><ele>228.0</ele><time>2026-04-18T12:05:16.852Z</time></trkpt><trkpt lat="37.0052995" lon="15.1103186"><ele>226.99999999999997</ele><time>2026-04-18T12:05:18.853Z</time></trkpt><trkpt lat="37.0053411" lon="15.1104586"><ele>225.99999999999997</ele><time>2026-04-18T12:05:20.853Z</time></trkpt><trkpt lat="37.0053598" lon="15.1105473"><ele>225.0</ele><time>2026-04-18T12:05:21.851Z</time></trkpt><trkpt lat="37.0054051" lon="15.1106805"><ele>224.0</ele><time>2026-04-18T12:05:23.853Z</time></trkpt><trkpt lat="37.0054265" lon="15.1107582"><ele>223.0</ele><time>2026-04-18T12:05:24.851Z</time></trkpt><trkpt lat="37.0054666" lon="15.110906"><ele>221.99999999999997</ele><time>2026-04-18T12:05:26.852Z</time></trkpt><trkpt lat="37.005504" lon="15.1110595"><ele>220.99999999999997</ele><time>2026-04-18T12:05:28.852Z</time></trkpt><trkpt lat="37.0055273" lon="15.1111369"><ele>220.0</ele><time>2026-04-18T12:05:29.853Z</time></trkpt><trkpt lat="37.0055508" lon="15.1112218"><ele>219.0</ele><time>2026-04-18T12:05:30.852Z</time></trkpt><trkpt lat="37.0055737" lon="15.1113083"><ele>219.0</ele><time>2026-04-18T12:05:31.852Z</time></trkpt><trkpt lat="37.0055924" lon="15.1113911"><ele>219.0</ele><time>2026-04-18T12:05:32.852Z</time></trkpt><trkpt lat="37.0056149" lon="15.1114777"><ele>219.0</ele><time>2026-04-18T12:05:33.852Z</time></trkpt><trkpt lat="37.0056405" lon="15.1115692"><ele>219.0</ele><time>2026-04-18T12:05:34.852Z</time></trkpt><trkpt lat="37.005666" lon="15.1116573"><ele>219.0</ele><time>2026-04-18T12:05:35.853Z</time></trkpt><trkpt lat="37.0056909" lon="15.1117457"><ele>219.0</ele><time>2026-04-18T12:05:36.852Z</time></trkpt><trkpt lat="37.005713" lon="15.1118205"><ele>219.0</ele><time>2026-04-18T12:05:37.852Z</time></trkpt><trkpt lat="37.0057401" lon="15.1118966"><ele>218.57142857142858</ele><time>2026-04-18T12:05:38.851Z</time></trkpt><trkpt lat="37.0057629" lon="15.1119783"><ele>218.14285714285714</ele><time>2026-04-18T12:05:39.851Z</time></trkpt><trkpt lat="37.0057786" lon="15.1120567"><ele>217.71428571428572</ele><time>2026-04-18T12:05:40.851Z</time></trkpt><trkpt lat="37.0057893" lon="15.1121477"><ele>217.28571428571428</ele><time>2026-04-18T12:05:41.852Z</time></trkpt><trkpt lat="37.0057939" lon="15.1122419"><ele>216.85714285714283</ele><time>2026-04-18T12:05:42.851Z</time></trkpt><trkpt lat="37.005799" lon="15.1123423"><ele>216.42857142857142</ele><time>2026-04-18T12:05:43.853Z</time></trkpt><trkpt lat="37.0058016" lon="15.1124386"><ele>216.0</ele><time>2026-04-18T12:05:44.851Z</time></trkpt><trkpt lat="37.0058038" lon="15.1125327"><ele>216.0</ele><time>2026-04-18T12:05:45.852Z</time></trkpt><trkpt lat="37.0058149" lon="15.1126116"><ele>216.0</ele><time>2026-04-18T12:05:46.852Z</time></trkpt><trkpt lat="37.0058296" lon="15.112776"><ele>216.0</ele><time>2026-04-18T12:05:48.851Z</time></trkpt><trkpt lat="37.0058434" lon="15.1128559"><ele>216.0</ele><time>2026-04-18T12:05:49.852Z</time></trkpt><trkpt lat="37.0058509" lon="15.1129388"><ele>216.0</ele><time>2026-04-18T12:05:50.852Z</time></trkpt><trkpt lat="37.0058767" lon="15.1130868"><ele>216.0</ele><time>2026-04-18T12:05:52.852Z</time></trkpt><trkpt lat="37.0058978" lon="15.1131805"><ele>216.0</ele><time>2026-04-18T12:05:54.853Z</time></trkpt><trkpt lat="37.005878" lon="15.1132598"><ele>216.0</ele><time>2026-04-18T12:14:06.852Z</time></trkpt><trkpt lat="37.0059366" lon="15.113308"><ele>216.0</ele><time>2026-04-18T12:14:57.851Z</time></trkpt><trkpt lat="37.0058742" lon="15.1132762"><ele>216.0</ele><time>2026-04-18T12:28:42.848Z</time></trkpt><trkpt lat="37.0058369" lon="15.1131681"><ele>216.0</ele><time>2026-04-18T12:32:34.848Z</time></trkpt><trkpt lat="37.0058115" lon="15.1130066"><ele>216.0</ele><time>2026-04-18T12:32:36.847Z</time></trkpt><trkpt lat="37.0057976" lon="15.1129002"><ele>216.0</ele><time>2026-04-18T12:32:37.848Z</time></trkpt><trkpt lat="37.0057781" lon="15.112797"><ele>216.0</ele><time>2026-04-18T12:32:38.849Z</time></trkpt><trkpt lat="37.005788" lon="15.1126779"><ele>216.0</ele><time>2026-04-18T12:32:39.848Z</time></trkpt><trkpt lat="37.0057791" lon="15.1125248"><ele>216.0</ele><time>2026-04-18T12:32:40.848Z</time></trkpt><trkpt lat="37.0057817" lon="15.1123374"><ele>216.0</ele><time>2026-04-18T12:32:41.848Z</time></trkpt><trkpt lat="37.0057774" lon="15.1121668"><ele>216.0</ele><time>2026-04-18T12:32:42.848Z</time></trkpt><trkpt lat="37.0057604" lon="15.1120188"><ele>216.0</ele><time>2026-04-18T12:32:43.848Z</time></trkpt><trkpt lat="37.0057043" lon="15.1118409"><ele>216.0</ele><time>2026-04-18T12:32:44.847Z</time></trkpt><trkpt lat="37.0056362" lon="15.1116219"><ele>217.0</ele><time>2026-04-18T12:32:45.847Z</time></trkpt><trkpt lat="37.0055663" lon="15.1113665"><ele>218.0</ele><time>2026-04-18T12:32:46.849Z</time></trkpt><trkpt lat="37.0054926" lon="15.1111147"><ele>219.0</ele><time>2026-04-18T12:32:47.848Z</time></trkpt><trkpt lat="37.0054315" lon="15.1108961"><ele>220.66666666666669</ele><time>2026-04-18T12:32:48.848Z</time></trkpt><trkpt lat="37.0053757" lon="15.110699"><ele>222.33333333333334</ele><time>2026-04-18T12:32:49.847Z</time></trkpt><trkpt lat="37.0053245" lon="15.1105294"><ele>224.0</ele><time>2026-04-18T12:32:50.849Z</time></trkpt><trkpt lat="37.0052777" lon="15.1103557"><ele>224.0</ele><time>2026-04-18T12:32:51.848Z</time></trkpt><trkpt lat="37.0052267" lon="15.1101784"><ele>224.0</ele><time>2026-04-18T12:32:52.847Z</time></trkpt><trkpt lat="37.0051803" lon="15.1100112"><ele>224.0</ele><time>2026-04-18T12:32:53.847Z</time></trkpt><trkpt lat="37.0051318" lon="15.1098453"><ele>224.0</ele><time>2026-04-18T12:32:54.847Z</time></trkpt><trkpt lat="37.0050783" lon="15.1096843"><ele>225.25</ele><time>2026-04-18T12:32:55.848Z</time></trkpt><trkpt lat="37.0050301" lon="15.1095231"><ele>226.5</ele><time>2026-04-18T12:32:56.848Z</time></trkpt><trkpt lat="37.0049943" lon="15.109367"><ele>227.75</ele><time>2026-04-18T12:32:57.847Z</time></trkpt><trkpt lat="37.0049493" lon="15.1092075"><ele>229.0</ele><time>2026-04-18T12:32:58.847Z</time></trkpt><trkpt lat="37.0049134" lon="15.1090523"><ele>230.6</ele><time>2026-04-18T12:32:59.848Z</time></trkpt><trkpt lat="37.0048839" lon="15.1089065"><ele>232.2</ele><time>2026-04-18T12:33:00.849Z</time></trkpt><trkpt lat="37.0048551" lon="15.1087642"><ele>233.79999999999998</ele><time>2026-04-18T12:33:01.848Z</time></trkpt><trkpt lat="37.0048289" lon="15.1086296"><ele>235.39999999999998</ele><time>2026-04-18T12:33:02.847Z</time></trkpt><trkpt lat="37.0047982" lon="15.108518"><ele>237.0</ele><time>2026-04-18T12:33:03.847Z</time></trkpt><trkpt lat="37.0047751" lon="15.1084117"><ele>237.0</ele><time>2026-04-18T12:33:04.847Z</time></trkpt><trkpt lat="37.0047572" lon="15.1083174"><ele>237.0</ele><time>2026-04-18T12:33:05.847Z</time></trkpt><trkpt lat="37.0047339" lon="15.1082077"><ele>237.0</ele><time>2026-04-18T12:33:06.847Z</time></trkpt><trkpt lat="37.0047182" lon="15.1080974"><ele>237.0</ele><time>2026-04-18T12:33:07.849Z</time></trkpt><trkpt lat="37.0047001" lon="15.1079927"><ele>237.0</ele><time>2026-04-18T12:33:08.848Z</time></trkpt><trkpt lat="37.0046839" lon="15.1078726"><ele>237.0</ele><time>2026-04-18T12:33:09.848Z</time></trkpt><trkpt lat="37.0046744" lon="15.1077755"><ele>238.83333333333334</ele><time>2026-04-18T12:33:10.847Z</time></trkpt><trkpt lat="37.0046666" lon="15.1076849"><ele>240.66666666666669</ele><time>2026-04-18T12:33:11.847Z</time></trkpt><trkpt lat="37.0046542" lon="15.1075511"><ele>242.5</ele><time>2026-04-18T12:33:13.849Z</time></trkpt><trkpt lat="37.0046386" lon="15.1074638"><ele>244.33333333333334</ele><time>2026-04-18T12:33:15.847Z</time></trkpt><trkpt lat="37.0046246" lon="15.1073831"><ele>246.16666666666669</ele><time>2026-04-18T12:33:17.849Z</time></trkpt><trkpt lat="37.004608" lon="15.1072977"><ele>248.0</ele><time>2026-04-18T12:33:19.847Z</time></trkpt><trkpt lat="37.0045893" lon="15.1072076"><ele>248.66666666666669</ele><time>2026-04-18T12:33:21.848Z</time></trkpt><trkpt lat="37.0045771" lon="15.1070984"><ele>249.33333333333334</ele><time>2026-04-18T12:33:23.848Z</time></trkpt><trkpt lat="37.0045782" lon="15.1070043"><ele>250.0</ele><time>2026-04-18T12:33:25.848Z</time></trkpt><trkpt lat="37.004575" lon="15.1069016"><ele>250.66666666666669</ele><time>2026-04-18T12:33:27.849Z</time></trkpt><trkpt lat="37.0045341" lon="15.1067913"><ele>251.33333333333334</ele><time>2026-04-18T12:33:29.848Z</time></trkpt><trkpt lat="37.0045212" lon="15.1066635"><ele>252.0</ele><time>2026-04-18T12:33:31.847Z</time></trkpt><trkpt lat="37.0044921" lon="15.1065577"><ele>253.0</ele><time>2026-04-18T12:33:33.848Z</time></trkpt><trkpt lat="37.0044873" lon="15.1064778"><ele>254.0</ele><time>2026-04-18T12:33:35.847Z</time></trkpt><trkpt lat="37.004465" lon="15.1063924"><ele>255.0</ele><time>2026-04-18T12:33:37.847Z</time></trkpt><trkpt lat="37.0043989" lon="15.1062651"><ele>256.0</ele><time>2026-04-18T12:33:41.795Z</time></trkpt><trkpt lat="37.0043777" lon="15.1061802"><ele>257.0</ele><time>2026-04-18T12:33:42.847Z</time></trkpt><trkpt lat="37.0043568" lon="15.1061046"><ele>258.0</ele><time>2026-04-18T12:33:43.847Z</time></trkpt><trkpt lat="37.0043264" lon="15.1059944"><ele>258.0</ele><time>2026-04-18T12:33:45.847Z</time></trkpt><trkpt lat="37.0043048" lon="15.1058872"><ele>258.0</ele><time>2026-04-18T12:33:47.848Z</time></trkpt><trkpt lat="37.0042663" lon="15.1058086"><ele>258.0</ele><time>2026-04-18T12:34:00.847Z</time></trkpt><trkpt lat="37.0042268" lon="15.105719"><ele>258.0</ele><time>2026-04-18T12:34:04.848Z</time></trkpt><trkpt lat="37.004184" lon="15.1056369"><ele>258.0</ele><time>2026-04-18T12:34:07.847Z</time></trkpt><trkpt lat="37.0041515" lon="15.1055634"><ele>258.0</ele><time>2026-04-18T12:34:09.849Z</time></trkpt><trkpt lat="37.0041296" lon="15.1054687"><ele>259.5</ele><time>2026-04-18T12:34:12.848Z</time></trkpt><trkpt lat="37.0040854" lon="15.1054019"><ele>261.0</ele><time>2026-04-18T12:34:14.846Z</time></trkpt><trkpt lat="37.0040467" lon="15.1053168"><ele>262.5</ele><time>2026-04-18T12:34:16.847Z</time></trkpt><trkpt lat="37.0040062" lon="15.1052371"><ele>264.0</ele><time>2026-04-18T12:34:18.847Z</time></trkpt><trkpt lat="37.0039638" lon="15.1051275"><ele>265.5</ele><time>2026-04-18T12:34:20.848Z</time></trkpt><trkpt lat="37.0039419" lon="15.1050282"><ele>267.0</ele><time>2026-04-18T12:34:22.848Z</time></trkpt><trkpt lat="37.0039016" lon="15.1049417"><ele>267.8333333333333</ele><time>2026-04-18T12:34:24.847Z</time></trkpt><trkpt lat="37.0038401" lon="15.1048778"><ele>268.6666666666667</ele><time>2026-04-18T12:34:26.849Z</time></trkpt><trkpt lat="37.0037816" lon="15.104785"><ele>269.5</ele><time>2026-04-18T12:34:28.848Z</time></trkpt><trkpt lat="37.0037079" lon="15.1047045"><ele>270.33333333333337</ele><time>2026-04-18T12:34:30.847Z</time></trkpt><trkpt lat="37.0036527" lon="15.1046403"><ele>271.1666666666667</ele><time>2026-04-18T12:34:32.847Z</time></trkpt><trkpt lat="37.0036201" lon="15.1045524"><ele>272.0</ele><time>2026-04-18T12:34:34.847Z</time></trkpt><trkpt lat="37.0035804" lon="15.1044863"><ele>272.0</ele><time>2026-04-18T12:34:36.847Z</time></trkpt><trkpt lat="37.0035385" lon="15.1043922"><ele>272.0</ele><time>2026-04-18T12:34:39.848Z</time></trkpt><trkpt lat="37.0035334" lon="15.1042872"><ele>272.0</ele><time>2026-04-18T12:34:48.847Z</time></trkpt><trkpt lat="37.0034871" lon="15.1042076"><ele>272.0</ele><time>2026-04-18T12:34:51.848Z</time></trkpt><trkpt lat="37.0034016" lon="15.1041618"><ele>272.0</ele><time>2026-04-18T12:34:54.847Z</time></trkpt><trkpt lat="37.00333" lon="15.1041256"><ele>272.0</ele><time>2026-04-18T12:34:56.848Z</time></trkpt><trkpt lat="37.0032552" lon="15.1040869"><ele>274.0</ele><time>2026-04-18T12:34:58.846Z</time></trkpt><trkpt lat="37.0031672" lon="15.1040388"><ele>276.0</ele><time>2026-04-18T12:35:00.847Z</time></trkpt><trkpt lat="37.0030984" lon="15.1039941"><ele>278.0</ele><time>2026-04-18T12:35:02.847Z</time></trkpt><trkpt lat="37.0030458" lon="15.1039396"><ele>280.0</ele><time>2026-04-18T12:35:04.847Z</time></trkpt><trkpt lat="37.0030012" lon="15.1038778"><ele>282.0</ele><time>2026-04-18T12:35:06.849Z</time></trkpt><trkpt lat="37.0029468" lon="15.103801"><ele>284.0</ele><time>2026-04-18T12:35:09.847Z</time></trkpt><trkpt lat="37.0029037" lon="15.1037011"><ele>284.0</ele><time>2026-04-18T12:35:12.847Z</time></trkpt><trkpt lat="37.0028581" lon="15.103639"><ele>284.0</ele><time>2026-04-18T12:35:14.847Z</time></trkpt><trkpt lat="37.0028133" lon="15.1035782"><ele>284.0</ele><time>2026-04-18T12:35:16.846Z</time></trkpt><trkpt lat="37.0027573" lon="15.1034852"><ele>284.0</ele><time>2026-04-18T12:35:19.847Z</time></trkpt><trkpt lat="37.0027094" lon="15.1034213"><ele>284.0</ele><time>2026-04-18T12:35:21.847Z</time></trkpt><trkpt lat="37.0026636" lon="15.1033461"><ele>284.0</ele><time>2026-04-18T12:35:24.847Z</time></trkpt><trkpt lat="37.0026261" lon="15.1032354"><ele>285.33333333333337</ele><time>2026-04-18T12:35:27.848Z</time></trkpt><trkpt lat="37.0025896" lon="15.103158"><ele>286.6666666666667</ele><time>2026-04-18T12:35:29.847Z</time></trkpt><trkpt lat="37.0025548" lon="15.1030897"><ele>288.0</ele><time>2026-04-18T12:35:31.846Z</time></trkpt><trkpt lat="37.0025142" lon="15.1029811"><ele>289.3333333333333</ele><time>2026-04-18T12:36:04.847Z</time></trkpt><trkpt lat="37.002456" lon="15.1029012"><ele>290.66666666666663</ele><time>2026-04-18T12:36:08.846Z</time></trkpt><trkpt lat="37.0024231" lon="15.1028288"><ele>292.0</ele><time>2026-04-18T12:36:10.846Z</time></trkpt><trkpt lat="37.0023949" lon="15.1027532"><ele>292.6</ele><time>2026-04-18T12:36:11.846Z</time></trkpt><trkpt lat="37.0023664" lon="15.1026623"><ele>293.2</ele><time>2026-04-18T12:36:13.846Z</time></trkpt><trkpt lat="37.0023283" lon="15.1025823"><ele>293.8</ele><time>2026-04-18T12:36:15.846Z</time></trkpt><trkpt lat="37.0022717" lon="15.1024934"><ele>294.4</ele><time>2026-04-18T12:36:17.846Z</time></trkpt><trkpt lat="37.0022176" lon="15.1023795"><ele>295.0</ele><time>2026-04-18T12:36:19.848Z</time></trkpt><trkpt lat="37.0021589" lon="15.1022694"><ele>296.3333333333333</ele><time>2026-04-18T12:36:21.847Z</time></trkpt><trkpt lat="37.0021153" lon="15.1021832"><ele>297.66666666666663</ele><time>2026-04-18T12:36:23.847Z</time></trkpt><trkpt lat="37.0020625" lon="15.102092"><ele>299.0</ele><time>2026-04-18T12:36:25.847Z</time></trkpt><trkpt lat="37.0020119" lon="15.1020023"><ele>300.3333333333333</ele><time>2026-04-18T12:36:27.847Z</time></trkpt><trkpt lat="37.001959" lon="15.1019062"><ele>301.6666666666667</ele><time>2026-04-18T12:36:29.848Z</time></trkpt><trkpt lat="37.001923" lon="15.1018162"><ele>303.0</ele><time>2026-04-18T12:36:31.847Z</time></trkpt><trkpt lat="37.0018824" lon="15.1017444"><ele>303.0</ele><time>2026-04-18T12:36:33.848Z</time></trkpt><trkpt lat="37.0018399" lon="15.1016436"><ele>303.0</ele><time>2026-04-18T12:36:35.847Z</time></trkpt><trkpt lat="37.0017813" lon="15.1015774"><ele>303.0</ele><time>2026-04-18T12:36:37.848Z</time></trkpt><trkpt lat="37.0017158" lon="15.1014813"><ele>303.0</ele><time>2026-04-18T12:36:40.847Z</time></trkpt><trkpt lat="37.0016779" lon="15.1014148"><ele>303.0</ele><time>2026-04-18T12:36:42.847Z</time></trkpt><trkpt lat="37.0016676" lon="15.1013064"><ele>303.0</ele><time>2026-04-18T12:36:45.847Z</time></trkpt><trkpt lat="37.0016427" lon="15.1012085"><ele>304.8333333333333</ele><time>2026-04-18T12:36:47.847Z</time></trkpt><trkpt lat="37.0016259" lon="15.1011221"><ele>306.6666666666667</ele><time>2026-04-18T12:36:49.846Z</time></trkpt><trkpt lat="37.0016092" lon="15.1010385"><ele>308.5</ele><time>2026-04-18T12:36:51.847Z</time></trkpt><trkpt lat="37.0016012" lon="15.1009582"><ele>310.33333333333337</ele><time>2026-04-18T12:36:53.847Z</time></trkpt><trkpt lat="37.001564" lon="15.1008623"><ele>312.1666666666667</ele><time>2026-04-18T12:36:56.847Z</time></trkpt><trkpt lat="37.001518" lon="15.1007998"><ele>314.0</ele><time>2026-04-18T12:36:58.846Z</time></trkpt><trkpt lat="37.0014609" lon="15.1006912"><ele>317.0</ele><time>2026-04-18T12:37:00.847Z</time></trkpt><trkpt lat="37.0014531" lon="15.1005982"><ele>320.0</ele><time>2026-04-18T12:37:01.847Z</time></trkpt><trkpt lat="37.0013902" lon="15.1004721"><ele>323.0</ele><time>2026-04-18T12:37:03.847Z</time></trkpt><trkpt lat="37.0013398" lon="15.1003834"><ele>326.0</ele><time>2026-04-18T12:37:05.846Z</time></trkpt><trkpt lat="37.0013051" lon="15.1002568"><ele>329.0</ele><time>2026-04-18T12:37:07.847Z</time></trkpt><trkpt lat="37.0013015" lon="15.1001737"><ele>329.0</ele><time>2026-04-18T12:37:08.846Z</time></trkpt><trkpt lat="37.0012984" lon="15.1000832"><ele>329.0</ele><time>2026-04-18T12:37:09.847Z</time></trkpt><trkpt lat="37.0012808" lon="15.0999622"><ele>329.0</ele><time>2026-04-18T12:37:11.846Z</time></trkpt><trkpt lat="37.0012682" lon="15.0998344"><ele>329.0</ele><time>2026-04-18T12:37:13.848Z</time></trkpt><trkpt lat="37.0012704" lon="15.0997201"><ele>329.0</ele><time>2026-04-18T12:37:15.848Z</time></trkpt><trkpt lat="37.0012763" lon="15.0995998"><ele>331.2</ele><time>2026-04-18T12:37:17.847Z</time></trkpt><trkpt lat="37.001296" lon="15.0994881"><ele>333.4</ele><time>2026-04-18T12:37:19.847Z</time></trkpt><trkpt lat="37.0013335" lon="15.0993717"><ele>335.6</ele><time>2026-04-18T12:37:21.848Z</time></trkpt><trkpt lat="37.0013866" lon="15.0992803"><ele>337.8</ele><time>2026-04-18T12:37:23.847Z</time></trkpt><trkpt lat="37.0014065" lon="15.0991703"><ele>340.0</ele><time>2026-04-18T12:37:25.848Z</time></trkpt><trkpt lat="37.0013819" lon="15.0990595"><ele>341.5</ele><time>2026-04-18T12:37:28.847Z</time></trkpt><trkpt lat="37.0013441" lon="15.0989727"><ele>343.0</ele><time>2026-04-18T12:37:30.848Z</time></trkpt><trkpt lat="37.001334" lon="15.0988711"><ele>344.5</ele><time>2026-04-18T12:37:32.847Z</time></trkpt><trkpt lat="37.0013219" lon="15.0987798"><ele>346.0</ele><time>2026-04-18T12:37:34.847Z</time></trkpt><trkpt lat="37.0013207" lon="15.0986853"><ele>347.5</ele><time>2026-04-18T12:37:36.846Z</time></trkpt><trkpt lat="37.0013252" lon="15.0985888"><ele>349.0</ele><time>2026-04-18T12:37:38.847Z</time></trkpt><trkpt lat="37.0013165" lon="15.098494"><ele>349.0</ele><time>2026-04-18T12:37:40.847Z</time></trkpt><trkpt lat="37.001316" lon="15.0984106"><ele>349.0</ele><time>2026-04-18T12:37:42.847Z</time></trkpt><trkpt lat="37.0013045" lon="15.0983318"><ele>349.0</ele><time>2026-04-18T12:37:44.848Z</time></trkpt><trkpt lat="37.0012985" lon="15.0982405"><ele>349.0</ele><time>2026-04-18T12:37:46.846Z</time></trkpt><trkpt lat="37.0012953" lon="15.0981354"><ele>349.0</ele><time>2026-04-18T12:37:48.846Z</time></trkpt><trkpt lat="37.0012874" lon="15.0980217"><ele>349.0</ele><time>2026-04-18T12:37:50.846Z</time></trkpt><trkpt lat="37.0012793" lon="15.0978963"><ele>350.3333333333333</ele><time>2026-04-18T12:37:52.846Z</time></trkpt><trkpt lat="37.0012727" lon="15.0978009"><ele>351.66666666666663</ele><time>2026-04-18T12:37:54.847Z</time></trkpt><trkpt lat="37.0012732" lon="15.0976943"><ele>353.0</ele><time>2026-04-18T12:37:56.846Z</time></trkpt><trkpt lat="37.0012561" lon="15.0976095"><ele>354.3333333333333</ele><time>2026-04-18T12:37:58.847Z</time></trkpt><trkpt lat="37.0012443" lon="15.0975221"><ele>355.6666666666667</ele><time>2026-04-18T12:38:36.846Z</time></trkpt><trkpt lat="37.0012408" lon="15.0974179"><ele>357.0</ele><time>2026-04-18T12:38:39.846Z</time></trkpt><trkpt lat="37.0012387" lon="15.0973052"><ele>357.8</ele><time>2026-04-18T12:38:42.847Z</time></trkpt><trkpt lat="37.0012288" lon="15.0971703"><ele>358.6</ele><time>2026-04-18T12:38:45.846Z</time></trkpt><trkpt lat="37.0012251" lon="15.0970401"><ele>359.40000000000003</ele><time>2026-04-18T12:38:47.847Z</time></trkpt><trkpt lat="37.00122" lon="15.0969082"><ele>360.20000000000005</ele><time>2026-04-18T12:38:49.846Z</time></trkpt><trkpt lat="37.001224" lon="15.096786"><ele>361.0</ele><time>2026-04-18T12:38:51.846Z</time></trkpt><trkpt lat="37.0012346" lon="15.0966341"><ele>361.6</ele><time>2026-04-18T12:38:53.846Z</time></trkpt><trkpt lat="37.00124" lon="15.0965369"><ele>362.20000000000005</ele><time>2026-04-18T12:38:54.846Z</time></trkpt><trkpt lat="37.0012485" lon="15.0964457"><ele>362.79999999999995</ele><time>2026-04-18T12:38:55.846Z</time></trkpt><trkpt lat="37.0012778" lon="15.0962893"><ele>363.4</ele><time>2026-04-18T12:38:57.846Z</time></trkpt><trkpt lat="37.0012864" lon="15.0961339"><ele>364.0</ele><time>2026-04-18T12:38:59.847Z</time></trkpt><trkpt lat="37.001291" lon="15.0960465"><ele>364.0</ele><time>2026-04-18T12:39:00.847Z</time></trkpt><trkpt lat="37.0012988" lon="15.0959523"><ele>364.0</ele><time>2026-04-18T12:39:01.847Z</time></trkpt><trkpt lat="37.0012994" lon="15.0958641"><ele>364.0</ele><time>2026-04-18T12:39:02.847Z</time></trkpt><trkpt lat="37.0012952" lon="15.0957825"><ele>364.0</ele><time>2026-04-18T12:39:03.846Z</time></trkpt><trkpt lat="37.001296" lon="15.0956926"><ele>364.0</ele><time>2026-04-18T12:39:04.847Z</time></trkpt><trkpt lat="37.0013073" lon="15.0955555"><ele>364.0</ele><time>2026-04-18T12:39:06.847Z</time></trkpt><trkpt lat="37.0012544" lon="15.0954428"><ele>365.16666666666663</ele><time>2026-04-18T12:39:08.845Z</time></trkpt><trkpt lat="37.0012047" lon="15.0953502"><ele>366.3333333333333</ele><time>2026-04-18T12:39:10.847Z</time></trkpt><trkpt lat="37.0012301" lon="15.0952737"><ele>367.5</ele><time>2026-04-18T12:39:11.847Z</time></trkpt><trkpt lat="37.0012726" lon="15.0952096"><ele>368.6666666666667</ele><time>2026-04-18T12:39:12.845Z</time></trkpt><trkpt lat="37.0012872" lon="15.0951196"><ele>369.83333333333337</ele><time>2026-04-18T12:39:14.846Z</time></trkpt><trkpt lat="37.0012049" lon="15.0950118"><ele>371.0</ele><time>2026-04-18T12:39:16.847Z</time></trkpt><trkpt lat="37.0011617" lon="15.0949416"><ele>372.1666666666667</ele><time>2026-04-18T12:39:17.847Z</time></trkpt><trkpt lat="37.0011161" lon="15.0948715"><ele>373.33333333333337</ele><time>2026-04-18T12:39:18.846Z</time></trkpt><trkpt lat="37.001063" lon="15.0947945"><ele>374.5</ele><time>2026-04-18T12:39:19.847Z</time></trkpt><trkpt lat="37.001016" lon="15.0947224"><ele>375.6666666666667</ele><time>2026-04-18T12:39:20.847Z</time></trkpt><trkpt lat="37.0009862" lon="15.0946457"><ele>376.8333333333333</ele><time>2026-04-18T12:39:21.847Z</time></trkpt><trkpt lat="37.0009262" lon="15.0945417"><ele>378.0</ele><time>2026-04-18T12:39:23.846Z</time></trkpt><trkpt lat="37.000881" lon="15.0944783"><ele>378.0</ele><time>2026-04-18T12:39:24.847Z</time></trkpt><trkpt lat="37.0008438" lon="15.0944015"><ele>378.0</ele><time>2026-04-18T12:39:25.846Z</time></trkpt><trkpt lat="37.0008079" lon="15.0943257"><ele>378.0</ele><time>2026-04-18T12:39:26.847Z</time></trkpt><trkpt lat="37.0007423" lon="15.0942262"><ele>378.0</ele><time>2026-04-18T12:39:28.846Z</time></trkpt><trkpt lat="37.0006776" lon="15.0941506"><ele>378.0</ele><time>2026-04-18T12:39:30.846Z</time></trkpt><trkpt lat="37.0006028" lon="15.0940922"><ele>378.0</ele><time>2026-04-18T12:39:32.846Z</time></trkpt><trkpt lat="37.0005189" lon="15.0940367"><ele>381.2</ele><time>2026-04-18T12:39:34.847Z</time></trkpt><trkpt lat="37.0004438" lon="15.0939766"><ele>384.4</ele><time>2026-04-18T12:39:36.848Z</time></trkpt><trkpt lat="37.0003762" lon="15.0938979"><ele>387.59999999999997</ele><time>2026-04-18T12:39:38.847Z</time></trkpt><trkpt lat="37.0003808" lon="15.0937706"><ele>390.79999999999995</ele><time>2026-04-18T12:39:40.847Z</time></trkpt><trkpt lat="37.0003833" lon="15.0936487"><ele>394.0</ele><time>2026-04-18T12:39:42.846Z</time></trkpt><trkpt lat="37.0003749" lon="15.0935366"><ele>394.00000000000006</ele><time>2026-04-18T12:39:44.847Z</time></trkpt><trkpt lat="37.0003731" lon="15.0934091"><ele>394.0</ele><time>2026-04-18T12:39:46.845Z</time></trkpt><trkpt lat="37.0003581" lon="15.0933007"><ele>394.0</ele><time>2026-04-18T12:39:48.846Z</time></trkpt><trkpt lat="37.0003491" lon="15.0932015"><ele>394.0</ele><time>2026-04-18T12:39:50.847Z</time></trkpt><trkpt lat="37.0003523" lon="15.0930978"><ele>394.00000000000006</ele><time>2026-04-18T12:39:52.847Z</time></trkpt><trkpt lat="37.0003483" lon="15.0930055"><ele>394.0</ele><time>2026-04-18T12:39:54.847Z</time></trkpt><trkpt lat="37.0003428" lon="15.092917"><ele>396.00000000000006</ele><time>2026-04-18T12:39:56.847Z</time></trkpt><trkpt lat="37.0003441" lon="15.0928316"><ele>398.0</ele><time>2026-04-18T12:39:58.846Z</time></trkpt><trkpt lat="37.0003499" lon="15.0927221"><ele>400.0</ele><time>2026-04-18T12:40:00.845Z</time></trkpt><trkpt lat="37.000349" lon="15.0926269"><ele>402.0</ele><time>2026-04-18T12:40:02.846Z</time></trkpt><trkpt lat="37.0003309" lon="15.0925258"><ele>404.00000000000006</ele><time>2026-04-18T12:40:04.847Z</time></trkpt><trkpt lat="37.0003157" lon="15.092434"><ele>406.0</ele><time>2026-04-18T12:40:07.846Z</time></trkpt><trkpt lat="37.000281" lon="15.0923362"><ele>406.7142857142857</ele><time>2026-04-18T12:40:09.847Z</time></trkpt><trkpt lat="37.0002454" lon="15.0922465"><ele>407.42857142857144</ele><time>2026-04-18T12:40:12.845Z</time></trkpt><trkpt lat="37.0001979" lon="15.0921759"><ele>408.1428571428571</ele><time>2026-04-18T12:40:14.847Z</time></trkpt><trkpt lat="37.0001557" lon="15.0921031"><ele>408.8571428571429</ele><time>2026-04-18T12:40:16.848Z</time></trkpt><trkpt lat="37.0001273" lon="15.0920107"><ele>409.57142857142856</ele><time>2026-04-18T12:40:54.847Z</time></trkpt><trkpt lat="37.0001068" lon="15.0919223"><ele>410.2857142857143</ele><time>2026-04-18T12:40:56.845Z</time></trkpt><trkpt lat="37.000088" lon="15.0918386"><ele>411.0</ele><time>2026-04-18T12:40:58.846Z</time></trkpt><trkpt lat="37.0000634" lon="15.0917233"><ele>411.0</ele><time>2026-04-18T12:41:00.845Z</time></trkpt><trkpt lat="37.0000435" lon="15.0916435"><ele>411.0</ele><time>2026-04-18T12:41:01.847Z</time></trkpt><trkpt lat="37.0000114" lon="15.0915133"><ele>411.0</ele><time>2026-04-18T12:41:03.846Z</time></trkpt><trkpt lat="36.9999828" lon="15.0914091"><ele>411.0</ele><time>2026-04-18T12:41:05.848Z</time></trkpt><trkpt lat="36.9999696" lon="15.0912617"><ele>411.0</ele><time>2026-04-18T12:41:07.845Z</time></trkpt><trkpt lat="36.999929" lon="15.0911074"><ele>411.8</ele><time>2026-04-18T12:41:09.847Z</time></trkpt><trkpt lat="36.9999128" lon="15.0910306"><ele>412.6</ele><time>2026-04-18T12:41:10.847Z</time></trkpt><trkpt lat="36.9998931" lon="15.090929"><ele>413.4</ele><time>2026-04-18T12:41:11.846Z</time></trkpt><trkpt lat="36.9998636" lon="15.0907991"><ele>414.2</ele><time>2026-04-18T12:41:12.846Z</time></trkpt><trkpt lat="36.9998421" lon="15.0907055"><ele>415.0</ele><time>2026-04-18T12:41:13.847Z</time></trkpt><trkpt lat="36.999801" lon="15.09056"><ele>416.2</ele><time>2026-04-18T12:41:15.845Z</time></trkpt><trkpt lat="36.9997656" lon="15.090441"><ele>417.4</ele><time>2026-04-18T12:41:17.846Z</time></trkpt><trkpt lat="36.9997523" lon="15.0903206"><ele>418.6</ele><time>2026-04-18T12:41:19.847Z</time></trkpt><trkpt lat="36.9997222" lon="15.0902137"><ele>419.8</ele><time>2026-04-18T12:41:21.847Z</time></trkpt><trkpt lat="36.9996936" lon="15.0901146"><ele>421.0</ele><time>2026-04-18T12:41:23.846Z</time></trkpt><trkpt lat="36.9996628" lon="15.0900125"><ele>422.33333333333337</ele><time>2026-04-18T12:41:25.847Z</time></trkpt><trkpt lat="36.9996399" lon="15.0899192"><ele>423.6666666666667</ele><time>2026-04-18T12:41:27.846Z</time></trkpt><trkpt lat="36.9996395" lon="15.0898351"><ele>425.0</ele><time>2026-04-18T12:41:28.846Z</time></trkpt><trkpt lat="36.9996336" lon="15.0897421"><ele>426.33333333333337</ele><time>2026-04-18T12:41:30.846Z</time></trkpt><trkpt lat="36.9996252" lon="15.0896259"><ele>427.6666666666667</ele><time>2026-04-18T12:41:32.845Z</time></trkpt><trkpt lat="36.9995943" lon="15.0895394"><ele>429.0</ele><time>2026-04-18T12:41:34.845Z</time></trkpt><trkpt lat="36.9995685" lon="15.0894587"><ele>429.0</ele><time>2026-04-18T12:41:36.846Z</time></trkpt><trkpt lat="36.9995267" lon="15.0893657"><ele>429.0</ele><time>2026-04-18T12:41:39.847Z</time></trkpt><trkpt lat="36.9994962" lon="15.089283"><ele>429.0</ele><time>2026-04-18T12:41:41.846Z</time></trkpt><trkpt lat="36.9994835" lon="15.089181"><ele>429.0</ele><time>2026-04-18T12:41:43.845Z</time></trkpt><trkpt lat="36.9994588" lon="15.0890949"><ele>429.0</ele><time>2026-04-18T12:41:45.85Z</time></trkpt><trkpt lat="36.9994319" lon="15.0889777"><ele>429.0</ele><time>2026-04-18T12:41:47.845Z</time></trkpt><trkpt lat="36.9994235" lon="15.0888595"><ele>430.3333333333333</ele><time>2026-04-18T12:41:50.845Z</time></trkpt><trkpt lat="36.9993903" lon="15.0887719"><ele>431.66666666666663</ele><time>2026-04-18T12:41:52.845Z</time></trkpt><trkpt lat="36.999355" lon="15.0886889"><ele>433.0</ele><time>2026-04-18T12:41:54.848Z</time></trkpt><trkpt lat="36.9993439" lon="15.0885956"><ele>434.3333333333333</ele><time>2026-04-18T12:41:57.847Z</time></trkpt><trkpt lat="36.9993955" lon="15.0886488"><ele>435.66666666666663</ele><time>2026-04-18T12:50:34.845Z</time></trkpt><trkpt lat="36.9994099" lon="15.0887467"><ele>437.0</ele><time>2026-04-18T12:50:37.844Z</time></trkpt><trkpt lat="36.9994463" lon="15.0888523"><ele>436.99999999999994</ele><time>2026-04-18T12:50:40.844Z</time></trkpt><trkpt lat="36.9994704" lon="15.0889342"><ele>437.0</ele><time>2026-04-18T12:50:42.844Z</time></trkpt><trkpt lat="36.9995026" lon="15.089029"><ele>437.0</ele><time>2026-04-18T12:50:44.845Z</time></trkpt><trkpt lat="36.9995288" lon="15.0891149"><ele>437.0</ele><time>2026-04-18T12:50:46.845Z</time></trkpt><trkpt lat="36.9995461" lon="15.089201"><ele>436.99999999999994</ele><time>2026-04-18T12:50:48.843Z</time></trkpt><trkpt lat="36.9995646" lon="15.0893083"><ele>437.0</ele><time>2026-04-18T12:50:51.844Z</time></trkpt><trkpt lat="36.9995851" lon="15.0894056"><ele>435.85714285714283</ele><time>2026-04-18T12:50:54.845Z</time></trkpt><trkpt lat="36.9996056" lon="15.0894826"><ele>434.7142857142857</ele><time>2026-04-18T12:50:56.845Z</time></trkpt><trkpt lat="36.9996196" lon="15.0895679"><ele>433.57142857142856</ele><time>2026-04-18T12:50:59.845Z</time></trkpt><trkpt lat="36.9996423" lon="15.0896554"><ele>432.42857142857144</ele><time>2026-04-18T12:51:02.845Z</time></trkpt><trkpt lat="36.9996565" lon="15.0897496"><ele>431.28571428571433</ele><time>2026-04-18T12:51:05.844Z</time></trkpt><trkpt lat="36.9996513" lon="15.0898287"><ele>430.14285714285717</ele><time>2026-04-18T12:51:07.843Z</time></trkpt><trkpt lat="36.9996616" lon="15.0899328"><ele>429.0</ele><time>2026-04-18T12:51:10.844Z</time></trkpt><trkpt lat="36.9996876" lon="15.0900181"><ele>427.8571428571429</ele><time>2026-04-18T12:51:13.844Z</time></trkpt><trkpt lat="36.9997224" lon="15.090085"><ele>426.7142857142857</ele><time>2026-04-18T12:51:15.846Z</time></trkpt><trkpt lat="36.9997538" lon="15.0901722"><ele>425.57142857142856</ele><time>2026-04-18T12:51:18.844Z</time></trkpt><trkpt lat="36.9997605" lon="15.0902578"><ele>424.42857142857144</ele><time>2026-04-18T12:51:20.844Z</time></trkpt><trkpt lat="36.9997748" lon="15.0903355"><ele>423.2857142857143</ele><time>2026-04-18T12:51:22.844Z</time></trkpt><trkpt lat="36.9997943" lon="15.0904266"><ele>422.14285714285717</ele><time>2026-04-18T12:51:24.845Z</time></trkpt><trkpt lat="36.9998195" lon="15.0905168"><ele>421.0</ele><time>2026-04-18T12:51:26.844Z</time></trkpt><trkpt lat="36.9998331" lon="15.0906028"><ele>421.0</ele><time>2026-04-18T12:51:28.845Z</time></trkpt><trkpt lat="36.9998574" lon="15.0906969"><ele>421.0</ele><time>2026-04-18T12:51:30.844Z</time></trkpt><trkpt lat="36.9999026" lon="15.0908037"><ele>421.0</ele><time>2026-04-18T12:51:32.844Z</time></trkpt><trkpt lat="36.9999365" lon="15.0909371"><ele>421.0</ele><time>2026-04-18T12:51:34.845Z</time></trkpt><trkpt lat="36.9999317" lon="15.091028"><ele>421.0</ele><time>2026-04-18T12:51:35.844Z</time></trkpt><trkpt lat="36.9999505" lon="15.0911648"><ele>419.8</ele><time>2026-04-18T12:51:37.844Z</time></trkpt><trkpt lat="36.9999743" lon="15.0912907"><ele>418.6</ele><time>2026-04-18T12:51:39.843Z</time></trkpt><trkpt lat="36.9999988" lon="15.0914074"><ele>417.4</ele><time>2026-04-18T12:51:41.844Z</time></trkpt><trkpt lat="37.0000226" lon="15.0915132"><ele>416.2</ele><time>2026-04-18T12:51:43.844Z</time></trkpt><trkpt lat="37.0000463" lon="15.0916171"><ele>415.0</ele><time>2026-04-18T12:51:45.843Z</time></trkpt><trkpt lat="37.0000636" lon="15.091719"><ele>414.33333333333337</ele><time>2026-04-18T12:51:47.844Z</time></trkpt><trkpt lat="37.0000989" lon="15.0918156"><ele>413.6666666666667</ele><time>2026-04-18T12:51:49.844Z</time></trkpt><trkpt lat="37.0001177" lon="15.0919152"><ele>413.0</ele><time>2026-04-18T12:51:51.844Z</time></trkpt><trkpt lat="37.0001334" lon="15.0920003"><ele>412.33333333333337</ele><time>2026-04-18T12:51:53.844Z</time></trkpt><trkpt lat="37.0001623" lon="15.0920738"><ele>411.6666666666667</ele><time>2026-04-18T12:51:55.844Z</time></trkpt><trkpt lat="37.0002168" lon="15.0921475"><ele>411.0</ele><time>2026-04-18T12:51:57.845Z</time></trkpt><trkpt lat="37.0002595" lon="15.0922144"><ele>411.0</ele><time>2026-04-18T12:51:59.844Z</time></trkpt><trkpt lat="37.0002881" lon="15.0922882"><ele>411.0</ele><time>2026-04-18T12:52:01.844Z</time></trkpt><trkpt lat="37.0003286" lon="15.0923498"><ele>411.0</ele><time>2026-04-18T12:52:03.843Z</time></trkpt><trkpt lat="37.0003824" lon="15.092431"><ele>411.0</ele><time>2026-04-18T12:52:06.844Z</time></trkpt><trkpt lat="37.000399" lon="15.0925452"><ele>411.0</ele><time>2026-04-18T12:52:09.845Z</time></trkpt><trkpt lat="37.0004206" lon="15.0926536"><ele>411.0</ele><time>2026-04-18T12:52:12.844Z</time></trkpt><trkpt lat="37.0004315" lon="15.0927768"><ele>410.2857142857143</ele><time>2026-04-18T12:52:15.844Z</time></trkpt><trkpt lat="37.0004319" lon="15.0928636"><ele>409.57142857142856</ele><time>2026-04-18T12:52:17.844Z</time></trkpt><trkpt lat="37.0004218" lon="15.0929494"><ele>408.8571428571429</ele><time>2026-04-18T12:52:19.843Z</time></trkpt><trkpt lat="37.0004322" lon="15.0930325"><ele>408.1428571428571</ele><time>2026-04-18T12:52:21.843Z</time></trkpt><trkpt lat="37.0004437" lon="15.0931244"><ele>407.42857142857144</ele><time>2026-04-18T12:52:23.845Z</time></trkpt><trkpt lat="37.0004412" lon="15.0932195"><ele>406.7142857142857</ele><time>2026-04-18T12:52:25.843Z</time></trkpt><trkpt lat="37.000444" lon="15.0933159"><ele>406.0</ele><time>2026-04-18T12:52:27.844Z</time></trkpt><trkpt lat="37.0004357" lon="15.0934183"><ele>404.00000000000006</ele><time>2026-04-18T12:52:29.843Z</time></trkpt><trkpt lat="37.0004254" lon="15.093524"><ele>402.0</ele><time>2026-04-18T12:52:31.844Z</time></trkpt><trkpt lat="37.0004281" lon="15.093614"><ele>400.0</ele><time>2026-04-18T12:52:33.845Z</time></trkpt><trkpt lat="37.0004347" lon="15.0936965"><ele>398.0</ele><time>2026-04-18T12:52:35.844Z</time></trkpt><trkpt lat="37.0004404" lon="15.0937797"><ele>396.00000000000006</ele><time>2026-04-18T12:52:37.843Z</time></trkpt><trkpt lat="37.0004551" lon="15.093865"><ele>394.0</ele><time>2026-04-18T12:52:39.845Z</time></trkpt><trkpt lat="37.000526" lon="15.0939366"><ele>394.00000000000006</ele><time>2026-04-18T12:52:42.844Z</time></trkpt><trkpt lat="37.0006085" lon="15.0939983"><ele>394.0</ele><time>2026-04-18T12:52:45.844Z</time></trkpt><trkpt lat="37.0006851" lon="15.0940427"><ele>394.0</ele><time>2026-04-18T12:52:47.845Z</time></trkpt><trkpt lat="37.0007462" lon="15.0941244"><ele>394.0</ele><time>2026-04-18T12:52:49.844Z</time></trkpt><trkpt lat="37.0008174" lon="15.0941834"><ele>394.00000000000006</ele><time>2026-04-18T12:52:51.843Z</time></trkpt><trkpt lat="37.0008436" lon="15.0942867"><ele>394.0</ele><time>2026-04-18T12:52:53.843Z</time></trkpt><trkpt lat="37.0009192" lon="15.0943991"><ele>390.79999999999995</ele><time>2026-04-18T12:52:55.844Z</time></trkpt><trkpt lat="37.0010034" lon="15.0945004"><ele>387.59999999999997</ele><time>2026-04-18T12:52:57.844Z</time></trkpt><trkpt lat="37.0010528" lon="15.0946049"><ele>384.4</ele><time>2026-04-18T12:52:59.844Z</time></trkpt><trkpt lat="37.0011065" lon="15.0947156"><ele>381.2</ele><time>2026-04-18T12:53:01.844Z</time></trkpt><trkpt lat="37.0011784" lon="15.0948133"><ele>378.0</ele><time>2026-04-18T12:53:03.844Z</time></trkpt><trkpt lat="37.0012411" lon="15.0949234"><ele>376.8333333333333</ele><time>2026-04-18T12:53:05.843Z</time></trkpt><trkpt lat="37.0012907" lon="15.0950178"><ele>375.6666666666667</ele><time>2026-04-18T12:53:07.845Z</time></trkpt><trkpt lat="37.0013245" lon="15.0951263"><ele>374.5</ele><time>2026-04-18T12:53:09.843Z</time></trkpt><trkpt lat="37.0012992" lon="15.0952315"><ele>373.33333333333337</ele><time>2026-04-18T12:53:11.844Z</time></trkpt><trkpt lat="37.0012476" lon="15.0953199"><ele>372.1666666666667</ele><time>2026-04-18T12:53:13.843Z</time></trkpt><trkpt lat="37.0012655" lon="15.0954279"><ele>371.0</ele><time>2026-04-18T12:53:16.844Z</time></trkpt><trkpt lat="37.0013232" lon="15.0954928"><ele>371.0</ele><time>2026-04-18T12:53:18.844Z</time></trkpt><trkpt lat="37.0013342" lon="15.0955964"><ele>371.0</ele><time>2026-04-18T12:53:20.844Z</time></trkpt><trkpt lat="37.0013138" lon="15.0957114"><ele>371.0</ele><time>2026-04-18T12:53:22.844Z</time></trkpt><trkpt lat="37.0013204" lon="15.095854"><ele>371.0</ele><time>2026-04-18T12:53:24.844Z</time></trkpt><trkpt lat="37.0013252" lon="15.0959404"><ele>371.0</ele><time>2026-04-18T12:53:25.845Z</time></trkpt><trkpt lat="37.001328" lon="15.0960304"><ele>371.0</ele><time>2026-04-18T12:53:26.845Z</time></trkpt><trkpt lat="37.0013101" lon="15.0961337"><ele>369.6</ele><time>2026-04-18T12:53:27.844Z</time></trkpt><trkpt lat="37.0012949" lon="15.0962256"><ele>368.20000000000005</ele><time>2026-04-18T12:53:28.844Z</time></trkpt><trkpt lat="37.0012844" lon="15.0963684"><ele>366.79999999999995</ele><time>2026-04-18T12:53:30.846Z</time></trkpt><trkpt lat="37.0012698" lon="15.0965152"><ele>365.4</ele><time>2026-04-18T12:53:32.845Z</time></trkpt><trkpt lat="37.0012547" lon="15.0966694"><ele>364.0</ele><time>2026-04-18T12:53:34.843Z</time></trkpt><trkpt lat="37.0012582" lon="15.0968017"><ele>363.5</ele><time>2026-04-18T12:53:36.844Z</time></trkpt><trkpt lat="37.0012383" lon="15.0969261"><ele>363.0</ele><time>2026-04-18T12:53:38.844Z</time></trkpt><trkpt lat="37.0012412" lon="15.0970343"><ele>362.5</ele><time>2026-04-18T12:53:40.844Z</time></trkpt><trkpt lat="37.0012603" lon="15.0971395"><ele>362.0</ele><time>2026-04-18T12:53:42.844Z</time></trkpt><trkpt lat="37.0012776" lon="15.0972408"><ele>361.5</ele><time>2026-04-18T12:53:44.843Z</time></trkpt><trkpt lat="37.0012937" lon="15.0973259"><ele>361.0</ele><time>2026-04-18T12:53:46.844Z</time></trkpt><trkpt lat="37.0012823" lon="15.0974165"><ele>360.42857142857144</ele><time>2026-04-18T12:53:49.843Z</time></trkpt><trkpt lat="37.0012739" lon="15.0975268"><ele>359.85714285714283</ele><time>2026-04-18T12:53:52.845Z</time></trkpt><trkpt lat="37.0012822" lon="15.0976109"><ele>359.2857142857143</ele><time>2026-04-18T12:53:54.844Z</time></trkpt><trkpt lat="37.0012875" lon="15.0976973"><ele>358.7142857142857</ele><time>2026-04-18T12:53:57.843Z</time></trkpt><trkpt lat="37.0012878" lon="15.0977902"><ele>358.1428571428571</ele><time>2026-04-18T12:54:26.844Z</time></trkpt><trkpt lat="37.0012912" lon="15.0978807"><ele>357.57142857142856</ele><time>2026-04-18T12:54:28.845Z</time></trkpt><trkpt lat="37.0012928" lon="15.0979631"><ele>357.0</ele><time>2026-04-18T12:54:30.844Z</time></trkpt><trkpt lat="37.0013115" lon="15.0980683"><ele>357.0</ele><time>2026-04-18T12:54:33.844Z</time></trkpt><trkpt lat="37.0013112" lon="15.0981833"><ele>357.0</ele><time>2026-04-18T12:54:36.843Z</time></trkpt><trkpt lat="37.001316" lon="15.0982932"><ele>357.0</ele><time>2026-04-18T12:54:39.844Z</time></trkpt><trkpt lat="37.0013336" lon="15.0984043"><ele>357.0</ele><time>2026-04-18T12:54:42.845Z</time></trkpt><trkpt lat="37.0013389" lon="15.0984849"><ele>357.0</ele><time>2026-04-18T12:54:44.844Z</time></trkpt><trkpt lat="37.001346" lon="15.0985651"><ele>357.0</ele><time>2026-04-18T12:54:46.844Z</time></trkpt><trkpt lat="37.0013566" lon="15.0986801"><ele>355.85714285714283</ele><time>2026-04-18T12:54:49.844Z</time></trkpt><trkpt lat="37.0013658" lon="15.0987839"><ele>354.7142857142857</ele><time>2026-04-18T12:54:52.843Z</time></trkpt><trkpt lat="37.0013849" lon="15.0988719"><ele>353.57142857142856</ele><time>2026-04-18T12:54:54.845Z</time></trkpt><trkpt lat="37.0013979" lon="15.0989702"><ele>352.42857142857144</ele><time>2026-04-18T12:54:56.845Z</time></trkpt><trkpt lat="37.0014251" lon="15.0990535"><ele>351.2857142857143</ele><time>2026-04-18T12:54:58.844Z</time></trkpt><trkpt lat="37.0014656" lon="15.0991266"><ele>350.1428571428571</ele><time>2026-04-18T12:55:00.844Z</time></trkpt><trkpt lat="37.0014698" lon="15.0992113"><ele>349.0</ele><time>2026-04-18T12:55:02.844Z</time></trkpt><trkpt lat="37.0014214" lon="15.0992819"><ele>347.5</ele><time>2026-04-18T12:55:04.844Z</time></trkpt><trkpt lat="37.0013551" lon="15.0993682"><ele>346.0</ele><time>2026-04-18T12:55:07.844Z</time></trkpt><trkpt lat="37.0013351" lon="15.0994576"><ele>344.5</ele><time>2026-04-18T12:55:09.845Z</time></trkpt><trkpt lat="37.0013199" lon="15.0995445"><ele>343.0</ele><time>2026-04-18T12:55:11.844Z</time></trkpt><trkpt lat="37.0012986" lon="15.0996376"><ele>341.5</ele><time>2026-04-18T12:55:13.843Z</time></trkpt><trkpt lat="37.0012987" lon="15.099726"><ele>340.0</ele><time>2026-04-18T12:55:15.843Z</time></trkpt><trkpt lat="37.0012984" lon="15.0998378"><ele>338.16666666666663</ele><time>2026-04-18T12:55:18.845Z</time></trkpt><trkpt lat="37.0013041" lon="15.0999231"><ele>336.3333333333333</ele><time>2026-04-18T12:55:20.844Z</time></trkpt><trkpt lat="37.0013109" lon="15.1000143"><ele>334.5</ele><time>2026-04-18T12:55:22.844Z</time></trkpt><trkpt lat="37.0013312" lon="15.1000993"><ele>332.6666666666667</ele><time>2026-04-18T12:55:24.844Z</time></trkpt><trkpt lat="37.0013553" lon="15.100193"><ele>330.83333333333337</ele><time>2026-04-18T12:55:26.842Z</time></trkpt><trkpt lat="37.0013817" lon="15.1002988"><ele>329.0</ele><time>2026-04-18T12:55:29.843Z</time></trkpt><trkpt lat="37.0014293" lon="15.1003873"><ele>329.0</ele><time>2026-04-18T12:55:32.844Z</time></trkpt><trkpt lat="37.0014992" lon="15.1004624"><ele>329.0</ele><time>2026-04-18T12:55:34.845Z</time></trkpt><trkpt lat="37.0015111" lon="15.100582"><ele>329.0</ele><time>2026-04-18T12:55:36.844Z</time></trkpt><trkpt lat="37.0015613" lon="15.1006385"><ele>329.0</ele><time>2026-04-18T12:55:38.843Z</time></trkpt><trkpt lat="37.00162" lon="15.1007339"><ele>329.0</ele><time>2026-04-18T12:55:41.844Z</time></trkpt><trkpt lat="37.0016539" lon="15.1008051"><ele>329.0</ele><time>2026-04-18T12:55:43.845Z</time></trkpt><trkpt lat="37.001664" lon="15.1008876"><ele>326.1666666666667</ele><time>2026-04-18T12:55:46.843Z</time></trkpt><trkpt lat="37.0016983" lon="15.1009785"><ele>323.33333333333337</ele><time>2026-04-18T12:55:48.844Z</time></trkpt><trkpt lat="37.0017258" lon="15.1010752"><ele>320.5</ele><time>2026-04-18T12:55:50.842Z</time></trkpt><trkpt lat="37.0017347" lon="15.1011702"><ele>317.6666666666667</ele><time>2026-04-18T12:55:52.843Z</time></trkpt><trkpt lat="37.0017491" lon="15.1012517"><ele>314.8333333333333</ele><time>2026-04-18T12:55:54.843Z</time></trkpt><trkpt lat="37.0017807" lon="15.1013582"><ele>312.0</ele><time>2026-04-18T12:55:57.844Z</time></trkpt><trkpt lat="37.0018064" lon="15.1014415"><ele>312.0</ele><time>2026-04-18T12:55:59.842Z</time></trkpt><trkpt lat="37.0018539" lon="15.101511"><ele>312.0</ele><time>2026-04-18T12:56:01.845Z</time></trkpt><trkpt lat="37.0019025" lon="15.10157"><ele>312.0</ele><time>2026-04-18T12:56:03.843Z</time></trkpt><trkpt lat="37.001951" lon="15.1016398"><ele>312.0</ele><time>2026-04-18T12:56:05.843Z</time></trkpt><trkpt lat="37.0019929" lon="15.1017177"><ele>312.0</ele><time>2026-04-18T12:56:07.844Z</time></trkpt><trkpt lat="37.0020255" lon="15.1017877"><ele>312.0</ele><time>2026-04-18T12:56:09.843Z</time></trkpt><trkpt lat="37.0020697" lon="15.1018737"><ele>312.0</ele><time>2026-04-18T12:56:12.842Z</time></trkpt><trkpt lat="37.0021214" lon="15.1019588"><ele>310.7142857142857</ele><time>2026-04-18T12:56:15.845Z</time></trkpt><trkpt lat="37.0021479" lon="15.1020322"><ele>309.4285714285714</ele><time>2026-04-18T12:56:17.843Z</time></trkpt><trkpt lat="37.0021786" lon="15.1021058"><ele>308.1428571428571</ele><time>2026-04-18T12:56:19.842Z</time></trkpt><trkpt lat="37.0022314" lon="15.1022068"><ele>306.8571428571429</ele><time>2026-04-18T12:56:22.843Z</time></trkpt><trkpt lat="37.0022691" lon="15.1022909"><ele>305.57142857142856</ele><time>2026-04-18T12:56:24.844Z</time></trkpt><trkpt lat="37.0022983" lon="15.1023745"><ele>304.2857142857143</ele><time>2026-04-18T12:56:26.842Z</time></trkpt><trkpt lat="37.0023288" lon="15.10245"><ele>303.0</ele><time>2026-04-18T12:56:28.842Z</time></trkpt><trkpt lat="37.0023739" lon="15.1025243"><ele>301.8571428571429</ele><time>2026-04-18T12:56:30.843Z</time></trkpt><trkpt lat="37.0024161" lon="15.1025877"><ele>300.7142857142857</ele><time>2026-04-18T12:56:32.843Z</time></trkpt><trkpt lat="37.0024516" lon="15.1026539"><ele>299.57142857142856</ele><time>2026-04-18T12:56:34.844Z</time></trkpt><trkpt lat="37.0024865" lon="15.1027235"><ele>298.42857142857144</ele><time>2026-04-18T12:56:36.844Z</time></trkpt><trkpt lat="37.0025347" lon="15.1028045"><ele>297.2857142857143</ele><time>2026-04-18T12:56:39.844Z</time></trkpt><trkpt lat="37.0025845" lon="15.1028832"><ele>296.14285714285717</ele><time>2026-04-18T12:56:42.844Z</time></trkpt><trkpt lat="37.002629" lon="15.1029522"><ele>295.0</ele><time>2026-04-18T12:56:45.843Z</time></trkpt><trkpt lat="37.0026571" lon="15.1030416"><ele>294.5</ele><time>2026-04-18T12:56:48.844Z</time></trkpt><trkpt lat="37.0027" lon="15.1031453"><ele>294.0</ele><time>2026-04-18T12:56:51.844Z</time></trkpt><trkpt lat="37.0027326" lon="15.1032187"><ele>293.5</ele><time>2026-04-18T12:56:53.843Z</time></trkpt><trkpt lat="37.0027803" lon="15.1033114"><ele>293.0</ele><time>2026-04-18T12:56:56.843Z</time></trkpt><trkpt lat="37.0028294" lon="15.1033846"><ele>292.5</ele><time>2026-04-18T12:56:59.847Z</time></trkpt><trkpt lat="37.0028774" lon="15.1034738"><ele>292.0</ele><time>2026-04-18T12:57:02.842Z</time></trkpt><trkpt lat="37.0029266" lon="15.103555"><ele>290.66666666666663</ele><time>2026-04-18T12:57:05.843Z</time></trkpt><trkpt lat="37.0029884" lon="15.1036444"><ele>289.3333333333333</ele><time>2026-04-18T12:57:08.842Z</time></trkpt><trkpt lat="37.0030395" lon="15.1037313"><ele>288.0</ele><time>2026-04-18T12:57:11.843Z</time></trkpt><trkpt lat="37.0030716" lon="15.1038239"><ele>286.6666666666667</ele><time>2026-04-18T12:57:14.81Z</time></trkpt><trkpt lat="37.0031259" lon="15.1039045"><ele>285.33333333333337</ele><time>2026-04-18T12:57:17.843Z</time></trkpt><trkpt lat="37.0031864" lon="15.1039367"><ele>284.0</ele><time>2026-04-18T12:57:19.843Z</time></trkpt><trkpt lat="37.0032539" lon="15.1039596"><ele>284.0</ele><time>2026-04-18T12:57:21.843Z</time></trkpt><trkpt lat="37.0033271" lon="15.1039882"><ele>284.0</ele><time>2026-04-18T12:57:23.843Z</time></trkpt><trkpt lat="37.0033955" lon="15.1040187"><ele>284.0</ele><time>2026-04-18T12:57:25.843Z</time></trkpt><trkpt lat="37.0034674" lon="15.1040527"><ele>284.0</ele><time>2026-04-18T12:57:28.842Z</time></trkpt><trkpt lat="37.0035174" lon="15.1041167"><ele>284.0</ele><time>2026-04-18T12:57:31.79Z</time></trkpt><trkpt lat="37.0035509" lon="15.1041891"><ele>284.0</ele><time>2026-04-18T12:57:33.842Z</time></trkpt><trkpt lat="37.0035851" lon="15.1042832"><ele>284.0</ele><time>2026-04-18T12:57:36.844Z</time></trkpt><trkpt lat="37.0036078" lon="15.1043748"><ele>282.2857142857143</ele><time>2026-04-18T12:57:39.844Z</time></trkpt><trkpt lat="37.003656" lon="15.1044481"><ele>280.57142857142856</ele><time>2026-04-18T12:57:42.842Z</time></trkpt><trkpt lat="37.0036974" lon="15.1045289"><ele>278.85714285714283</ele><time>2026-04-18T12:57:45.844Z</time></trkpt><trkpt lat="37.0037428" lon="15.1045869"><ele>277.1428571428571</ele><time>2026-04-18T12:57:48.843Z</time></trkpt><trkpt lat="37.0038011" lon="15.1046512"><ele>275.42857142857144</ele><time>2026-04-18T12:57:51.843Z</time></trkpt><trkpt lat="37.00386" lon="15.1047179"><ele>273.71428571428567</ele><time>2026-04-18T12:57:54.801Z</time></trkpt><trkpt lat="37.0039103" lon="15.10478"><ele>272.0</ele><time>2026-04-18T12:57:57.843Z</time></trkpt><trkpt lat="37.0039644" lon="15.1048689"><ele>271.2857142857143</ele><time>2026-04-18T12:58:00.843Z</time></trkpt><trkpt lat="37.0040004" lon="15.1049434"><ele>270.57142857142856</ele><time>2026-04-18T12:58:02.843Z</time></trkpt><trkpt lat="37.0040173" lon="15.10503"><ele>269.8571428571429</ele><time>2026-04-18T12:58:04.808Z</time></trkpt><trkpt lat="37.0040531" lon="15.1051264"><ele>269.1428571428571</ele><time>2026-04-18T12:58:06.842Z</time></trkpt><trkpt lat="37.0040851" lon="15.1051963"><ele>268.42857142857144</ele><time>2026-04-18T12:58:08.844Z</time></trkpt><trkpt lat="37.0041072" lon="15.1052807"><ele>267.7142857142857</ele><time>2026-04-18T12:58:10.843Z</time></trkpt><trkpt lat="37.0041332" lon="15.1053576"><ele>267.0</ele><time>2026-04-18T12:58:12.844Z</time></trkpt><trkpt lat="37.0041597" lon="15.1054331"><ele>266.14285714285717</ele><time>2026-04-18T12:59:23.842Z</time></trkpt><trkpt lat="37.0041962" lon="15.105513"><ele>265.2857142857143</ele><time>2026-04-18T12:59:38.843Z</time></trkpt><trkpt lat="37.0042184" lon="15.1056001"><ele>264.42857142857144</ele><time>2026-04-18T12:59:47.843Z</time></trkpt><trkpt lat="37.0042619" lon="15.1056595"><ele>263.57142857142856</ele><time>2026-04-18T12:59:50.843Z</time></trkpt><trkpt lat="37.0043006" lon="15.105741"><ele>262.7142857142857</ele><time>2026-04-18T12:59:53.843Z</time></trkpt><trkpt lat="37.0043447" lon="15.1058205"><ele>261.8571428571429</ele><time>2026-04-18T12:59:56.842Z</time></trkpt><trkpt lat="37.0043866" lon="15.1059078"><ele>261.0</ele><time>2026-04-18T12:59:59.842Z</time></trkpt><trkpt lat="37.0044159" lon="15.1059997"><ele>260.5</ele><time>2026-04-18T13:00:02.842Z</time></trkpt><trkpt lat="37.0044718" lon="15.1060776"><ele>260.0</ele><time>2026-04-18T13:00:05.842Z</time></trkpt><trkpt lat="37.0045009" lon="15.1061524"><ele>259.5</ele><time>2026-04-18T13:00:07.842Z</time></trkpt><trkpt lat="37.0045054" lon="15.1062426"><ele>259.0</ele><time>2026-04-18T13:00:09.843Z</time></trkpt><trkpt lat="37.004528" lon="15.1063486"><ele>258.5</ele><time>2026-04-18T13:00:12.843Z</time></trkpt><trkpt lat="37.0045784" lon="15.1064454"><ele>258.0</ele><time>2026-04-18T13:00:15.844Z</time></trkpt><trkpt lat="37.004593" lon="15.1065493"><ele>257.0</ele><time>2026-04-18T13:00:18.842Z</time></trkpt><trkpt lat="37.0046033" lon="15.1066596"><ele>256.0</ele><time>2026-04-18T13:00:21.844Z</time></trkpt><trkpt lat="37.0045922" lon="15.1067615"><ele>255.0</ele><time>2026-04-18T13:00:23.843Z</time></trkpt><trkpt lat="37.0046228" lon="15.1068551"><ele>254.0</ele><time>2026-04-18T13:00:26.843Z</time></trkpt><trkpt lat="37.0046383" lon="15.10694"><ele>253.0</ele><time>2026-04-18T13:00:28.843Z</time></trkpt><trkpt lat="37.004626" lon="15.1070217"><ele>252.0</ele><time>2026-04-18T13:00:30.843Z</time></trkpt><trkpt lat="37.0046244" lon="15.1071125"><ele>252.0</ele><time>2026-04-18T13:00:33.843Z</time></trkpt><trkpt lat="37.0046437" lon="15.1072105"><ele>252.0</ele><time>2026-04-18T13:00:36.843Z</time></trkpt><trkpt lat="37.0046659" lon="15.1072913"><ele>252.0</ele><time>2026-04-18T13:00:39.843Z</time></trkpt><trkpt lat="37.0046901" lon="15.1073927"><ele>252.0</ele><time>2026-04-18T13:00:42.843Z</time></trkpt><trkpt lat="37.004687" lon="15.1074779"><ele>252.0</ele><time>2026-04-18T13:00:44.842Z</time></trkpt><trkpt lat="37.0046923" lon="15.1075652"><ele>252.0</ele><time>2026-04-18T13:00:46.842Z</time></trkpt><trkpt lat="37.004708" lon="15.1076602"><ele>252.0</ele><time>2026-04-18T13:00:48.842Z</time></trkpt><trkpt lat="37.0047087" lon="15.1077653"><ele>251.33333333333334</ele><time>2026-04-18T13:00:50.842Z</time></trkpt><trkpt lat="37.004709" lon="15.1078682"><ele>250.66666666666669</ele><time>2026-04-18T13:00:52.751Z</time></trkpt><trkpt lat="37.0047222" lon="15.1079526"><ele>250.0</ele><time>2026-04-18T13:00:53.843Z</time></trkpt><trkpt lat="37.0047329" lon="15.1080661"><ele>249.33333333333334</ele><time>2026-04-18T13:00:55.842Z</time></trkpt><trkpt lat="37.0047555" lon="15.1081833"><ele>248.66666666666669</ele><time>2026-04-18T13:00:57.843Z</time></trkpt><trkpt lat="37.0047793" lon="15.1083112"><ele>248.0</ele><time>2026-04-18T13:00:59.843Z</time></trkpt><trkpt lat="37.0048135" lon="15.1084183"><ele>245.8</ele><time>2026-04-18T13:01:01.842Z</time></trkpt><trkpt lat="37.0048443" lon="15.1085316"><ele>243.60000000000002</ele><time>2026-04-18T13:01:03.842Z</time></trkpt><trkpt lat="37.004867" lon="15.1086571"><ele>241.39999999999998</ele><time>2026-04-18T13:01:05.844Z</time></trkpt><trkpt lat="37.0048983" lon="15.1087861"><ele>239.2</ele><time>2026-04-18T13:01:07.843Z</time></trkpt><trkpt lat="37.0049279" lon="15.1089224"><ele>237.0</ele><time>2026-04-18T13:01:09.842Z</time></trkpt><trkpt lat="37.0049566" lon="15.1090712"><ele>235.6</ele><time>2026-04-18T13:01:11.842Z</time></trkpt><trkpt lat="37.004991" lon="15.1092316"><ele>234.2</ele><time>2026-04-18T13:01:13.842Z</time></trkpt><trkpt lat="37.0050096" lon="15.1093352"><ele>232.8</ele><time>2026-04-18T13:01:14.842Z</time></trkpt><trkpt lat="37.0050325" lon="15.1094276"><ele>231.4</ele><time>2026-04-18T13:01:15.843Z</time></trkpt><trkpt lat="37.0050214" lon="15.1095529"><ele>230.0</ele><time>2026-04-18T13:01:16.843Z</time></trkpt><trkpt lat="37.0050565" lon="15.109635"><ele>229.85714285714283</ele><time>2026-04-18T13:01:17.841Z</time></trkpt><trkpt lat="37.0050899" lon="15.1097254"><ele>229.71428571428572</ele><time>2026-04-18T13:01:18.843Z</time></trkpt><trkpt lat="37.0051144" lon="15.1098177"><ele>229.57142857142856</ele><time>2026-04-18T13:01:19.843Z</time></trkpt><trkpt lat="37.0051551" lon="15.1098972"><ele>229.42857142857142</ele><time>2026-04-18T13:01:20.843Z</time></trkpt><trkpt lat="37.005184" lon="15.1099788"><ele>229.28571428571428</ele><time>2026-04-18T13:01:21.841Z</time></trkpt><trkpt lat="37.005201" lon="15.110062"><ele>229.14285714285714</ele><time>2026-04-18T13:01:22.842Z</time></trkpt><trkpt lat="37.0052281" lon="15.1101405"><ele>229.0</ele><time>2026-04-18T13:01:23.842Z</time></trkpt><trkpt lat="37.0052781" lon="15.1102284"><ele>228.16666666666666</ele><time>2026-04-18T13:01:24.842Z</time></trkpt><trkpt lat="37.0052967" lon="15.1103244"><ele>227.33333333333331</ele><time>2026-04-18T13:01:25.842Z</time></trkpt><trkpt lat="37.0053359" lon="15.1104274"><ele>226.5</ele><time>2026-04-18T13:01:26.844Z</time></trkpt><trkpt lat="37.0053597" lon="15.1105334"><ele>225.66666666666669</ele><time>2026-04-18T13:01:27.841Z</time></trkpt><trkpt lat="37.0053855" lon="15.1106249"><ele>224.83333333333334</ele><time>2026-04-18T13:01:28.843Z</time></trkpt><trkpt lat="37.005412" lon="15.1107144"><ele>224.0</ele><time>2026-04-18T13:01:29.842Z</time></trkpt><trkpt lat="37.00543" lon="15.1108066"><ele>223.16666666666669</ele><time>2026-04-18T13:01:30.841Z</time></trkpt><trkpt lat="37.0054537" lon="15.1108923"><ele>222.33333333333334</ele><time>2026-04-18T13:01:31.841Z</time></trkpt><trkpt lat="37.0054705" lon="15.1109768"><ele>221.5</ele><time>2026-04-18T13:01:32.843Z</time></trkpt><trkpt lat="37.0054955" lon="15.1110755"><ele>220.66666666666669</ele><time>2026-04-18T13:01:33.843Z</time></trkpt><trkpt lat="37.0055177" lon="15.1111637"><ele>219.83333333333334</ele><time>2026-04-18T13:01:34.843Z</time></trkpt><trkpt lat="37.0055465" lon="15.1112499"><ele>219.0</ele><time>2026-04-18T13:01:35.844Z</time></trkpt><trkpt lat="37.0055657" lon="15.1113437"><ele>219.0</ele><time>2026-04-18T13:01:36.843Z</time></trkpt><trkpt lat="37.0055776" lon="15.1114407"><ele>219.0</ele><time>2026-04-18T13:01:37.842Z</time></trkpt><trkpt lat="37.0056007" lon="15.1115492"><ele>219.0</ele><time>2026-04-18T13:01:38.842Z</time></trkpt><trkpt lat="37.0056221" lon="15.1116421"><ele>219.0</ele><time>2026-04-18T13:01:39.842Z</time></trkpt><trkpt lat="37.0056431" lon="15.1117303"><ele>219.0</ele><time>2026-04-18T13:01:40.842Z</time></trkpt><trkpt lat="37.0056743" lon="15.1118"><ele>219.0</ele><time>2026-04-18T13:01:41.842Z</time></trkpt><trkpt lat="37.0057303" lon="15.1119404"><ele>218.25</ele><time>2026-04-18T13:01:43.843Z</time></trkpt><trkpt lat="37.005751" lon="15.1120678"><ele>217.5</ele><time>2026-04-18T13:01:45.843Z</time></trkpt><trkpt lat="37.0057605" lon="15.1122338"><ele>216.75</ele><time>2026-04-18T13:01:47.843Z</time></trkpt><trkpt lat="37.0057632" lon="15.1123501"><ele>216.0</ele><time>2026-04-18T13:01:48.842Z</time></trkpt><trkpt lat="37.0057677" lon="15.1125015"><ele>216.0</ele><time>2026-04-18T13:01:49.843Z</time></trkpt><trkpt lat="37.0057774" lon="15.1126523"><ele>216.0</ele><time>2026-04-18T13:01:50.845Z</time></trkpt><trkpt lat="37.0057986" lon="15.1128185"><ele>216.0</ele><time>2026-04-18T13:01:51.843Z</time></trkpt><trkpt lat="37.0058315" lon="15.1129563"><ele>216.0</ele><time>2026-04-18T13:01:52.843Z</time></trkpt><trkpt lat="37.0058504" lon="15.1130712"><ele>215.5</ele><time>2026-04-18T13:01:53.843Z</time></trkpt><trkpt lat="37.0058739" lon="15.113176"><ele>215.0</ele><time>2026-04-18T13:01:54.842Z</time></trkpt><trkpt lat="37.0059136" lon="15.113263"><ele>214.5</ele><time>2026-04-18T13:01:55.843Z</time></trkpt><trkpt lat="37.0059478" lon="15.1133435"><ele>214.0</ele><time>2026-04-18T13:01:56.844Z</time></trkpt><trkpt lat="37.0059872" lon="15.1134835"><ele>213.5</ele><time>2026-04-18T13:01:58.841Z</time></trkpt><trkpt lat="37.005988" lon="15.113571"><ele>213.0</ele><time>2026-04-18T13:01:59.843Z</time></trkpt><trkpt lat="37.0059931" lon="15.113653"><ele>213.0</ele><time>2026-04-18T13:02:00.842Z</time></trkpt><trkpt lat="37.0059937" lon="15.1137837"><ele>213.0</ele><time>2026-04-18T13:02:02.842Z</time></trkpt><trkpt lat="37.0059988" lon="15.1138927"><ele>213.0</ele><time>2026-04-18T13:02:04.842Z</time></trkpt><trkpt lat="37.0059942" lon="15.1139723"><ele>213.0</ele><time>2026-04-18T13:02:05.844Z</time></trkpt><trkpt lat="37.0059767" lon="15.1140755"><ele>213.0</ele><time>2026-04-18T13:02:06.842Z</time></trkpt><trkpt lat="37.0059773" lon="15.1141919"><ele>213.0</ele><time>2026-04-18T13:02:07.841Z</time></trkpt><trkpt lat="37.0059995" lon="15.114341"><ele>212.75</ele><time>2026-04-18T13:02:08.842Z</time></trkpt><trkpt lat="37.0060246" lon="15.1145007"><ele>212.5</ele><time>2026-04-18T13:02:09.843Z</time></trkpt><trkpt lat="37.0060616" lon="15.1146546"><ele>212.25</ele><time>2026-04-18T13:02:10.842Z</time></trkpt><trkpt lat="37.0060939" lon="15.1147935"><ele>212.0</ele><time>2026-04-18T13:02:11.842Z</time></trkpt><trkpt lat="37.0061181" lon="15.1149241"><ele>211.39999999999998</ele><time>2026-04-18T13:02:12.844Z</time></trkpt><trkpt lat="37.0061421" lon="15.1150481"><ele>210.79999999999998</ele><time>2026-04-18T13:02:13.843Z</time></trkpt><trkpt lat="37.0061704" lon="15.1151638"><ele>210.2</ele><time>2026-04-18T13:02:14.842Z</time></trkpt><trkpt lat="37.0061864" lon="15.1152733"><ele>209.6</ele><time>2026-04-18T13:02:15.843Z</time></trkpt><trkpt lat="37.0061982" lon="15.1153822"><ele>209.0</ele><time>2026-04-18T13:02:16.843Z</time></trkpt><trkpt lat="37.0062122" lon="15.1154759"><ele>209.00000000000003</ele><time>2026-04-18T13:02:17.843Z</time></trkpt><trkpt lat="37.0062303" lon="15.1155562"><ele>209.0</ele><time>2026-04-18T13:02:18.843Z</time></trkpt><trkpt lat="37.0062624" lon="15.115625"><ele>209.0</ele><time>2026-04-18T13:02:19.843Z</time></trkpt><trkpt lat="37.0063144" lon="15.115689"><ele>209.0</ele><time>2026-04-18T13:02:20.841Z</time></trkpt><trkpt lat="37.0064221" lon="15.1157566"><ele>209.00000000000003</ele><time>2026-04-18T13:02:22.842Z</time></trkpt><trkpt lat="37.0065208" lon="15.1157625"><ele>209.0</ele><time>2026-04-18T13:02:24.843Z</time></trkpt><trkpt lat="37.0065972" lon="15.1157295"><ele>209.00000000000003</ele><time>2026-04-18T13:02:26.842Z</time></trkpt><trkpt lat="37.0066131" lon="15.1155979"><ele>209.0</ele><time>2026-04-18T13:02:28.842Z</time></trkpt><trkpt lat="37.0066164" lon="15.1155135"><ele>209.0</ele><time>2026-04-18T13:02:29.841Z</time></trkpt><trkpt lat="37.006622" lon="15.1154085"><ele>209.0</ele><time>2026-04-18T13:02:30.843Z</time></trkpt><trkpt lat="37.0066384" lon="15.1153081"><ele>209.00000000000003</ele><time>2026-04-18T13:02:31.842Z</time></trkpt><trkpt lat="37.006662" lon="15.1151985"><ele>209.0</ele><time>2026-04-18T13:02:32.843Z</time></trkpt><trkpt lat="37.0066762" lon="15.1151098"><ele>207.50000000000003</ele><time>2026-04-18T13:02:33.841Z</time></trkpt><trkpt lat="37.0066941" lon="15.1150245"><ele>206.0</ele><time>2026-04-18T13:02:34.842Z</time></trkpt><trkpt lat="37.0067155" lon="15.1149243"><ele>204.5</ele><time>2026-04-18T13:02:35.843Z</time></trkpt><trkpt lat="37.0067409" lon="15.1148334"><ele>203.0</ele><time>2026-04-18T13:02:36.841Z</time></trkpt><trkpt lat="37.0067495" lon="15.1147382"><ele>201.50000000000003</ele><time>2026-04-18T13:02:37.843Z</time></trkpt><trkpt lat="37.0067663" lon="15.1146469"><ele>200.0</ele><time>2026-04-18T13:02:38.842Z</time></trkpt><trkpt lat="37.0067583" lon="15.1145478"><ele>199.71428571428572</ele><time>2026-04-18T13:02:39.842Z</time></trkpt><trkpt lat="37.0067444" lon="15.1144581"><ele>199.42857142857144</ele><time>2026-04-18T13:02:40.841Z</time></trkpt><trkpt lat="37.0067393" lon="15.1143766"><ele>199.14285714285717</ele><time>2026-04-18T13:02:41.843Z</time></trkpt><trkpt lat="37.0067217" lon="15.1142983"><ele>198.85714285714286</ele><time>2026-04-18T13:02:42.843Z</time></trkpt><trkpt lat="37.0067" lon="15.1142091"><ele>198.57142857142856</ele><time>2026-04-18T13:02:44.843Z</time></trkpt><trkpt lat="37.0067487" lon="15.1141293"><ele>198.2857142857143</ele><time>2026-04-18T13:02:46.843Z</time></trkpt><trkpt lat="37.0068213" lon="15.1141496"><ele>198.0</ele><time>2026-04-18T13:02:48.843Z</time></trkpt><trkpt lat="37.0068868" lon="15.1143049"><ele>198.0</ele><time>2026-04-18T13:02:50.844Z</time></trkpt><trkpt lat="37.0069104" lon="15.1144017"><ele>198.0</ele><time>2026-04-18T13:02:51.843Z</time></trkpt><trkpt lat="37.0069555" lon="15.1144851"><ele>198.0</ele><time>2026-04-18T13:02:52.842Z</time></trkpt><trkpt lat="37.0069908" lon="15.1145625"><ele>198.0</ele><time>2026-04-18T13:02:53.842Z</time></trkpt><trkpt lat="37.0070307" lon="15.1146545"><ele>198.0</ele><time>2026-04-18T13:02:54.841Z</time></trkpt><trkpt lat="37.0070581" lon="15.1147509"><ele>198.0</ele><time>2026-04-18T13:02:55.841Z</time></trkpt><trkpt lat="37.0070784" lon="15.1148542"><ele>198.33333333333334</ele><time>2026-04-18T13:02:56.842Z</time></trkpt><trkpt lat="37.00708" lon="15.1149589"><ele>198.66666666666669</ele><time>2026-04-18T13:02:57.842Z</time></trkpt><trkpt lat="37.0070687" lon="15.115055"><ele>199.0</ele><time>2026-04-18T13:02:58.842Z</time></trkpt><trkpt lat="37.0070728" lon="15.1151561"><ele>199.33333333333334</ele><time>2026-04-18T13:02:59.843Z</time></trkpt><trkpt lat="37.0071038" lon="15.1152448"><ele>199.66666666666669</ele><time>2026-04-18T13:03:00.843Z</time></trkpt><trkpt lat="37.007136" lon="15.1153335"><ele>200.0</ele><time>2026-04-18T13:03:01.842Z</time></trkpt><trkpt lat="37.0071925" lon="15.1154224"><ele>200.0</ele><time>2026-04-18T13:03:02.842Z</time></trkpt><trkpt lat="37.0072453" lon="15.1155121"><ele>200.0</ele><time>2026-04-18T13:03:03.841Z</time></trkpt><trkpt lat="37.0073012" lon="15.1156153"><ele>200.0</ele><time>2026-04-18T13:03:04.844Z</time></trkpt><trkpt lat="37.0073453" lon="15.1157359"><ele>200.0</ele><time>2026-04-18T13:03:05.842Z</time></trkpt><trkpt lat="37.0073706" lon="15.1158548"><ele>200.0</ele><time>2026-04-18T13:03:06.843Z</time></trkpt><trkpt lat="37.0073988" lon="15.1159699"><ele>200.33333333333334</ele><time>2026-04-18T13:03:07.841Z</time></trkpt><trkpt lat="37.0074354" lon="15.1160758"><ele>200.66666666666669</ele><time>2026-04-18T13:03:08.842Z</time></trkpt><trkpt lat="37.0074733" lon="15.1161712"><ele>201.0</ele><time>2026-04-18T13:03:09.842Z</time></trkpt><trkpt lat="37.0074886" lon="15.1162663"><ele>201.33333333333331</ele><time>2026-04-18T13:03:10.842Z</time></trkpt><trkpt lat="37.0075186" lon="15.116345"><ele>201.66666666666666</ele><time>2026-04-18T13:03:11.844Z</time></trkpt><trkpt lat="37.0075512" lon="15.1164643"><ele>202.0</ele><time>2026-04-18T13:03:13.842Z</time></trkpt><trkpt lat="37.0076033" lon="15.116515"><ele>200.66666666666666</ele><time>2026-04-18T13:03:15.843Z</time></trkpt><trkpt lat="37.0076507" lon="15.1164213"><ele>199.33333333333331</ele><time>2026-04-18T13:03:17.842Z</time></trkpt><trkpt lat="37.0076504" lon="15.1163416"><ele>198.0</ele><time>2026-04-18T13:03:18.843Z</time></trkpt><trkpt lat="37.0076386" lon="15.1162468"><ele>196.66666666666669</ele><time>2026-04-18T13:03:19.842Z</time></trkpt><trkpt lat="37.0076287" lon="15.1161468"><ele>195.33333333333334</ele><time>2026-04-18T13:03:20.841Z</time></trkpt><trkpt lat="37.0076347" lon="15.1160307"><ele>194.0</ele><time>2026-04-18T13:03:21.842Z</time></trkpt><trkpt lat="37.0076322" lon="15.1159204"><ele>194.0</ele><time>2026-04-18T13:03:22.842Z</time></trkpt><trkpt lat="37.0076228" lon="15.1158043"><ele>194.0</ele><time>2026-04-18T13:03:23.841Z</time></trkpt><trkpt lat="37.0076073" lon="15.1156817"><ele>194.0</ele><time>2026-04-18T13:03:24.843Z</time></trkpt><trkpt lat="37.0075891" lon="15.1155599"><ele>194.0</ele><time>2026-04-18T13:03:25.842Z</time></trkpt><trkpt lat="37.0075518" lon="15.1154388"><ele>194.0</ele><time>2026-04-18T13:03:26.842Z</time></trkpt><trkpt lat="37.0075154" lon="15.1153219"><ele>194.79999999999998</ele><time>2026-04-18T13:03:27.841Z</time></trkpt><trkpt lat="37.0074763" lon="15.1152277"><ele>195.6</ele><time>2026-04-18T13:03:28.843Z</time></trkpt><trkpt lat="37.0074437" lon="15.1151309"><ele>196.4</ele><time>2026-04-18T13:03:29.842Z</time></trkpt><trkpt lat="37.0074432" lon="15.1150199"><ele>197.2</ele><time>2026-04-18T13:03:30.842Z</time></trkpt><trkpt lat="37.0074407" lon="15.1149092"><ele>198.0</ele><time>2026-04-18T13:03:31.843Z</time></trkpt><trkpt lat="37.007446" lon="15.1147714"><ele>198.0</ele><time>2026-04-18T13:03:32.842Z</time></trkpt><trkpt lat="37.0074557" lon="15.1146457"><ele>198.0</ele><time>2026-04-18T13:03:33.843Z</time></trkpt><trkpt lat="37.007447" lon="15.1145588"><ele>198.0</ele><time>2026-04-18T13:03:34.843Z</time></trkpt><trkpt lat="37.0074855" lon="15.1144447"><ele>198.0</ele><time>2026-04-18T13:03:36.844Z</time></trkpt><trkpt lat="37.0075622" lon="15.1143765"><ele>198.0</ele><time>2026-04-18T13:03:38.842Z</time></trkpt><trkpt lat="37.0076658" lon="15.1144391"><ele>199.2</ele><time>2026-04-18T13:03:40.842Z</time></trkpt><trkpt lat="37.0077298" lon="15.1144903"><ele>200.4</ele><time>2026-04-18T13:03:41.841Z</time></trkpt><trkpt lat="37.0077941" lon="15.1145342"><ele>201.6</ele><time>2026-04-18T13:03:42.842Z</time></trkpt><trkpt lat="37.0079174" lon="15.1145439"><ele>202.79999999999998</ele><time>2026-04-18T13:03:44.842Z</time></trkpt><trkpt lat="37.0080293" lon="15.1144733"><ele>204.0</ele><time>2026-04-18T13:03:46.841Z</time></trkpt><trkpt lat="37.00809" lon="15.1144233"><ele>204.0</ele><time>2026-04-18T13:03:47.841Z</time></trkpt><trkpt lat="37.0081665" lon="15.1144059"><ele>204.0</ele><time>2026-04-18T13:03:48.842Z</time></trkpt><trkpt lat="37.0082343" lon="15.1143934"><ele>204.0</ele><time>2026-04-18T13:03:49.842Z</time></trkpt><trkpt lat="37.00834" lon="15.1144517"><ele>204.0</ele><time>2026-04-18T13:03:51.842Z</time></trkpt><trkpt lat="37.0083866" lon="15.114527"><ele>204.0</ele><time>2026-04-18T13:03:52.841Z</time></trkpt><trkpt lat="37.0084266" lon="15.1146452"><ele>204.0</ele><time>2026-04-18T13:03:53.842Z</time></trkpt><trkpt lat="37.0084921" lon="15.1148019"><ele>206.2</ele><time>2026-04-18T13:03:54.843Z</time></trkpt><trkpt lat="37.0085435" lon="15.1149231"><ele>208.39999999999998</ele><time>2026-04-18T13:03:55.842Z</time></trkpt><trkpt lat="37.0085941" lon="15.1150289"><ele>210.6</ele><time>2026-04-18T13:03:56.842Z</time></trkpt><trkpt lat="37.0086194" lon="15.1151025"><ele>212.8</ele><time>2026-04-18T13:03:57.842Z</time></trkpt><trkpt lat="37.008678" lon="15.1152046"><ele>215.0</ele><time>2026-04-18T13:03:59.842Z</time></trkpt><trkpt lat="37.0087528" lon="15.115244"><ele>215.00000000000003</ele><time>2026-04-18T13:04:01.841Z</time></trkpt><trkpt lat="37.0088289" lon="15.1151738"><ele>215.0</ele><time>2026-04-18T13:04:03.843Z</time></trkpt><trkpt lat="37.008868" lon="15.1150379"><ele>215.0</ele><time>2026-04-18T13:04:05.842Z</time></trkpt><trkpt lat="37.008859" lon="15.114951"><ele>215.0</ele><time>2026-04-18T13:04:06.842Z</time></trkpt><trkpt lat="37.0088575" lon="15.1148535"><ele>215.00000000000003</ele><time>2026-04-18T13:04:07.842Z</time></trkpt><trkpt lat="37.0088653" lon="15.1147404"><ele>215.0</ele><time>2026-04-18T13:04:08.842Z</time></trkpt><trkpt lat="37.0088643" lon="15.1146261"><ele>216.00000000000003</ele><time>2026-04-18T13:04:09.841Z</time></trkpt><trkpt lat="37.0088642" lon="15.114511"><ele>217.0</ele><time>2026-04-18T13:04:10.841Z</time></trkpt><trkpt lat="37.0088943" lon="15.1144149"><ele>218.0</ele><time>2026-04-18T13:04:11.842Z</time></trkpt><trkpt lat="37.0089159" lon="15.1143395"><ele>219.0</ele><time>2026-04-18T13:04:12.843Z</time></trkpt><trkpt lat="37.0089753" lon="15.1143023"><ele>220.00000000000003</ele><time>2026-04-18T13:04:13.843Z</time></trkpt><trkpt lat="37.009041" lon="15.1142568"><ele>221.0</ele><time>2026-04-18T13:04:14.843Z</time></trkpt><trkpt lat="37.0091152" lon="15.1142187"><ele>223.20000000000002</ele><time>2026-04-18T13:04:15.841Z</time></trkpt><trkpt lat="37.0092234" lon="15.1142344"><ele>225.40000000000003</ele><time>2026-04-18T13:04:16.842Z</time></trkpt><trkpt lat="37.009319" lon="15.1142324"><ele>227.6</ele><time>2026-04-18T13:04:17.842Z</time></trkpt><trkpt lat="37.0094183" lon="15.1142409"><ele>229.8</ele><time>2026-04-18T13:04:18.842Z</time></trkpt><trkpt lat="37.0095279" lon="15.1142391"><ele>232.0</ele><time>2026-04-18T13:04:19.842Z</time></trkpt><trkpt lat="37.0096225" lon="15.1142194"><ele>232.0</ele><time>2026-04-18T13:04:20.842Z</time></trkpt><trkpt lat="37.0097127" lon="15.1141946"><ele>232.0</ele><time>2026-04-18T13:04:21.842Z</time></trkpt><trkpt lat="37.0098137" lon="15.114142"><ele>232.0</ele><time>2026-04-18T13:04:22.842Z</time></trkpt><trkpt lat="37.0099396" lon="15.1141017"><ele>232.0</ele><time>2026-04-18T13:04:23.843Z</time></trkpt><trkpt lat="37.0100752" lon="15.1140587"><ele>233.5</ele><time>2026-04-18T13:04:24.843Z</time></trkpt><trkpt lat="37.0101961" lon="15.114007"><ele>235.0</ele><time>2026-04-18T13:04:25.842Z</time></trkpt><trkpt lat="37.0103238" lon="15.1139503"><ele>236.5</ele><time>2026-04-18T13:04:26.841Z</time></trkpt><trkpt lat="37.0104567" lon="15.1138933"><ele>238.0</ele><time>2026-04-18T13:04:27.843Z</time></trkpt><trkpt lat="37.0105936" lon="15.1138401"><ele>238.0</ele><time>2026-04-18T13:04:28.841Z</time></trkpt><trkpt lat="37.0107436" lon="15.1137834"><ele>238.0</ele><time>2026-04-18T13:04:29.842Z</time></trkpt><trkpt lat="37.0108935" lon="15.1137207"><ele>238.0</ele><time>2026-04-18T13:04:30.842Z</time></trkpt><trkpt lat="37.0110453" lon="15.1136644"><ele>238.33333333333331</ele><time>2026-04-18T13:04:31.841Z</time></trkpt><trkpt lat="37.0111948" lon="15.1136232"><ele>238.66666666666669</ele><time>2026-04-18T13:04:32.843Z</time></trkpt><trkpt lat="37.0113347" lon="15.1135633"><ele>239.0</ele><time>2026-04-18T13:04:33.842Z</time></trkpt><trkpt lat="37.0114832" lon="15.1134905"><ele>239.0</ele><time>2026-04-18T13:04:34.842Z</time></trkpt><trkpt lat="37.0116473" lon="15.1134215"><ele>239.0</ele><time>2026-04-18T13:04:35.843Z</time></trkpt><trkpt lat="37.0118251" lon="15.113355"><ele>239.0</ele><time>2026-04-18T13:04:36.842Z</time></trkpt><trkpt lat="37.0119991" lon="15.1132909"><ele>238.66666666666669</ele><time>2026-04-18T13:04:37.842Z</time></trkpt><trkpt lat="37.0121581" lon="15.1132242"><ele>238.33333333333331</ele><time>2026-04-18T13:04:38.841Z</time></trkpt><trkpt lat="37.0123208" lon="15.113155"><ele>238.0</ele><time>2026-04-18T13:04:39.841Z</time></trkpt><trkpt lat="37.0124834" lon="15.1130897"><ele>239.0</ele><time>2026-04-18T13:04:40.842Z</time></trkpt><trkpt lat="37.0126405" lon="15.1130255"><ele>240.0</ele><time>2026-04-18T13:04:41.844Z</time></trkpt><trkpt lat="37.0127928" lon="15.112967"><ele>241.0</ele><time>2026-04-18T13:04:42.843Z</time></trkpt><trkpt lat="37.0129339" lon="15.1129139"><ele>241.0</ele><time>2026-04-18T13:04:43.841Z</time></trkpt><trkpt lat="37.0130699" lon="15.1128619"><ele>241.0</ele><time>2026-04-18T13:04:44.841Z</time></trkpt><trkpt lat="37.0132055" lon="15.1128142"><ele>241.0</ele><time>2026-04-18T13:04:45.842Z</time></trkpt><trkpt lat="37.0133499" lon="15.11276"><ele>241.0</ele><time>2026-04-18T13:04:46.841Z</time></trkpt><trkpt lat="37.0134948" lon="15.1127107"><ele>241.75</ele><time>2026-04-18T13:04:47.841Z</time></trkpt><trkpt lat="37.0136298" lon="15.1126429"><ele>242.5</ele><time>2026-04-18T13:04:48.841Z</time></trkpt><trkpt lat="37.0137523" lon="15.1125834"><ele>243.25</ele><time>2026-04-18T13:04:49.841Z</time></trkpt><trkpt lat="37.0138632" lon="15.112542"><ele>244.0</ele><time>2026-04-18T13:04:50.842Z</time></trkpt><trkpt lat="37.0139583" lon="15.1124754"><ele>244.0</ele><time>2026-04-18T13:04:51.841Z</time></trkpt><trkpt lat="37.0140464" lon="15.1124305"><ele>243.99999999999997</ele><time>2026-04-18T13:04:52.842Z</time></trkpt><trkpt lat="37.0141485" lon="15.1123957"><ele>243.99999999999997</ele><time>2026-04-18T13:04:53.842Z</time></trkpt><trkpt lat="37.0142282" lon="15.1123806"><ele>244.0</ele><time>2026-04-18T13:04:54.841Z</time></trkpt><trkpt lat="37.0143199" lon="15.1123963"><ele>244.0</ele><time>2026-04-18T13:04:55.843Z</time></trkpt><trkpt lat="37.0144155" lon="15.1124163"><ele>244.5</ele><time>2026-04-18T13:04:56.843Z</time></trkpt><trkpt lat="37.0145157" lon="15.1124218"><ele>245.0</ele><time>2026-04-18T13:04:57.842Z</time></trkpt><trkpt lat="37.0146239" lon="15.112383"><ele>245.5</ele><time>2026-04-18T13:04:58.842Z</time></trkpt><trkpt lat="37.0147335" lon="15.1123337"><ele>246.0</ele><time>2026-04-18T13:04:59.842Z</time></trkpt><trkpt lat="37.0148521" lon="15.1122846"><ele>246.0</ele><time>2026-04-18T13:05:00.842Z</time></trkpt><trkpt lat="37.0149507" lon="15.1122238"><ele>246.0</ele><time>2026-04-18T13:05:01.841Z</time></trkpt><trkpt lat="37.0150547" lon="15.1121739"><ele>246.0</ele><time>2026-04-18T13:05:02.841Z</time></trkpt><trkpt lat="37.0151564" lon="15.1121098"><ele>246.0</ele><time>2026-04-18T13:05:03.841Z</time></trkpt><trkpt lat="37.0152616" lon="15.1120447"><ele>246.5</ele><time>2026-04-18T13:05:04.842Z</time></trkpt><trkpt lat="37.0153774" lon="15.1119825"><ele>247.0</ele><time>2026-04-18T13:05:05.842Z</time></trkpt><trkpt lat="37.0154855" lon="15.1119186"><ele>247.5</ele><time>2026-04-18T13:05:06.843Z</time></trkpt><trkpt lat="37.0155936" lon="15.1118543"><ele>248.0</ele><time>2026-04-18T13:05:07.843Z</time></trkpt><trkpt lat="37.0157006" lon="15.1117983"><ele>248.0</ele><time>2026-04-18T13:05:08.841Z</time></trkpt><trkpt lat="37.0157998" lon="15.1117349"><ele>248.0</ele><time>2026-04-18T13:05:09.841Z</time></trkpt><trkpt lat="37.0159148" lon="15.1116507"><ele>248.0</ele><time>2026-04-18T13:05:10.842Z</time></trkpt><trkpt lat="37.0160224" lon="15.1115488"><ele>248.0</ele><time>2026-04-18T13:05:11.843Z</time></trkpt><trkpt lat="37.01613" lon="15.1114561"><ele>248.5</ele><time>2026-04-18T13:05:12.842Z</time></trkpt><trkpt lat="37.016243" lon="15.1113623"><ele>249.0</ele><time>2026-04-18T13:05:13.841Z</time></trkpt><trkpt lat="37.016354" lon="15.1112767"><ele>249.5</ele><time>2026-04-18T13:05:14.841Z</time></trkpt><trkpt lat="37.0164704" lon="15.1111851"><ele>250.0</ele><time>2026-04-18T13:05:15.842Z</time></trkpt><trkpt lat="37.016585" lon="15.1110859"><ele>249.75</ele><time>2026-04-18T13:05:16.842Z</time></trkpt><trkpt lat="37.0167105" lon="15.1109838"><ele>249.5</ele><time>2026-04-18T13:05:17.841Z</time></trkpt><trkpt lat="37.0168336" lon="15.1108821"><ele>249.25</ele><time>2026-04-18T13:05:18.842Z</time></trkpt><trkpt lat="37.0169535" lon="15.1107802"><ele>249.0</ele><time>2026-04-18T13:05:19.842Z</time></trkpt><trkpt lat="37.0170807" lon="15.1106778"><ele>249.0</ele><time>2026-04-18T13:05:20.842Z</time></trkpt><trkpt lat="37.0172089" lon="15.1105761"><ele>249.0</ele><time>2026-04-18T13:05:21.842Z</time></trkpt><trkpt lat="37.0173446" lon="15.1104764"><ele>249.0</ele><time>2026-04-18T13:05:22.841Z</time></trkpt><trkpt lat="37.0174768" lon="15.1103696"><ele>248.33333333333331</ele><time>2026-04-18T13:05:23.841Z</time></trkpt><trkpt lat="37.0176076" lon="15.1102677"><ele>247.66666666666666</ele><time>2026-04-18T13:05:24.842Z</time></trkpt><trkpt lat="37.0177318" lon="15.1101634"><ele>247.0</ele><time>2026-04-18T13:05:25.842Z</time></trkpt><trkpt lat="37.0178591" lon="15.1100566"><ele>247.0</ele><time>2026-04-18T13:05:26.842Z</time></trkpt><trkpt lat="37.0179819" lon="15.1099523"><ele>247.0</ele><time>2026-04-18T13:05:27.842Z</time></trkpt><trkpt lat="37.0181023" lon="15.109855"><ele>247.0</ele><time>2026-04-18T13:05:28.841Z</time></trkpt><trkpt lat="37.01822" lon="15.1097583"><ele>247.0</ele><time>2026-04-18T13:05:29.841Z</time></trkpt><trkpt lat="37.0183401" lon="15.1096643"><ele>247.75</ele><time>2026-04-18T13:05:30.842Z</time></trkpt><trkpt lat="37.0184581" lon="15.1095717"><ele>248.5</ele><time>2026-04-18T13:05:31.841Z</time></trkpt><trkpt lat="37.018565" lon="15.1094755"><ele>249.25</ele><time>2026-04-18T13:05:32.842Z</time></trkpt><trkpt lat="37.0186608" lon="15.1093842"><ele>250.0</ele><time>2026-04-18T13:05:33.842Z</time></trkpt><trkpt lat="37.0187574" lon="15.1093091"><ele>250.0</ele><time>2026-04-18T13:05:34.841Z</time></trkpt><trkpt lat="37.0188595" lon="15.1092452"><ele>250.0</ele><time>2026-04-18T13:05:35.842Z</time></trkpt><trkpt lat="37.0189693" lon="15.1091679"><ele>250.0</ele><time>2026-04-18T13:05:36.842Z</time></trkpt><trkpt lat="37.0190559" lon="15.1090949"><ele>250.0</ele><time>2026-04-18T13:05:37.842Z</time></trkpt><trkpt lat="37.0191303" lon="15.1090354"><ele>250.0</ele><time>2026-04-18T13:05:38.842Z</time></trkpt><trkpt lat="37.0191877" lon="15.1089888"><ele>249.49999999999997</ele><time>2026-04-18T13:05:39.842Z</time></trkpt><trkpt lat="37.0192694" lon="15.108926"><ele>249.0</ele><time>2026-04-18T13:05:41.841Z</time></trkpt><trkpt lat="37.0193316" lon="15.1088705"><ele>248.5</ele><time>2026-04-18T13:05:43.841Z</time></trkpt><trkpt lat="37.0194059" lon="15.1087956"><ele>248.0</ele><time>2026-04-18T13:05:45.842Z</time></trkpt><trkpt lat="37.0194652" lon="15.1087533"><ele>247.49999999999997</ele><time>2026-04-18T13:05:46.842Z</time></trkpt><trkpt lat="37.0195307" lon="15.1087045"><ele>247.0</ele><time>2026-04-18T13:05:47.842Z</time></trkpt><trkpt lat="37.019603" lon="15.1086468"><ele>247.0</ele><time>2026-04-18T13:05:48.842Z</time></trkpt><trkpt lat="37.0196817" lon="15.1085796"><ele>247.0</ele><time>2026-04-18T13:05:49.842Z</time></trkpt><trkpt lat="37.0197606" lon="15.1085046"><ele>247.0</ele><time>2026-04-18T13:05:50.842Z</time></trkpt><trkpt lat="37.0198388" lon="15.1084152"><ele>247.0</ele><time>2026-04-18T13:05:51.841Z</time></trkpt><trkpt lat="37.0199136" lon="15.108318"><ele>247.0</ele><time>2026-04-18T13:05:52.841Z</time></trkpt><trkpt lat="37.019989" lon="15.1082218"><ele>247.6</ele><time>2026-04-18T13:05:53.842Z</time></trkpt><trkpt lat="37.0200706" lon="15.1081217"><ele>248.2</ele><time>2026-04-18T13:05:54.842Z</time></trkpt><trkpt lat="37.0201424" lon="15.1080201"><ele>248.8</ele><time>2026-04-18T13:05:55.842Z</time></trkpt><trkpt lat="37.0202078" lon="15.1079165"><ele>249.4</ele><time>2026-04-18T13:05:56.841Z</time></trkpt><trkpt lat="37.0202722" lon="15.1078178"><ele>250.0</ele><time>2026-04-18T13:05:57.842Z</time></trkpt><trkpt lat="37.0203366" lon="15.1077241"><ele>250.0</ele><time>2026-04-18T13:05:58.843Z</time></trkpt><trkpt lat="37.0203982" lon="15.1076338"><ele>250.0</ele><time>2026-04-18T13:05:59.843Z</time></trkpt><trkpt lat="37.0204648" lon="15.1075443"><ele>250.0</ele><time>2026-04-18T13:06:00.842Z</time></trkpt><trkpt lat="37.0205247" lon="15.1074551"><ele>250.0</ele><time>2026-04-18T13:06:01.841Z</time></trkpt><trkpt lat="37.0205874" lon="15.1073696"><ele>250.0</ele><time>2026-04-18T13:06:02.841Z</time></trkpt><trkpt lat="37.020671" lon="15.107269"><ele>250.66666666666666</ele><time>2026-04-18T13:06:03.843Z</time></trkpt><trkpt lat="37.0207608" lon="15.1071422"><ele>251.33333333333331</ele><time>2026-04-18T13:06:04.843Z</time></trkpt><trkpt lat="37.0208635" lon="15.1070119"><ele>252.0</ele><time>2026-04-18T13:06:05.842Z</time></trkpt><trkpt lat="37.0209713" lon="15.1068419"><ele>252.0</ele><time>2026-04-18T13:06:06.841Z</time></trkpt><trkpt lat="37.0210884" lon="15.1066662"><ele>252.0</ele><time>2026-04-18T13:06:07.843Z</time></trkpt><trkpt lat="37.0212076" lon="15.1064874"><ele>252.0</ele><time>2026-04-18T13:06:08.842Z</time></trkpt><trkpt lat="37.0213395" lon="15.106304"><ele>253.0</ele><time>2026-04-18T13:06:09.842Z</time></trkpt><trkpt lat="37.021469" lon="15.1061168"><ele>254.0</ele><time>2026-04-18T13:06:10.843Z</time></trkpt><trkpt lat="37.021598" lon="15.1059343"><ele>255.0</ele><time>2026-04-18T13:06:11.842Z</time></trkpt><trkpt lat="37.0217276" lon="15.105751"><ele>256.0</ele><time>2026-04-18T13:06:12.842Z</time></trkpt><trkpt lat="37.0218587" lon="15.1055678"><ele>257.0</ele><time>2026-04-18T13:06:13.842Z</time></trkpt><trkpt lat="37.021992" lon="15.1053803"><ele>258.0</ele><time>2026-04-18T13:06:14.842Z</time></trkpt><trkpt lat="37.0221278" lon="15.1051911"><ele>258.0</ele><time>2026-04-18T13:06:15.842Z</time></trkpt><trkpt lat="37.022264" lon="15.1050044"><ele>258.0</ele><time>2026-04-18T13:06:16.841Z</time></trkpt><trkpt lat="37.0223989" lon="15.1048171"><ele>258.0</ele><time>2026-04-18T13:06:17.842Z</time></trkpt><trkpt lat="37.0225324" lon="15.1046302"><ele>258.6666666666667</ele><time>2026-04-18T13:06:18.841Z</time></trkpt><trkpt lat="37.0226639" lon="15.1044414"><ele>259.33333333333337</ele><time>2026-04-18T13:06:19.841Z</time></trkpt><trkpt lat="37.022796" lon="15.1042515"><ele>260.0</ele><time>2026-04-18T13:06:20.842Z</time></trkpt><trkpt lat="37.0229287" lon="15.1040667"><ele>261.33333333333337</ele><time>2026-04-18T13:06:21.842Z</time></trkpt><trkpt lat="37.0230604" lon="15.1038817"><ele>262.6666666666667</ele><time>2026-04-18T13:06:22.842Z</time></trkpt><trkpt lat="37.0231967" lon="15.1036984"><ele>264.0</ele><time>2026-04-18T13:06:23.842Z</time></trkpt><trkpt lat="37.0233342" lon="15.1035099"><ele>264.0</ele><time>2026-04-18T13:06:24.842Z</time></trkpt><trkpt lat="37.0234655" lon="15.1033267"><ele>264.0</ele><time>2026-04-18T13:06:25.841Z</time></trkpt><trkpt lat="37.0235975" lon="15.1031421"><ele>264.0</ele><time>2026-04-18T13:06:26.841Z</time></trkpt><trkpt lat="37.023729" lon="15.1029622"><ele>266.6666666666667</ele><time>2026-04-18T13:06:27.841Z</time></trkpt><trkpt lat="37.0238597" lon="15.1027793"><ele>269.33333333333337</ele><time>2026-04-18T13:06:28.842Z</time></trkpt><trkpt lat="37.0239884" lon="15.1026017"><ele>272.0</ele><time>2026-04-18T13:06:29.842Z</time></trkpt><trkpt lat="37.0241146" lon="15.1024247"><ele>273.6666666666667</ele><time>2026-04-18T13:06:30.842Z</time></trkpt><trkpt lat="37.0242415" lon="15.1022456"><ele>275.3333333333333</ele><time>2026-04-18T13:06:31.841Z</time></trkpt><trkpt lat="37.0243627" lon="15.1020663"><ele>277.0</ele><time>2026-04-18T13:06:32.842Z</time></trkpt><trkpt lat="37.0244866" lon="15.1018866"><ele>277.0</ele><time>2026-04-18T13:06:33.842Z</time></trkpt><trkpt lat="37.0246056" lon="15.101706"><ele>277.0</ele><time>2026-04-18T13:06:34.842Z</time></trkpt><trkpt lat="37.0247236" lon="15.1015221"><ele>277.0</ele><time>2026-04-18T13:06:35.841Z</time></trkpt><trkpt lat="37.0248351" lon="15.1013386"><ele>277.3333333333333</ele><time>2026-04-18T13:06:36.842Z</time></trkpt><trkpt lat="37.0249422" lon="15.1011446"><ele>277.6666666666667</ele><time>2026-04-18T13:06:37.842Z</time></trkpt><trkpt lat="37.0250434" lon="15.1009242"><ele>278.0</ele><time>2026-04-18T13:06:38.842Z</time></trkpt><trkpt lat="37.0251399" lon="15.100695"><ele>279.33333333333337</ele><time>2026-04-18T13:06:39.842Z</time></trkpt><trkpt lat="37.0252265" lon="15.1004737"><ele>280.6666666666667</ele><time>2026-04-18T13:06:40.841Z</time></trkpt><trkpt lat="37.0253069" lon="15.1002481"><ele>282.0</ele><time>2026-04-18T13:06:41.841Z</time></trkpt><trkpt lat="37.0253807" lon="15.1000175"><ele>281.6666666666667</ele><time>2026-04-18T13:06:42.842Z</time></trkpt><trkpt lat="37.0254497" lon="15.0997811"><ele>281.33333333333337</ele><time>2026-04-18T13:06:43.84Z</time></trkpt><trkpt lat="37.0255142" lon="15.0995408"><ele>281.0</ele><time>2026-04-18T13:06:44.841Z</time></trkpt><trkpt lat="37.025568" lon="15.0992946"><ele>282.33333333333337</ele><time>2026-04-18T13:06:45.842Z</time></trkpt><trkpt lat="37.0256053" lon="15.0990458"><ele>283.6666666666667</ele><time>2026-04-18T13:06:46.841Z</time></trkpt><trkpt lat="37.0256431" lon="15.0987982"><ele>285.0</ele><time>2026-04-18T13:06:47.842Z</time></trkpt><trkpt lat="37.0256733" lon="15.0985466"><ele>285.0</ele><time>2026-04-18T13:06:48.841Z</time></trkpt><trkpt lat="37.0257075" lon="15.0982924"><ele>285.0</ele><time>2026-04-18T13:06:49.842Z</time></trkpt><trkpt lat="37.0257409" lon="15.0980452"><ele>285.0</ele><time>2026-04-18T13:06:50.842Z</time></trkpt><trkpt lat="37.0257694" lon="15.0978015"><ele>284.3333333333333</ele><time>2026-04-18T13:06:51.84Z</time></trkpt><trkpt lat="37.025797" lon="15.0975569"><ele>283.66666666666663</ele><time>2026-04-18T13:06:52.841Z</time></trkpt><trkpt lat="37.0258215" lon="15.097317"><ele>283.0</ele><time>2026-04-18T13:06:53.842Z</time></trkpt><trkpt lat="37.0258528" lon="15.0970744"><ele>283.0</ele><time>2026-04-18T13:06:54.842Z</time></trkpt><trkpt lat="37.0258859" lon="15.0968233"><ele>283.0</ele><time>2026-04-18T13:06:55.842Z</time></trkpt><trkpt lat="37.0259202" lon="15.0965768"><ele>283.0</ele><time>2026-04-18T13:06:56.842Z</time></trkpt><trkpt lat="37.0259495" lon="15.0963298"><ele>283.0</ele><time>2026-04-18T13:06:57.842Z</time></trkpt><trkpt lat="37.0259679" lon="15.0960802"><ele>283.0</ele><time>2026-04-18T13:06:58.842Z</time></trkpt><trkpt lat="37.0259832" lon="15.0958311"><ele>283.0</ele><time>2026-04-18T13:06:59.84Z</time></trkpt><trkpt lat="37.0259871" lon="15.0955851"><ele>283.3333333333333</ele><time>2026-04-18T13:07:00.841Z</time></trkpt><trkpt lat="37.0259822" lon="15.0953349"><ele>283.6666666666667</ele><time>2026-04-18T13:07:01.841Z</time></trkpt><trkpt lat="37.0259697" lon="15.0950899"><ele>284.0</ele><time>2026-04-18T13:07:02.841Z</time></trkpt><trkpt lat="37.0259451" lon="15.0948521"><ele>284.6666666666667</ele><time>2026-04-18T13:07:03.841Z</time></trkpt><trkpt lat="37.0259126" lon="15.0946107"><ele>285.3333333333333</ele><time>2026-04-18T13:07:04.841Z</time></trkpt><trkpt lat="37.0258791" lon="15.0943711"><ele>286.0</ele><time>2026-04-18T13:07:05.843Z</time></trkpt><trkpt lat="37.0258479" lon="15.0941359"><ele>284.3333333333333</ele><time>2026-04-18T13:07:06.84Z</time></trkpt><trkpt lat="37.0258186" lon="15.0938991"><ele>282.6666666666667</ele><time>2026-04-18T13:07:07.842Z</time></trkpt><trkpt lat="37.0257869" lon="15.0936496"><ele>281.0</ele><time>2026-04-18T13:07:08.84Z</time></trkpt><trkpt lat="37.0257562" lon="15.0934089"><ele>287.6666666666667</ele><time>2026-04-18T13:07:09.841Z</time></trkpt><trkpt lat="37.0257239" lon="15.0931735"><ele>294.3333333333333</ele><time>2026-04-18T13:07:10.841Z</time></trkpt><trkpt lat="37.0256986" lon="15.0929304"><ele>301.0</ele><time>2026-04-18T13:07:11.841Z</time></trkpt><trkpt lat="37.0256753" lon="15.0926937"><ele>301.0</ele><time>2026-04-18T13:07:12.842Z</time></trkpt><trkpt lat="37.0256663" lon="15.0924523"><ele>301.0</ele><time>2026-04-18T13:07:13.842Z</time></trkpt><trkpt lat="37.025663" lon="15.0922109"><ele>301.0</ele><time>2026-04-18T13:07:14.843Z</time></trkpt><trkpt lat="37.025667" lon="15.0919729"><ele>302.3333333333333</ele><time>2026-04-18T13:07:15.841Z</time></trkpt><trkpt lat="37.0256781" lon="15.0917297"><ele>303.6666666666667</ele><time>2026-04-18T13:07:16.842Z</time></trkpt><trkpt lat="37.0256818" lon="15.0914919"><ele>305.0</ele><time>2026-04-18T13:07:17.842Z</time></trkpt><trkpt lat="37.0256864" lon="15.0912535"><ele>307.33333333333337</ele><time>2026-04-18T13:07:18.841Z</time></trkpt><trkpt lat="37.0256906" lon="15.0910103"><ele>309.6666666666667</ele><time>2026-04-18T13:07:19.842Z</time></trkpt><trkpt lat="37.0256976" lon="15.0907639"><ele>312.0</ele><time>2026-04-18T13:07:20.842Z</time></trkpt><trkpt lat="37.0257006" lon="15.0905284"><ele>313.3333333333333</ele><time>2026-04-18T13:07:21.843Z</time></trkpt><trkpt lat="37.0257166" lon="15.0902834"><ele>314.66666666666663</ele><time>2026-04-18T13:07:22.84Z</time></trkpt><trkpt lat="37.0257346" lon="15.0900381"><ele>316.0</ele><time>2026-04-18T13:07:23.841Z</time></trkpt><trkpt lat="37.0257425" lon="15.0897977"><ele>316.0</ele><time>2026-04-18T13:07:24.841Z</time></trkpt><trkpt lat="37.0257525" lon="15.0895447"><ele>316.0</ele><time>2026-04-18T13:07:25.841Z</time></trkpt><trkpt lat="37.0257582" lon="15.0892875"><ele>316.0</ele><time>2026-04-18T13:07:26.841Z</time></trkpt><trkpt lat="37.0257644" lon="15.0890353"><ele>316.3333333333333</ele><time>2026-04-18T13:07:27.842Z</time></trkpt><trkpt lat="37.0257796" lon="15.0887819"><ele>316.6666666666667</ele><time>2026-04-18T13:07:28.841Z</time></trkpt><trkpt lat="37.0257962" lon="15.0885323"><ele>317.0</ele><time>2026-04-18T13:07:29.842Z</time></trkpt><trkpt lat="37.025816" lon="15.0882852"><ele>313.0</ele><time>2026-04-18T13:07:30.84Z</time></trkpt><trkpt lat="37.0258364" lon="15.08805"><ele>309.0</ele><time>2026-04-18T13:07:31.842Z</time></trkpt><trkpt lat="37.0258637" lon="15.087811"><ele>305.0</ele><time>2026-04-18T13:07:32.842Z</time></trkpt><trkpt lat="37.0258909" lon="15.0875826"><ele>306.33333333333337</ele><time>2026-04-18T13:07:33.84Z</time></trkpt><trkpt lat="37.0259187" lon="15.0873569"><ele>307.6666666666667</ele><time>2026-04-18T13:07:34.841Z</time></trkpt><trkpt lat="37.0259445" lon="15.087127"><ele>309.0</ele><time>2026-04-18T13:07:35.841Z</time></trkpt><trkpt lat="37.0259667" lon="15.0868985"><ele>309.0</ele><time>2026-04-18T13:07:36.841Z</time></trkpt><trkpt lat="37.0259755" lon="15.0866611"><ele>309.0</ele><time>2026-04-18T13:07:37.842Z</time></trkpt><trkpt lat="37.0259644" lon="15.0864172"><ele>309.0</ele><time>2026-04-18T13:07:38.841Z</time></trkpt><trkpt lat="37.0259409" lon="15.0861758"><ele>309.0</ele><time>2026-04-18T13:07:39.843Z</time></trkpt><trkpt lat="37.0259087" lon="15.0859379"><ele>309.0</ele><time>2026-04-18T13:07:40.841Z</time></trkpt><trkpt lat="37.0258726" lon="15.0857023"><ele>309.0</ele><time>2026-04-18T13:07:41.841Z</time></trkpt><trkpt lat="37.0258387" lon="15.0854474"><ele>315.6666666666667</ele><time>2026-04-18T13:07:42.842Z</time></trkpt><trkpt lat="37.0258098" lon="15.0851888"><ele>322.33333333333337</ele><time>2026-04-18T13:07:43.842Z</time></trkpt><trkpt lat="37.025787" lon="15.0849396"><ele>329.0</ele><time>2026-04-18T13:07:44.841Z</time></trkpt><trkpt lat="37.0257678" lon="15.0846968"><ele>329.0</ele><time>2026-04-18T13:07:45.841Z</time></trkpt><trkpt lat="37.0257518" lon="15.0844467"><ele>329.0</ele><time>2026-04-18T13:07:46.842Z</time></trkpt><trkpt lat="37.0257387" lon="15.0841972"><ele>329.0</ele><time>2026-04-18T13:07:47.841Z</time></trkpt><trkpt lat="37.0257456" lon="15.0839463"><ele>329.0</ele><time>2026-04-18T13:07:48.842Z</time></trkpt><trkpt lat="37.0257515" lon="15.0837022"><ele>329.0</ele><time>2026-04-18T13:07:49.841Z</time></trkpt><trkpt lat="37.0257614" lon="15.0834529"><ele>329.0</ele><time>2026-04-18T13:07:50.842Z</time></trkpt><trkpt lat="37.0257681" lon="15.0832079"><ele>327.6666666666667</ele><time>2026-04-18T13:07:51.842Z</time></trkpt><trkpt lat="37.0257796" lon="15.0829612"><ele>326.3333333333333</ele><time>2026-04-18T13:07:52.842Z</time></trkpt><trkpt lat="37.0257966" lon="15.082702"><ele>325.0</ele><time>2026-04-18T13:07:53.841Z</time></trkpt><trkpt lat="37.0258045" lon="15.0824535"><ele>322.3333333333333</ele><time>2026-04-18T13:07:54.842Z</time></trkpt><trkpt lat="37.0258128" lon="15.0822066"><ele>319.6666666666667</ele><time>2026-04-18T13:07:55.842Z</time></trkpt><trkpt lat="37.0258232" lon="15.0819588"><ele>317.0</ele><time>2026-04-18T13:07:56.841Z</time></trkpt><trkpt lat="37.0258309" lon="15.0817144"><ele>317.0</ele><time>2026-04-18T13:07:57.841Z</time></trkpt><trkpt lat="37.0258379" lon="15.0814655"><ele>317.0</ele><time>2026-04-18T13:07:58.841Z</time></trkpt><trkpt lat="37.025844" lon="15.0812091"><ele>317.0</ele><time>2026-04-18T13:07:59.841Z</time></trkpt><trkpt lat="37.0258507" lon="15.0809599"><ele>317.6666666666667</ele><time>2026-04-18T13:08:00.84Z</time></trkpt><trkpt lat="37.0258613" lon="15.0807136"><ele>318.3333333333333</ele><time>2026-04-18T13:08:01.842Z</time></trkpt><trkpt lat="37.0258605" lon="15.080469"><ele>319.0</ele><time>2026-04-18T13:08:02.841Z</time></trkpt><trkpt lat="37.025866" lon="15.0802232"><ele>319.0</ele><time>2026-04-18T13:08:03.841Z</time></trkpt><trkpt lat="37.0258716" lon="15.0799801"><ele>319.0</ele><time>2026-04-18T13:08:04.841Z</time></trkpt><trkpt lat="37.0258795" lon="15.0797401"><ele>319.0</ele><time>2026-04-18T13:08:05.842Z</time></trkpt><trkpt lat="37.0258826" lon="15.0794988"><ele>320.3333333333333</ele><time>2026-04-18T13:08:06.842Z</time></trkpt><trkpt lat="37.0258954" lon="15.0792443"><ele>321.6666666666667</ele><time>2026-04-18T13:08:07.842Z</time></trkpt><trkpt lat="37.0259062" lon="15.0790148"><ele>323.0</ele><time>2026-04-18T13:08:08.842Z</time></trkpt><trkpt lat="37.0259131" lon="15.0787861"><ele>324.6666666666667</ele><time>2026-04-18T13:08:09.841Z</time></trkpt><trkpt lat="37.0259243" lon="15.0785383"><ele>326.3333333333333</ele><time>2026-04-18T13:08:10.841Z</time></trkpt><trkpt lat="37.0259314" lon="15.0782958"><ele>328.0</ele><time>2026-04-18T13:08:11.841Z</time></trkpt><trkpt lat="37.0259333" lon="15.0780601"><ele>329.0</ele><time>2026-04-18T13:08:12.842Z</time></trkpt><trkpt lat="37.0259449" lon="15.0778187"><ele>330.0</ele><time>2026-04-18T13:08:13.84Z</time></trkpt><trkpt lat="37.025955" lon="15.0775816"><ele>331.0</ele><time>2026-04-18T13:08:14.841Z</time></trkpt><trkpt lat="37.0259678" lon="15.0773441"><ele>332.66666666666663</ele><time>2026-04-18T13:08:15.841Z</time></trkpt><trkpt lat="37.0259758" lon="15.0771105"><ele>334.3333333333333</ele><time>2026-04-18T13:08:16.842Z</time></trkpt><trkpt lat="37.0259848" lon="15.0768907"><ele>336.0</ele><time>2026-04-18T13:08:17.841Z</time></trkpt><trkpt lat="37.0259978" lon="15.0766761"><ele>337.6666666666667</ele><time>2026-04-18T13:08:18.842Z</time></trkpt><trkpt lat="37.0260076" lon="15.0764802"><ele>339.33333333333337</ele><time>2026-04-18T13:08:19.842Z</time></trkpt><trkpt lat="37.0260158" lon="15.076297"><ele>341.0</ele><time>2026-04-18T13:08:20.841Z</time></trkpt><trkpt lat="37.0260214" lon="15.0761128"><ele>341.0</ele><time>2026-04-18T13:08:21.842Z</time></trkpt><trkpt lat="37.0260217" lon="15.0759387"><ele>341.0</ele><time>2026-04-18T13:08:22.842Z</time></trkpt><trkpt lat="37.0260321" lon="15.075792"><ele>341.0</ele><time>2026-04-18T13:08:23.84Z</time></trkpt><trkpt lat="37.0260504" lon="15.0756619"><ele>341.0</ele><time>2026-04-18T13:08:24.841Z</time></trkpt><trkpt lat="37.0260705" lon="15.0755276"><ele>342.2857142857143</ele><time>2026-04-18T13:08:25.841Z</time></trkpt><trkpt lat="37.0260961" lon="15.0754225"><ele>343.57142857142856</ele><time>2026-04-18T13:08:26.841Z</time></trkpt><trkpt lat="37.0261296" lon="15.0753326"><ele>344.8571428571429</ele><time>2026-04-18T13:08:27.841Z</time></trkpt><trkpt lat="37.0261738" lon="15.0752649"><ele>346.1428571428571</ele><time>2026-04-18T13:08:28.84Z</time></trkpt><trkpt lat="37.0262105" lon="15.0751897"><ele>347.42857142857144</ele><time>2026-04-18T13:08:29.841Z</time></trkpt><trkpt lat="37.0262252" lon="15.0751065"><ele>348.7142857142857</ele><time>2026-04-18T13:08:30.841Z</time></trkpt><trkpt lat="37.0262253" lon="15.0750211"><ele>350.0</ele><time>2026-04-18T13:08:31.84Z</time></trkpt><trkpt lat="37.02618" lon="15.0749184"><ele>351.5</ele><time>2026-04-18T13:08:32.843Z</time></trkpt><trkpt lat="37.0261434" lon="15.0747922"><ele>353.0</ele><time>2026-04-18T13:08:33.84Z</time></trkpt><trkpt lat="37.0261329" lon="15.0746491"><ele>354.5</ele><time>2026-04-18T13:08:34.841Z</time></trkpt><trkpt lat="37.0261418" lon="15.074475"><ele>356.0</ele><time>2026-04-18T13:08:35.841Z</time></trkpt><trkpt lat="37.0261551" lon="15.0742914"><ele>357.6666666666667</ele><time>2026-04-18T13:08:36.84Z</time></trkpt><trkpt lat="37.0261683" lon="15.0740735"><ele>359.3333333333333</ele><time>2026-04-18T13:08:37.841Z</time></trkpt><trkpt lat="37.0261813" lon="15.073863"><ele>361.0</ele><time>2026-04-18T13:08:38.841Z</time></trkpt><trkpt lat="37.0262008" lon="15.073645"><ele>361.0</ele><time>2026-04-18T13:08:39.842Z</time></trkpt><trkpt lat="37.0262242" lon="15.0734277"><ele>361.0</ele><time>2026-04-18T13:08:40.842Z</time></trkpt><trkpt lat="37.0262427" lon="15.07322"><ele>361.0</ele><time>2026-04-18T13:08:41.842Z</time></trkpt><trkpt lat="37.0262723" lon="15.0730188"><ele>361.66666666666663</ele><time>2026-04-18T13:08:42.84Z</time></trkpt><trkpt lat="37.026305" lon="15.0728108"><ele>362.3333333333333</ele><time>2026-04-18T13:08:43.841Z</time></trkpt><trkpt lat="37.0263396" lon="15.0726137"><ele>363.0</ele><time>2026-04-18T13:08:44.841Z</time></trkpt><trkpt lat="37.0263725" lon="15.072415"><ele>363.3333333333333</ele><time>2026-04-18T13:08:45.841Z</time></trkpt><trkpt lat="37.0264102" lon="15.0722104"><ele>363.66666666666663</ele><time>2026-04-18T13:08:46.841Z</time></trkpt><trkpt lat="37.026457" lon="15.072006"><ele>364.0</ele><time>2026-04-18T13:08:47.842Z</time></trkpt><trkpt lat="37.0265035" lon="15.071799"><ele>363.66666666666663</ele><time>2026-04-18T13:08:48.841Z</time></trkpt><trkpt lat="37.0265431" lon="15.0715961"><ele>363.3333333333333</ele><time>2026-04-18T13:08:49.841Z</time></trkpt><trkpt lat="37.0265805" lon="15.0713907"><ele>363.0</ele><time>2026-04-18T13:08:50.841Z</time></trkpt><trkpt lat="37.0266169" lon="15.0711791"><ele>363.0</ele><time>2026-04-18T13:08:51.84Z</time></trkpt><trkpt lat="37.0266648" lon="15.0709766"><ele>363.0</ele><time>2026-04-18T13:08:52.841Z</time></trkpt><trkpt lat="37.0267041" lon="15.0707742"><ele>363.0</ele><time>2026-04-18T13:08:53.84Z</time></trkpt><trkpt lat="37.0267426" lon="15.0705662"><ele>363.6666666666667</ele><time>2026-04-18T13:08:54.84Z</time></trkpt><trkpt lat="37.0267769" lon="15.0703578"><ele>364.33333333333337</ele><time>2026-04-18T13:08:55.842Z</time></trkpt><trkpt lat="37.0268121" lon="15.0701552"><ele>365.0</ele><time>2026-04-18T13:08:56.841Z</time></trkpt><trkpt lat="37.0268564" lon="15.0699432"><ele>365.6666666666667</ele><time>2026-04-18T13:08:57.841Z</time></trkpt><trkpt lat="37.0268988" lon="15.0697285"><ele>366.3333333333333</ele><time>2026-04-18T13:08:58.841Z</time></trkpt><trkpt lat="37.026942" lon="15.0695198"><ele>367.0</ele><time>2026-04-18T13:08:59.84Z</time></trkpt><trkpt lat="37.0269867" lon="15.0693056"><ele>367.3333333333333</ele><time>2026-04-18T13:09:00.84Z</time></trkpt><trkpt lat="37.0270301" lon="15.0690898"><ele>367.6666666666667</ele><time>2026-04-18T13:09:01.842Z</time></trkpt><trkpt lat="37.0270735" lon="15.0688755"><ele>368.0</ele><time>2026-04-18T13:09:02.842Z</time></trkpt><trkpt lat="37.0271175" lon="15.0686582"><ele>368.0</ele><time>2026-04-18T13:09:03.841Z</time></trkpt><trkpt lat="37.0271616" lon="15.0684442"><ele>368.0</ele><time>2026-04-18T13:09:04.843Z</time></trkpt><trkpt lat="37.0272101" lon="15.0682304"><ele>368.0</ele><time>2026-04-18T13:09:05.842Z</time></trkpt><trkpt lat="37.0272592" lon="15.0680161"><ele>367.6666666666667</ele><time>2026-04-18T13:09:06.842Z</time></trkpt><trkpt lat="37.0273178" lon="15.067801"><ele>367.3333333333333</ele><time>2026-04-18T13:09:07.84Z</time></trkpt><trkpt lat="37.0273827" lon="15.0675885"><ele>367.0</ele><time>2026-04-18T13:09:08.841Z</time></trkpt><trkpt lat="37.0274516" lon="15.0673803"><ele>369.0</ele><time>2026-04-18T13:09:09.841Z</time></trkpt><trkpt lat="37.0275311" lon="15.0671752"><ele>371.0</ele><time>2026-04-18T13:09:10.842Z</time></trkpt><trkpt lat="37.0276122" lon="15.0669653"><ele>373.0</ele><time>2026-04-18T13:09:11.842Z</time></trkpt><trkpt lat="37.027688" lon="15.0667606"><ele>373.0</ele><time>2026-04-18T13:09:12.841Z</time></trkpt><trkpt lat="37.0277734" lon="15.0665579"><ele>373.0</ele><time>2026-04-18T13:09:13.841Z</time></trkpt><trkpt lat="37.0278581" lon="15.0663564"><ele>373.0</ele><time>2026-04-18T13:09:14.841Z</time></trkpt><trkpt lat="37.0279439" lon="15.066148"><ele>373.0</ele><time>2026-04-18T13:09:15.841Z</time></trkpt><trkpt lat="37.0280324" lon="15.0659383"><ele>373.0</ele><time>2026-04-18T13:09:16.841Z</time></trkpt><trkpt lat="37.0281179" lon="15.0657328"><ele>373.0</ele><time>2026-04-18T13:09:17.843Z</time></trkpt><trkpt lat="37.028203" lon="15.0655279"><ele>373.3333333333333</ele><time>2026-04-18T13:09:18.841Z</time></trkpt><trkpt lat="37.0282864" lon="15.0653246"><ele>373.6666666666667</ele><time>2026-04-18T13:09:19.84Z</time></trkpt><trkpt lat="37.0283697" lon="15.0651223"><ele>374.0</ele><time>2026-04-18T13:09:20.841Z</time></trkpt><trkpt lat="37.0284533" lon="15.0649272"><ele>375.6666666666667</ele><time>2026-04-18T13:09:21.842Z</time></trkpt><trkpt lat="37.0285421" lon="15.0647407"><ele>377.3333333333333</ele><time>2026-04-18T13:09:22.841Z</time></trkpt><trkpt lat="37.0286411" lon="15.0645747"><ele>379.0</ele><time>2026-04-18T13:09:23.841Z</time></trkpt><trkpt lat="37.0287556" lon="15.0644198"><ele>379.0</ele><time>2026-04-18T13:09:24.842Z</time></trkpt><trkpt lat="37.0288722" lon="15.0642772"><ele>379.0</ele><time>2026-04-18T13:09:25.841Z</time></trkpt><trkpt lat="37.0290021" lon="15.0641828"><ele>379.0</ele><time>2026-04-18T13:09:26.842Z</time></trkpt><trkpt lat="37.02912" lon="15.0640933"><ele>380.0</ele><time>2026-04-18T13:09:27.842Z</time></trkpt><trkpt lat="37.0292194" lon="15.0639965"><ele>381.0</ele><time>2026-04-18T13:09:28.84Z</time></trkpt><trkpt lat="37.0293082" lon="15.063909"><ele>382.0</ele><time>2026-04-18T13:09:29.841Z</time></trkpt><trkpt lat="37.0293943" lon="15.0638337"><ele>383.0</ele><time>2026-04-18T13:09:30.841Z</time></trkpt><trkpt lat="37.0294756" lon="15.063784"><ele>384.0</ele><time>2026-04-18T13:09:31.841Z</time></trkpt><trkpt lat="37.029555" lon="15.0637779"><ele>384.0</ele><time>2026-04-18T13:09:32.841Z</time></trkpt><trkpt lat="37.0296334" lon="15.063822"><ele>384.0</ele><time>2026-04-18T13:09:33.841Z</time></trkpt><trkpt lat="37.0296983" lon="15.0639098"><ele>384.0</ele><time>2026-04-18T13:09:34.841Z</time></trkpt><trkpt lat="37.0297715" lon="15.0640132"><ele>384.0</ele><time>2026-04-18T13:09:35.841Z</time></trkpt><trkpt lat="37.0298401" lon="15.0641109"><ele>384.0</ele><time>2026-04-18T13:09:36.841Z</time></trkpt><trkpt lat="37.0299045" lon="15.0641993"><ele>384.5</ele><time>2026-04-18T13:09:37.84Z</time></trkpt><trkpt lat="37.0299619" lon="15.064248"><ele>385.0</ele><time>2026-04-18T13:09:38.841Z</time></trkpt><trkpt lat="37.0300374" lon="15.0642496"><ele>385.5</ele><time>2026-04-18T13:09:39.84Z</time></trkpt><trkpt lat="37.0300878" lon="15.0641873"><ele>386.0</ele><time>2026-04-18T13:09:40.841Z</time></trkpt><trkpt lat="37.0301438" lon="15.0641085"><ele>386.5</ele><time>2026-04-18T13:09:41.841Z</time></trkpt><trkpt lat="37.0302057" lon="15.0639885"><ele>387.0</ele><time>2026-04-18T13:09:42.841Z</time></trkpt><trkpt lat="37.0302718" lon="15.0638798"><ele>387.75</ele><time>2026-04-18T13:09:43.841Z</time></trkpt><trkpt lat="37.0303543" lon="15.0637631"><ele>388.5</ele><time>2026-04-18T13:09:44.842Z</time></trkpt><trkpt lat="37.0304293" lon="15.0636389"><ele>389.25</ele><time>2026-04-18T13:09:45.841Z</time></trkpt><trkpt lat="37.0305032" lon="15.06351"><ele>390.0</ele><time>2026-04-18T13:09:46.841Z</time></trkpt><trkpt lat="37.0305819" lon="15.0633813"><ele>389.75</ele><time>2026-04-18T13:09:47.842Z</time></trkpt><trkpt lat="37.0306518" lon="15.0632562"><ele>389.5</ele><time>2026-04-18T13:09:48.842Z</time></trkpt><trkpt lat="37.0307285" lon="15.063126"><ele>389.25</ele><time>2026-04-18T13:09:49.841Z</time></trkpt><trkpt lat="37.0308064" lon="15.0629981"><ele>389.0</ele><time>2026-04-18T13:09:50.842Z</time></trkpt><trkpt lat="37.030883" lon="15.062871"><ele>391.75</ele><time>2026-04-18T13:09:51.841Z</time></trkpt><trkpt lat="37.0309558" lon="15.0627463"><ele>394.5</ele><time>2026-04-18T13:09:52.841Z</time></trkpt><trkpt lat="37.0310335" lon="15.0626236"><ele>397.25</ele><time>2026-04-18T13:09:53.841Z</time></trkpt><trkpt lat="37.0311017" lon="15.0625004"><ele>400.0</ele><time>2026-04-18T13:09:54.841Z</time></trkpt><trkpt lat="37.0311746" lon="15.0623767"><ele>400.4</ele><time>2026-04-18T13:09:55.841Z</time></trkpt><trkpt lat="37.031237" lon="15.0622654"><ele>400.8</ele><time>2026-04-18T13:09:56.842Z</time></trkpt><trkpt lat="37.0313052" lon="15.0621513"><ele>401.20000000000005</ele><time>2026-04-18T13:09:57.841Z</time></trkpt><trkpt lat="37.0313719" lon="15.0620378"><ele>401.6</ele><time>2026-04-18T13:09:58.841Z</time></trkpt><trkpt lat="37.0314345" lon="15.06192"><ele>402.0</ele><time>2026-04-18T13:09:59.842Z</time></trkpt><trkpt lat="37.0315031" lon="15.0617889"><ele>402.0</ele><time>2026-04-18T13:10:00.841Z</time></trkpt><trkpt lat="37.0315715" lon="15.061675"><ele>402.0</ele><time>2026-04-18T13:10:01.841Z</time></trkpt><trkpt lat="37.0316419" lon="15.0615541"><ele>402.0</ele><time>2026-04-18T13:10:02.841Z</time></trkpt><trkpt lat="37.0317294" lon="15.0614332"><ele>402.0</ele><time>2026-04-18T13:10:03.842Z</time></trkpt><trkpt lat="37.0318087" lon="15.0613069"><ele>403.0</ele><time>2026-04-18T13:10:04.841Z</time></trkpt><trkpt lat="37.0318863" lon="15.0611997"><ele>404.0</ele><time>2026-04-18T13:10:05.842Z</time></trkpt><trkpt lat="37.0319467" lon="15.061099"><ele>405.0</ele><time>2026-04-18T13:10:06.841Z</time></trkpt><trkpt lat="37.0320228" lon="15.0609761"><ele>406.0</ele><time>2026-04-18T13:10:07.84Z</time></trkpt><trkpt lat="37.0320856" lon="15.0608731"><ele>407.0</ele><time>2026-04-18T13:10:08.842Z</time></trkpt><trkpt lat="37.0321486" lon="15.0607712"><ele>408.16666666666663</ele><time>2026-04-18T13:10:09.842Z</time></trkpt><trkpt lat="37.0321966" lon="15.0606821"><ele>409.3333333333333</ele><time>2026-04-18T13:10:10.84Z</time></trkpt><trkpt lat="37.0322498" lon="15.0605913"><ele>410.5</ele><time>2026-04-18T13:10:11.841Z</time></trkpt><trkpt lat="37.0322999" lon="15.0604867"><ele>411.66666666666663</ele><time>2026-04-18T13:10:12.842Z</time></trkpt><trkpt lat="37.0323522" lon="15.0604109"><ele>412.8333333333333</ele><time>2026-04-18T13:10:13.841Z</time></trkpt><trkpt lat="37.0324085" lon="15.0603348"><ele>414.0</ele><time>2026-04-18T13:10:14.841Z</time></trkpt><trkpt lat="37.0324609" lon="15.060238"><ele>412.5</ele><time>2026-04-18T13:10:15.841Z</time></trkpt><trkpt lat="37.0325652" lon="15.0601353"><ele>411.0</ele><time>2026-04-18T13:10:16.84Z</time></trkpt><trkpt lat="37.0326356" lon="15.0600292"><ele>409.5</ele><time>2026-04-18T13:10:17.84Z</time></trkpt><trkpt lat="37.0327047" lon="15.0598939"><ele>408.0</ele><time>2026-04-18T13:10:18.841Z</time></trkpt><trkpt lat="37.0327712" lon="15.0597615"><ele>408.0</ele><time>2026-04-18T13:10:19.841Z</time></trkpt><trkpt lat="37.0328411" lon="15.0596416"><ele>408.0</ele><time>2026-04-18T13:10:20.841Z</time></trkpt><trkpt lat="37.0329071" lon="15.0595007"><ele>408.0</ele><time>2026-04-18T13:10:21.84Z</time></trkpt><trkpt lat="37.0329712" lon="15.0593816"><ele>408.0</ele><time>2026-04-18T13:10:22.841Z</time></trkpt><trkpt lat="37.0330266" lon="15.0592752"><ele>408.0</ele><time>2026-04-18T13:10:23.841Z</time></trkpt><trkpt lat="37.0330916" lon="15.0591758"><ele>408.0</ele><time>2026-04-18T13:10:24.841Z</time></trkpt><trkpt lat="37.0331434" lon="15.059079"><ele>408.0</ele><time>2026-04-18T13:10:25.841Z</time></trkpt><trkpt lat="37.0331967" lon="15.0589891"><ele>408.0</ele><time>2026-04-18T13:10:26.84Z</time></trkpt><trkpt lat="37.033252" lon="15.0589065"><ele>408.0</ele><time>2026-04-18T13:10:27.841Z</time></trkpt><trkpt lat="37.0332997" lon="15.0588265"><ele>407.2</ele><time>2026-04-18T13:10:28.841Z</time></trkpt><trkpt lat="37.0333518" lon="15.0587453"><ele>406.4</ele><time>2026-04-18T13:10:29.841Z</time></trkpt><trkpt lat="37.0334052" lon="15.0586544"><ele>405.59999999999997</ele><time>2026-04-18T13:10:30.841Z</time></trkpt><trkpt lat="37.0334647" lon="15.0585638"><ele>404.79999999999995</ele><time>2026-04-18T13:10:31.841Z</time></trkpt><trkpt lat="37.0335257" lon="15.0584645"><ele>404.0</ele><time>2026-04-18T13:10:32.841Z</time></trkpt><trkpt lat="37.0335871" lon="15.0583614"><ele>405.79999999999995</ele><time>2026-04-18T13:10:33.841Z</time></trkpt><trkpt lat="37.0336482" lon="15.0582523"><ele>407.59999999999997</ele><time>2026-04-18T13:10:34.841Z</time></trkpt><trkpt lat="37.0337094" lon="15.0581433"><ele>409.4</ele><time>2026-04-18T13:10:35.841Z</time></trkpt><trkpt lat="37.0337736" lon="15.058031"><ele>411.2</ele><time>2026-04-18T13:10:36.842Z</time></trkpt><trkpt lat="37.033837" lon="15.0579197"><ele>413.0</ele><time>2026-04-18T13:10:37.84Z</time></trkpt><trkpt lat="37.0339179" lon="15.0578099"><ele>412.99999999999994</ele><time>2026-04-18T13:10:38.841Z</time></trkpt><trkpt lat="37.0339792" lon="15.0577161"><ele>413.0</ele><time>2026-04-18T13:10:39.841Z</time></trkpt><trkpt lat="37.0340317" lon="15.0576328"><ele>413.0</ele><time>2026-04-18T13:10:40.842Z</time></trkpt><trkpt lat="37.034085" lon="15.0575453"><ele>413.0</ele><time>2026-04-18T13:10:41.841Z</time></trkpt><trkpt lat="37.0341237" lon="15.0574827"><ele>412.99999999999994</ele><time>2026-04-18T13:10:42.84Z</time></trkpt><trkpt lat="37.0341812" lon="15.0574055"><ele>413.0</ele><time>2026-04-18T13:10:44.841Z</time></trkpt><trkpt lat="37.0342724" lon="15.0574799"><ele>409.79999999999995</ele><time>2026-04-18T13:10:46.841Z</time></trkpt><trkpt lat="37.0343646" lon="15.0575664"><ele>406.6</ele><time>2026-04-18T13:10:48.84Z</time></trkpt><trkpt lat="37.0344485" lon="15.0576218"><ele>403.4</ele><time>2026-04-18T13:10:50.841Z</time></trkpt><trkpt lat="37.0345359" lon="15.0576484"><ele>400.20000000000005</ele><time>2026-04-18T13:10:53.841Z</time></trkpt><trkpt lat="37.0345902" lon="15.0575767"><ele>397.0</ele><time>2026-04-18T13:10:55.841Z</time></trkpt><trkpt lat="37.0346509" lon="15.0575046"><ele>398.50000000000006</ele><time>2026-04-18T13:10:56.841Z</time></trkpt><trkpt lat="37.0346923" lon="15.057414"><ele>400.0</ele><time>2026-04-18T13:10:57.84Z</time></trkpt><trkpt lat="37.0347326" lon="15.0573149"><ele>401.5</ele><time>2026-04-18T13:10:58.841Z</time></trkpt><trkpt lat="37.0347897" lon="15.0572272"><ele>403.0</ele><time>2026-04-18T13:10:59.841Z</time></trkpt><trkpt lat="37.0348435" lon="15.0571577"><ele>404.50000000000006</ele><time>2026-04-18T13:11:00.84Z</time></trkpt><trkpt lat="37.0348937" lon="15.0570828"><ele>406.0</ele><time>2026-04-18T13:11:01.841Z</time></trkpt><trkpt lat="37.034934" lon="15.0570208"><ele>406.0</ele><time>2026-04-18T13:11:02.841Z</time></trkpt><trkpt lat="37.0347969" lon="15.0569142"><ele>406.0</ele><time>2026-04-18T13:11:06.841Z</time></trkpt><trkpt lat="37.0347015" lon="15.0568482"><ele>406.0</ele><time>2026-04-18T13:11:07.84Z</time></trkpt><trkpt lat="37.0346316" lon="15.0567914"><ele>406.0</ele><time>2026-04-18T13:11:08.84Z</time></trkpt><trkpt lat="37.0345685" lon="15.0567575"><ele>406.0</ele><time>2026-04-18T13:11:09.841Z</time></trkpt><trkpt lat="37.0345042" lon="15.0567836"><ele>406.0</ele><time>2026-04-18T13:11:13.84Z</time></trkpt><trkpt lat="37.0344818" lon="15.0568599"><ele>406.0</ele><time>2026-04-18T13:11:15.842Z</time></trkpt><trkpt lat="37.0345596" lon="15.0568133"><ele>406.0</ele><time>2026-04-18T13:27:33.97Z</time></trkpt><trkpt lat="37.034482" lon="15.0569632"><ele>406.0</ele><time>2026-04-18T13:28:24.838Z</time></trkpt><trkpt lat="37.0344971" lon="15.0568706"><ele>406.0</ele><time>2026-04-18T13:36:01.839Z</time></trkpt><trkpt lat="37.0345119" lon="15.0567578"><ele>406.0</ele><time>2026-04-18T13:36:03.837Z</time></trkpt><trkpt lat="37.0345773" lon="15.0567528"><ele>406.0</ele><time>2026-04-18T13:36:04.838Z</time></trkpt><trkpt lat="37.034687" lon="15.0567934"><ele>406.0</ele><time>2026-04-18T13:36:06.837Z</time></trkpt><trkpt lat="37.034803" lon="15.0568523"><ele>406.0</ele><time>2026-04-18T13:36:08.838Z</time></trkpt><trkpt lat="37.0348895" lon="15.0569262"><ele>406.0</ele><time>2026-04-18T13:36:10.837Z</time></trkpt><trkpt lat="37.0349514" lon="15.0569589"><ele>403.5</ele><time>2026-04-18T13:36:12.837Z</time></trkpt><trkpt lat="37.0350284" lon="15.0569131"><ele>401.0</ele><time>2026-04-18T13:36:16.837Z</time></trkpt><trkpt lat="37.035122" lon="15.0567497"><ele>398.5</ele><time>2026-04-18T13:36:18.836Z</time></trkpt><trkpt lat="37.0351888" lon="15.0566022"><ele>396.0</ele><time>2026-04-18T13:36:19.838Z</time></trkpt><trkpt lat="37.0352688" lon="15.0564845"><ele>395.8333333333333</ele><time>2026-04-18T13:36:20.837Z</time></trkpt><trkpt lat="37.0353307" lon="15.0563955"><ele>395.66666666666663</ele><time>2026-04-18T13:36:21.838Z</time></trkpt><trkpt lat="37.0353871" lon="15.0563016"><ele>395.5</ele><time>2026-04-18T13:36:22.836Z</time></trkpt><trkpt lat="37.0354229" lon="15.0562051"><ele>395.3333333333333</ele><time>2026-04-18T13:36:24.838Z</time></trkpt><trkpt lat="37.0355017" lon="15.0562311"><ele>395.16666666666663</ele><time>2026-04-18T13:36:27.838Z</time></trkpt><trkpt lat="37.0355633" lon="15.0563001"><ele>395.0</ele><time>2026-04-18T13:36:29.836Z</time></trkpt><trkpt lat="37.0356562" lon="15.0563818"><ele>395.0</ele><time>2026-04-18T13:36:30.837Z</time></trkpt><trkpt lat="37.0357389" lon="15.0564138"><ele>395.0</ele><time>2026-04-18T13:36:32.837Z</time></trkpt><trkpt lat="37.0358441" lon="15.0564965"><ele>395.0</ele><time>2026-04-18T13:36:35.838Z</time></trkpt><trkpt lat="37.0359176" lon="15.0565484"><ele>395.0</ele><time>2026-04-18T13:36:37.838Z</time></trkpt><trkpt lat="37.0359851" lon="15.0566116"><ele>395.0</ele><time>2026-04-18T13:36:39.838Z</time></trkpt><trkpt lat="37.0359899" lon="15.0567062"><ele>392.4</ele><time>2026-04-18T13:36:40.838Z</time></trkpt><trkpt lat="37.0359753" lon="15.0568073"><ele>389.8</ele><time>2026-04-18T13:36:41.837Z</time></trkpt><trkpt lat="37.03598" lon="15.0569309"><ele>387.20000000000005</ele><time>2026-04-18T13:36:42.838Z</time></trkpt><trkpt lat="37.0359321" lon="15.0570603"><ele>384.6</ele><time>2026-04-18T13:36:43.837Z</time></trkpt><trkpt lat="37.0358917" lon="15.0571629"><ele>382.0</ele><time>2026-04-18T13:36:44.836Z</time></trkpt><trkpt lat="37.0358646" lon="15.0572427"><ele>382.0</ele><time>2026-04-18T13:36:45.836Z</time></trkpt><trkpt lat="37.0358507" lon="15.0573639"><ele>382.0</ele><time>2026-04-18T13:36:47.837Z</time></trkpt><trkpt lat="37.0359342" lon="15.0572488"><ele>382.0</ele><time>2026-04-18T13:36:50.839Z</time></trkpt><trkpt lat="37.035962" lon="15.0571623"><ele>382.0</ele><time>2026-04-18T13:36:51.838Z</time></trkpt><trkpt lat="37.0359893" lon="15.0570824"><ele>382.0</ele><time>2026-04-18T13:36:52.838Z</time></trkpt><trkpt lat="37.0360147" lon="15.0569559"><ele>382.0</ele><time>2026-04-18T13:36:54.838Z</time></trkpt><trkpt lat="37.0360354" lon="15.0568486"><ele>382.0</ele><time>2026-04-18T13:36:56.838Z</time></trkpt><trkpt lat="37.036102" lon="15.0568803"><ele>382.0</ele><time>2026-04-18T13:36:58.837Z</time></trkpt><trkpt lat="37.0361605" lon="15.0569817"><ele>382.0</ele><time>2026-04-18T13:37:00.837Z</time></trkpt><trkpt lat="37.0361373" lon="15.0570793"><ele>382.0</ele><time>2026-04-18T13:37:01.837Z</time></trkpt><trkpt lat="37.0361152" lon="15.0572222"><ele>382.0</ele><time>2026-04-18T13:37:03.838Z</time></trkpt><trkpt lat="37.0360818" lon="15.0573333"><ele>382.0</ele><time>2026-04-18T13:37:05.837Z</time></trkpt><trkpt lat="37.0361245" lon="15.0571705"><ele>382.0</ele><time>2026-04-18T13:39:29.837Z</time></trkpt><trkpt lat="37.0362013" lon="15.0570472"><ele>382.0</ele><time>2026-04-18T13:39:31.837Z</time></trkpt><trkpt lat="37.0361642" lon="15.0569104"><ele>382.0</ele><time>2026-04-18T13:39:33.836Z</time></trkpt><trkpt lat="37.036101" lon="15.0568569"><ele>382.0</ele><time>2026-04-18T13:39:34.837Z</time></trkpt><trkpt lat="37.0359895" lon="15.0569144"><ele>382.0</ele><time>2026-04-18T13:39:36.838Z</time></trkpt><trkpt lat="37.0359371" lon="15.0570244"><ele>382.0</ele><time>2026-04-18T13:39:37.838Z</time></trkpt><trkpt lat="37.0358933" lon="15.0571573"><ele>382.0</ele><time>2026-04-18T13:39:38.838Z</time></trkpt><trkpt lat="37.0358564" lon="15.057267"><ele>382.0</ele><time>2026-04-18T13:39:39.837Z</time></trkpt><trkpt lat="37.0358432" lon="15.0571541"><ele>382.0</ele><time>2026-04-18T13:39:44.838Z</time></trkpt><trkpt lat="37.035894" lon="15.0569933"><ele>382.0</ele><time>2026-04-18T13:39:45.838Z</time></trkpt><trkpt lat="37.0359522" lon="15.0567908"><ele>382.0</ele><time>2026-04-18T13:39:46.837Z</time></trkpt><trkpt lat="37.0360049" lon="15.0566153"><ele>382.0</ele><time>2026-04-18T13:39:47.837Z</time></trkpt><trkpt lat="37.0360469" lon="15.0564521"><ele>382.0</ele><time>2026-04-18T13:39:48.837Z</time></trkpt><trkpt lat="37.0360854" lon="15.0562992"><ele>382.0</ele><time>2026-04-18T13:39:49.838Z</time></trkpt><trkpt lat="37.0361172" lon="15.056196"><ele>382.0</ele><time>2026-04-18T13:39:50.837Z</time></trkpt><trkpt lat="37.0361431" lon="15.056104"><ele>382.0</ele><time>2026-04-18T13:39:51.836Z</time></trkpt><trkpt lat="37.0360847" lon="15.056039"><ele>382.0</ele><time>2026-04-18T13:39:54.837Z</time></trkpt><trkpt lat="37.0360194" lon="15.0561741"><ele>382.0</ele><time>2026-04-18T13:39:56.838Z</time></trkpt><trkpt lat="37.035978" lon="15.0562432"><ele>382.0</ele><time>2026-04-18T13:39:57.837Z</time></trkpt><trkpt lat="37.0359448" lon="15.0563222"><ele>382.0</ele><time>2026-04-18T13:39:59.837Z</time></trkpt><trkpt lat="37.0358419" lon="15.056233"><ele>382.0</ele><time>2026-04-18T13:40:02.837Z</time></trkpt><trkpt lat="37.0357928" lon="15.056181"><ele>383.8571428571429</ele><time>2026-04-18T13:40:03.836Z</time></trkpt><trkpt lat="37.0357593" lon="15.056107"><ele>385.71428571428567</ele><time>2026-04-18T13:40:04.837Z</time></trkpt><trkpt lat="37.0357128" lon="15.0560405"><ele>387.57142857142856</ele><time>2026-04-18T13:40:05.837Z</time></trkpt><trkpt lat="37.03567" lon="15.0559665"><ele>389.42857142857144</ele><time>2026-04-18T13:40:06.837Z</time></trkpt><trkpt lat="37.0356284" lon="15.0558965"><ele>391.28571428571433</ele><time>2026-04-18T13:40:07.838Z</time></trkpt><trkpt lat="37.0355992" lon="15.0558219"><ele>393.1428571428571</ele><time>2026-04-18T13:40:08.837Z</time></trkpt><trkpt lat="37.035561" lon="15.0557518"><ele>395.0</ele><time>2026-04-18T13:40:09.837Z</time></trkpt><trkpt lat="37.0355023" lon="15.0556548"><ele>395.75</ele><time>2026-04-18T13:40:10.836Z</time></trkpt><trkpt lat="37.035435" lon="15.0555477"><ele>396.5</ele><time>2026-04-18T13:40:11.836Z</time></trkpt><trkpt lat="37.0353629" lon="15.0554455"><ele>397.25</ele><time>2026-04-18T13:40:12.838Z</time></trkpt><trkpt lat="37.0353309" lon="15.055307"><ele>398.0</ele><time>2026-04-18T13:40:13.837Z</time></trkpt><trkpt lat="37.0352956" lon="15.0551462"><ele>401.66666666666663</ele><time>2026-04-18T13:40:14.837Z</time></trkpt><trkpt lat="37.0352997" lon="15.0549402"><ele>405.33333333333337</ele><time>2026-04-18T13:40:15.839Z</time></trkpt><trkpt lat="37.0352986" lon="15.0547184"><ele>409.0</ele><time>2026-04-18T13:40:16.838Z</time></trkpt><trkpt lat="37.0353006" lon="15.0544768"><ele>409.0</ele><time>2026-04-18T13:40:17.838Z</time></trkpt><trkpt lat="37.0353421" lon="15.0542142"><ele>409.0</ele><time>2026-04-18T13:40:18.838Z</time></trkpt><trkpt lat="37.0353571" lon="15.053991"><ele>409.0</ele><time>2026-04-18T13:40:19.839Z</time></trkpt><trkpt lat="37.0353481" lon="15.0537732"><ele>412.0</ele><time>2026-04-18T13:40:20.837Z</time></trkpt><trkpt lat="37.035317" lon="15.0535399"><ele>415.0</ele><time>2026-04-18T13:40:21.837Z</time></trkpt><trkpt lat="37.0352667" lon="15.0533148"><ele>418.0</ele><time>2026-04-18T13:40:22.837Z</time></trkpt><trkpt lat="37.0352311" lon="15.0530808"><ele>421.0</ele><time>2026-04-18T13:40:23.838Z</time></trkpt><trkpt lat="37.0352044" lon="15.0528392"><ele>424.0</ele><time>2026-04-18T13:40:24.836Z</time></trkpt><trkpt lat="37.0351745" lon="15.0526131"><ele>427.0</ele><time>2026-04-18T13:40:25.838Z</time></trkpt><trkpt lat="37.0351439" lon="15.0523991"><ele>427.5</ele><time>2026-04-18T13:40:26.837Z</time></trkpt><trkpt lat="37.0351167" lon="15.0522383"><ele>428.0</ele><time>2026-04-18T13:40:27.838Z</time></trkpt><trkpt lat="37.035085" lon="15.0520787"><ele>428.5</ele><time>2026-04-18T13:40:28.838Z</time></trkpt><trkpt lat="37.0350754" lon="15.0519537"><ele>429.0</ele><time>2026-04-18T13:40:29.837Z</time></trkpt><trkpt lat="37.0350698" lon="15.0518361"><ele>429.0</ele><time>2026-04-18T13:40:30.837Z</time></trkpt><trkpt lat="37.0350634" lon="15.0517055"><ele>429.0</ele><time>2026-04-18T13:40:31.838Z</time></trkpt><trkpt lat="37.0350653" lon="15.0515659"><ele>429.0</ele><time>2026-04-18T13:40:32.836Z</time></trkpt><trkpt lat="37.03505" lon="15.0514042"><ele>429.0</ele><time>2026-04-18T13:40:33.837Z</time></trkpt><trkpt lat="37.0350183" lon="15.0512317"><ele>429.0</ele><time>2026-04-18T13:40:34.837Z</time></trkpt><trkpt lat="37.0349768" lon="15.0510722"><ele>429.0</ele><time>2026-04-18T13:40:35.837Z</time></trkpt><trkpt lat="37.0349281" lon="15.0509391"><ele>429.0</ele><time>2026-04-18T13:40:36.838Z</time></trkpt><trkpt lat="37.0348727" lon="15.0508346"><ele>429.0</ele><time>2026-04-18T13:40:37.838Z</time></trkpt><trkpt lat="37.0348122" lon="15.0507147"><ele>429.0</ele><time>2026-04-18T13:40:38.838Z</time></trkpt><trkpt lat="37.0347432" lon="15.0506629"><ele>429.0</ele><time>2026-04-18T13:40:39.838Z</time></trkpt><trkpt lat="37.034694" lon="15.0505715"><ele>429.0</ele><time>2026-04-18T13:40:40.836Z</time></trkpt><trkpt lat="37.0346694" lon="15.0504964"><ele>429.0</ele><time>2026-04-18T13:40:41.837Z</time></trkpt><trkpt lat="37.0346384" lon="15.0504036"><ele>429.0</ele><time>2026-04-18T13:40:42.838Z</time></trkpt><trkpt lat="37.0346089" lon="15.0503213"><ele>429.0</ele><time>2026-04-18T13:40:43.837Z</time></trkpt><trkpt lat="37.0345241" lon="15.0501925"><ele>429.0</ele><time>2026-04-18T13:40:44.838Z</time></trkpt><trkpt lat="37.0343886" lon="15.0500753"><ele>429.0</ele><time>2026-04-18T13:40:45.838Z</time></trkpt><trkpt lat="37.0342164" lon="15.049914"><ele>429.0</ele><time>2026-04-18T13:40:46.837Z</time></trkpt><trkpt lat="37.0340549" lon="15.0497802"><ele>431.25</ele><time>2026-04-18T13:40:47.838Z</time></trkpt><trkpt lat="37.033909" lon="15.0496719"><ele>433.5</ele><time>2026-04-18T13:40:48.837Z</time></trkpt><trkpt lat="37.0337878" lon="15.0495705"><ele>435.75</ele><time>2026-04-18T13:40:49.838Z</time></trkpt><trkpt lat="37.0336962" lon="15.049493"><ele>438.0</ele><time>2026-04-18T13:40:50.837Z</time></trkpt><trkpt lat="37.0336574" lon="15.0494012"><ele>438.0</ele><time>2026-04-18T13:40:51.837Z</time></trkpt><trkpt lat="37.0336463" lon="15.0492892"><ele>438.0</ele><time>2026-04-18T13:40:52.837Z</time></trkpt><trkpt lat="37.0336734" lon="15.0491504"><ele>438.0</ele><time>2026-04-18T13:40:53.837Z</time></trkpt><trkpt lat="37.033692" lon="15.0490332"><ele>438.0</ele><time>2026-04-18T13:40:54.837Z</time></trkpt><trkpt lat="37.0336937" lon="15.0489375"><ele>438.0</ele><time>2026-04-18T13:40:55.836Z</time></trkpt><trkpt lat="37.0336756" lon="15.0488582"><ele>438.0</ele><time>2026-04-18T13:40:57.837Z</time></trkpt><trkpt lat="37.0336313" lon="15.048717"><ele>439.0</ele><time>2026-04-18T13:41:01.837Z</time></trkpt><trkpt lat="37.0335966" lon="15.0486315"><ele>440.0</ele><time>2026-04-18T13:41:02.836Z</time></trkpt><trkpt lat="37.0335541" lon="15.0485414"><ele>441.0</ele><time>2026-04-18T13:41:03.837Z</time></trkpt><trkpt lat="37.0334499" lon="15.0483714"><ele>442.0</ele><time>2026-04-18T13:41:04.837Z</time></trkpt><trkpt lat="37.0333502" lon="15.0482209"><ele>445.0</ele><time>2026-04-18T13:41:05.836Z</time></trkpt><trkpt lat="37.0332395" lon="15.0480573"><ele>448.0</ele><time>2026-04-18T13:41:06.836Z</time></trkpt><trkpt lat="37.0331331" lon="15.0478633"><ele>451.0</ele><time>2026-04-18T13:41:07.836Z</time></trkpt><trkpt lat="37.033005" lon="15.0476535"><ele>451.6666666666667</ele><time>2026-04-18T13:41:08.837Z</time></trkpt><trkpt lat="37.0328792" lon="15.0474536"><ele>452.33333333333337</ele><time>2026-04-18T13:41:09.837Z</time></trkpt><trkpt lat="37.0327574" lon="15.0472574"><ele>453.0</ele><time>2026-04-18T13:41:10.837Z</time></trkpt><trkpt lat="37.0326346" lon="15.0470747"><ele>453.0</ele><time>2026-04-18T13:41:11.837Z</time></trkpt><trkpt lat="37.0325233" lon="15.0468828"><ele>453.0</ele><time>2026-04-18T13:41:12.837Z</time></trkpt><trkpt lat="37.0323966" lon="15.0467053"><ele>453.0</ele><time>2026-04-18T13:41:13.838Z</time></trkpt><trkpt lat="37.0322778" lon="15.0465094"><ele>451.66666666666663</ele><time>2026-04-18T13:41:14.838Z</time></trkpt><trkpt lat="37.0321655" lon="15.0463295"><ele>450.3333333333333</ele><time>2026-04-18T13:41:15.837Z</time></trkpt><trkpt lat="37.0320343" lon="15.0461532"><ele>449.0</ele><time>2026-04-18T13:41:16.837Z</time></trkpt><trkpt lat="37.0319187" lon="15.0459632"><ele>447.66666666666663</ele><time>2026-04-18T13:41:17.836Z</time></trkpt><trkpt lat="37.0318084" lon="15.0457772"><ele>446.33333333333337</ele><time>2026-04-18T13:41:18.837Z</time></trkpt><trkpt lat="37.0316884" lon="15.0455841"><ele>445.0</ele><time>2026-04-18T13:41:19.836Z</time></trkpt><trkpt lat="37.0315669" lon="15.0453827"><ele>448.0</ele><time>2026-04-18T13:41:20.837Z</time></trkpt><trkpt lat="37.0314506" lon="15.0451752"><ele>451.0</ele><time>2026-04-18T13:41:21.837Z</time></trkpt><trkpt lat="37.0313224" lon="15.0449729"><ele>454.0</ele><time>2026-04-18T13:41:22.837Z</time></trkpt><trkpt lat="37.0311909" lon="15.0447745"><ele>454.33333333333337</ele><time>2026-04-18T13:41:23.836Z</time></trkpt><trkpt lat="37.0310694" lon="15.0445779"><ele>454.66666666666663</ele><time>2026-04-18T13:41:24.836Z</time></trkpt><trkpt lat="37.030955" lon="15.0443717"><ele>455.0</ele><time>2026-04-18T13:41:25.837Z</time></trkpt><trkpt lat="37.0308259" lon="15.0441795"><ele>458.0</ele><time>2026-04-18T13:41:26.837Z</time></trkpt><trkpt lat="37.0307068" lon="15.0439716"><ele>461.0</ele><time>2026-04-18T13:41:27.837Z</time></trkpt><trkpt lat="37.0305809" lon="15.0437611"><ele>464.0</ele><time>2026-04-18T13:41:28.837Z</time></trkpt><trkpt lat="37.0304529" lon="15.0435513"><ele>464.0</ele><time>2026-04-18T13:41:29.836Z</time></trkpt><trkpt lat="37.030322" lon="15.0433581"><ele>464.0</ele><time>2026-04-18T13:41:30.837Z</time></trkpt><trkpt lat="37.0302104" lon="15.0431329"><ele>464.0</ele><time>2026-04-18T13:41:31.836Z</time></trkpt><trkpt lat="37.0300908" lon="15.042919"><ele>465.66666666666663</ele><time>2026-04-18T13:41:32.836Z</time></trkpt><trkpt lat="37.0299822" lon="15.0426629"><ele>467.33333333333337</ele><time>2026-04-18T13:41:33.837Z</time></trkpt><trkpt lat="37.029864" lon="15.0424476"><ele>469.0</ele><time>2026-04-18T13:41:34.838Z</time></trkpt><trkpt lat="37.0297386" lon="15.0422377"><ele>470.0</ele><time>2026-04-18T13:41:35.837Z</time></trkpt><trkpt lat="37.0296148" lon="15.0420321"><ele>471.0</ele><time>2026-04-18T13:41:36.836Z</time></trkpt><trkpt lat="37.0294888" lon="15.0418234"><ele>472.0</ele><time>2026-04-18T13:41:37.837Z</time></trkpt><trkpt lat="37.0293609" lon="15.0416287"><ele>472.0</ele><time>2026-04-18T13:41:38.836Z</time></trkpt><trkpt lat="37.0292261" lon="15.0414361"><ele>472.0</ele><time>2026-04-18T13:41:39.837Z</time></trkpt><trkpt lat="37.0291" lon="15.0412413"><ele>472.0</ele><time>2026-04-18T13:41:40.837Z</time></trkpt><trkpt lat="37.0289502" lon="15.041094"><ele>476.0</ele><time>2026-04-18T13:41:41.836Z</time></trkpt><trkpt lat="37.0287964" lon="15.0409323"><ele>480.0</ele><time>2026-04-18T13:41:42.838Z</time></trkpt><trkpt lat="37.0286367" lon="15.0407996"><ele>484.0</ele><time>2026-04-18T13:41:43.837Z</time></trkpt><trkpt lat="37.0284685" lon="15.0406714"><ele>485.33333333333337</ele><time>2026-04-18T13:41:44.837Z</time></trkpt><trkpt lat="37.02829" lon="15.0405554"><ele>486.66666666666663</ele><time>2026-04-18T13:41:45.836Z</time></trkpt><trkpt lat="37.0280971" lon="15.040464"><ele>488.0</ele><time>2026-04-18T13:41:46.837Z</time></trkpt><trkpt lat="37.0279149" lon="15.0403684"><ele>488.0</ele><time>2026-04-18T13:41:47.837Z</time></trkpt><trkpt lat="37.027726" lon="15.04028"><ele>488.0</ele><time>2026-04-18T13:41:48.836Z</time></trkpt><trkpt lat="37.0275426" lon="15.0402069"><ele>488.0</ele><time>2026-04-18T13:41:49.837Z</time></trkpt><trkpt lat="37.0273524" lon="15.0400968"><ele>488.0</ele><time>2026-04-18T13:41:50.836Z</time></trkpt><trkpt lat="37.0271648" lon="15.039972"><ele>488.0</ele><time>2026-04-18T13:41:51.838Z</time></trkpt><trkpt lat="37.0269949" lon="15.0398507"><ele>488.0</ele><time>2026-04-18T13:41:52.837Z</time></trkpt><trkpt lat="37.0268299" lon="15.0397226"><ele>488.0</ele><time>2026-04-18T13:41:53.837Z</time></trkpt><trkpt lat="37.0266775" lon="15.0395855"><ele>488.0</ele><time>2026-04-18T13:41:54.837Z</time></trkpt><trkpt lat="37.0265361" lon="15.0394617"><ele>488.0</ele><time>2026-04-18T13:41:55.837Z</time></trkpt><trkpt lat="37.0263931" lon="15.0393481"><ele>487.0</ele><time>2026-04-18T13:41:56.837Z</time></trkpt><trkpt lat="37.026262" lon="15.0392412"><ele>486.0</ele><time>2026-04-18T13:41:57.837Z</time></trkpt><trkpt lat="37.0261306" lon="15.0391459"><ele>485.0</ele><time>2026-04-18T13:41:58.837Z</time></trkpt><trkpt lat="37.0260096" lon="15.0390547"><ele>484.0</ele><time>2026-04-18T13:41:59.836Z</time></trkpt><trkpt lat="37.0259053" lon="15.0389784"><ele>484.0</ele><time>2026-04-18T13:42:00.837Z</time></trkpt><trkpt lat="37.0258206" lon="15.0388991"><ele>484.0</ele><time>2026-04-18T13:42:01.837Z</time></trkpt><trkpt lat="37.025752" lon="15.0387999"><ele>484.0</ele><time>2026-04-18T13:42:02.837Z</time></trkpt><trkpt lat="37.0256899" lon="15.0386796"><ele>484.0</ele><time>2026-04-18T13:42:03.836Z</time></trkpt><trkpt lat="37.0256496" lon="15.0385685"><ele>484.0</ele><time>2026-04-18T13:42:04.837Z</time></trkpt><trkpt lat="37.0256216" lon="15.0384574"><ele>481.4</ele><time>2026-04-18T13:42:05.836Z</time></trkpt><trkpt lat="37.0255994" lon="15.0383374"><ele>478.79999999999995</ele><time>2026-04-18T13:42:06.836Z</time></trkpt><trkpt lat="37.0255759" lon="15.0382102"><ele>476.20000000000005</ele><time>2026-04-18T13:42:07.837Z</time></trkpt><trkpt lat="37.0255486" lon="15.0380955"><ele>473.6</ele><time>2026-04-18T13:42:08.836Z</time></trkpt><trkpt lat="37.0255216" lon="15.0379847"><ele>471.0</ele><time>2026-04-18T13:42:09.836Z</time></trkpt><trkpt lat="37.0254878" lon="15.0378896"><ele>470.75</ele><time>2026-04-18T13:42:10.838Z</time></trkpt><trkpt lat="37.025438" lon="15.037809"><ele>470.5</ele><time>2026-04-18T13:42:11.836Z</time></trkpt><trkpt lat="37.0253681" lon="15.0377362"><ele>470.25</ele><time>2026-04-18T13:42:12.836Z</time></trkpt><trkpt lat="37.0252451" lon="15.0376494"><ele>470.0</ele><time>2026-04-18T13:42:13.837Z</time></trkpt><trkpt lat="37.0250869" lon="15.0375561"><ele>471.0</ele><time>2026-04-18T13:42:14.837Z</time></trkpt><trkpt lat="37.0248981" lon="15.0374417"><ele>472.0</ele><time>2026-04-18T13:42:15.837Z</time></trkpt><trkpt lat="37.0247291" lon="15.0373423"><ele>473.0</ele><time>2026-04-18T13:42:16.836Z</time></trkpt><trkpt lat="37.0245869" lon="15.0372439"><ele>473.0</ele><time>2026-04-18T13:42:17.836Z</time></trkpt><trkpt lat="37.0244531" lon="15.0371687"><ele>473.0</ele><time>2026-04-18T13:42:18.838Z</time></trkpt><trkpt lat="37.0243264" lon="15.0371225"><ele>473.0</ele><time>2026-04-18T13:42:19.836Z</time></trkpt><trkpt lat="37.0242006" lon="15.0370832"><ele>473.0</ele><time>2026-04-18T13:42:20.837Z</time></trkpt><trkpt lat="37.024088" lon="15.0370847"><ele>474.0</ele><time>2026-04-18T13:42:21.838Z</time></trkpt><trkpt lat="37.0239523" lon="15.0371148"><ele>475.0</ele><time>2026-04-18T13:42:22.835Z</time></trkpt><trkpt lat="37.0237962" lon="15.0371716"><ele>476.0</ele><time>2026-04-18T13:42:23.837Z</time></trkpt><trkpt lat="37.0236601" lon="15.037229"><ele>477.0</ele><time>2026-04-18T13:42:24.836Z</time></trkpt><trkpt lat="37.0235308" lon="15.0372897"><ele>477.0</ele><time>2026-04-18T13:42:25.838Z</time></trkpt><trkpt lat="37.0234281" lon="15.0373146"><ele>477.0</ele><time>2026-04-18T13:42:26.837Z</time></trkpt><trkpt lat="37.0233204" lon="15.0373182"><ele>477.0</ele><time>2026-04-18T13:42:27.837Z</time></trkpt><trkpt lat="37.0231861" lon="15.0373295"><ele>477.0</ele><time>2026-04-18T13:42:28.837Z</time></trkpt><trkpt lat="37.023064" lon="15.0373345"><ele>477.0</ele><time>2026-04-18T13:42:29.836Z</time></trkpt><trkpt lat="37.0229558" lon="15.0373387"><ele>477.00000000000006</ele><time>2026-04-18T13:42:30.837Z</time></trkpt><trkpt lat="37.0228587" lon="15.0373261"><ele>477.00000000000006</ele><time>2026-04-18T13:42:31.836Z</time></trkpt><trkpt lat="37.0227651" lon="15.0372798"><ele>477.0</ele><time>2026-04-18T13:42:32.838Z</time></trkpt><trkpt lat="37.0226672" lon="15.0371909"><ele>477.0</ele><time>2026-04-18T13:42:33.836Z</time></trkpt><trkpt lat="37.0225751" lon="15.0370714"><ele>476.0</ele><time>2026-04-18T13:42:34.836Z</time></trkpt><trkpt lat="37.0224671" lon="15.0369686"><ele>475.00000000000006</ele><time>2026-04-18T13:42:35.837Z</time></trkpt><trkpt lat="37.0223735" lon="15.0368938"><ele>474.00000000000006</ele><time>2026-04-18T13:42:36.838Z</time></trkpt><trkpt lat="37.0222964" lon="15.0368164"><ele>473.0</ele><time>2026-04-18T13:42:37.837Z</time></trkpt><trkpt lat="37.0222216" lon="15.0367268"><ele>472.0</ele><time>2026-04-18T13:42:38.837Z</time></trkpt><trkpt lat="37.0221719" lon="15.0366183"><ele>472.0</ele><time>2026-04-18T13:42:39.837Z</time></trkpt><trkpt lat="37.0221179" lon="15.036525"><ele>472.00000000000006</ele><time>2026-04-18T13:42:40.837Z</time></trkpt><trkpt lat="37.0220863" lon="15.0364544"><ele>472.00000000000006</ele><time>2026-04-18T13:42:41.837Z</time></trkpt><trkpt lat="37.0220962" lon="15.036298"><ele>472.0</ele><time>2026-04-18T13:42:43.837Z</time></trkpt><trkpt lat="37.0222046" lon="15.0362073"><ele>472.0</ele><time>2026-04-18T13:42:45.837Z</time></trkpt><trkpt lat="37.0223369" lon="15.0362212"><ele>472.0</ele><time>2026-04-18T13:42:46.837Z</time></trkpt><trkpt lat="37.0224516" lon="15.036214"><ele>472.0</ele><time>2026-04-18T13:42:47.837Z</time></trkpt><trkpt lat="37.0225683" lon="15.0361979"><ele>472.0</ele><time>2026-04-18T13:42:48.836Z</time></trkpt><trkpt lat="37.0226871" lon="15.0361714"><ele>472.0</ele><time>2026-04-18T13:42:49.836Z</time></trkpt><trkpt lat="37.0227782" lon="15.0361279"><ele>472.8</ele><time>2026-04-18T13:42:50.837Z</time></trkpt><trkpt lat="37.0228505" lon="15.0360682"><ele>473.6</ele><time>2026-04-18T13:42:51.838Z</time></trkpt><trkpt lat="37.0229319" lon="15.0359967"><ele>474.40000000000003</ele><time>2026-04-18T13:42:52.837Z</time></trkpt><trkpt lat="37.0230131" lon="15.0359201"><ele>475.20000000000005</ele><time>2026-04-18T13:42:53.837Z</time></trkpt><trkpt lat="37.0231016" lon="15.035842"><ele>476.0</ele><time>2026-04-18T13:42:54.837Z</time></trkpt><trkpt lat="37.0231937" lon="15.0357582"><ele>476.0</ele><time>2026-04-18T13:42:55.838Z</time></trkpt><trkpt lat="37.0232872" lon="15.0356661"><ele>476.0</ele><time>2026-04-18T13:42:56.837Z</time></trkpt><trkpt lat="37.0233664" lon="15.0355716"><ele>476.0</ele><time>2026-04-18T13:42:57.836Z</time></trkpt><trkpt lat="37.0234438" lon="15.0354665"><ele>476.0</ele><time>2026-04-18T13:42:58.838Z</time></trkpt><trkpt lat="37.023521" lon="15.0353678"><ele>477.6</ele><time>2026-04-18T13:42:59.836Z</time></trkpt><trkpt lat="37.0235966" lon="15.0352824"><ele>479.20000000000005</ele><time>2026-04-18T13:43:00.838Z</time></trkpt><trkpt lat="37.0236789" lon="15.0352038"><ele>480.79999999999995</ele><time>2026-04-18T13:43:01.837Z</time></trkpt><trkpt lat="37.0237639" lon="15.0351194"><ele>482.4</ele><time>2026-04-18T13:43:02.836Z</time></trkpt><trkpt lat="37.0238559" lon="15.0350377"><ele>484.0</ele><time>2026-04-18T13:43:03.838Z</time></trkpt><trkpt lat="37.0239401" lon="15.0349664"><ele>484.00000000000006</ele><time>2026-04-18T13:43:04.837Z</time></trkpt><trkpt lat="37.024014" lon="15.034901"><ele>484.0</ele><time>2026-04-18T13:43:05.837Z</time></trkpt><trkpt lat="37.0240772" lon="15.034831"><ele>484.0</ele><time>2026-04-18T13:43:06.838Z</time></trkpt><trkpt lat="37.0241311" lon="15.0347545"><ele>484.0</ele><time>2026-04-18T13:43:07.836Z</time></trkpt><trkpt lat="37.0241695" lon="15.034677"><ele>484.00000000000006</ele><time>2026-04-18T13:43:08.836Z</time></trkpt><trkpt lat="37.0242095" lon="15.0345798"><ele>484.0</ele><time>2026-04-18T13:43:09.836Z</time></trkpt><trkpt lat="37.024251" lon="15.0344773"><ele>485.79999999999995</ele><time>2026-04-18T13:43:10.837Z</time></trkpt><trkpt lat="37.0242865" lon="15.0343582"><ele>487.59999999999997</ele><time>2026-04-18T13:43:11.836Z</time></trkpt><trkpt lat="37.0243115" lon="15.0342383"><ele>489.4</ele><time>2026-04-18T13:43:12.836Z</time></trkpt><trkpt lat="37.0243422" lon="15.0341249"><ele>491.2</ele><time>2026-04-18T13:43:13.835Z</time></trkpt><trkpt lat="37.0243911" lon="15.0339889"><ele>493.0</ele><time>2026-04-18T13:43:14.837Z</time></trkpt><trkpt lat="37.024425" lon="15.0338527"><ele>493.2</ele><time>2026-04-18T13:43:15.837Z</time></trkpt><trkpt lat="37.0244594" lon="15.0337309"><ele>493.4</ele><time>2026-04-18T13:43:16.837Z</time></trkpt><trkpt lat="37.0244909" lon="15.0336219"><ele>493.59999999999997</ele><time>2026-04-18T13:43:17.837Z</time></trkpt><trkpt lat="37.0245157" lon="15.0335181"><ele>493.79999999999995</ele><time>2026-04-18T13:43:18.837Z</time></trkpt><trkpt lat="37.0245244" lon="15.0334129"><ele>494.0</ele><time>2026-04-18T13:43:19.835Z</time></trkpt><trkpt lat="37.024536" lon="15.0333092"><ele>494.4</ele><time>2026-04-18T13:43:20.835Z</time></trkpt><trkpt lat="37.0245301" lon="15.0332005"><ele>494.79999999999995</ele><time>2026-04-18T13:43:21.837Z</time></trkpt><trkpt lat="37.0245288" lon="15.0330911"><ele>495.20000000000005</ele><time>2026-04-18T13:43:22.836Z</time></trkpt><trkpt lat="37.0245443" lon="15.0329715"><ele>495.6</ele><time>2026-04-18T13:43:23.837Z</time></trkpt><trkpt lat="37.0245526" lon="15.0328391"><ele>496.0</ele><time>2026-04-18T13:43:24.836Z</time></trkpt><trkpt lat="37.0245974" lon="15.0327115"><ele>496.0</ele><time>2026-04-18T13:43:25.835Z</time></trkpt><trkpt lat="37.0246317" lon="15.032596"><ele>496.0</ele><time>2026-04-18T13:43:26.837Z</time></trkpt><trkpt lat="37.0246521" lon="15.0324978"><ele>496.0</ele><time>2026-04-18T13:43:27.837Z</time></trkpt><trkpt lat="37.024623" lon="15.0323519"><ele>496.0</ele><time>2026-04-18T13:43:28.836Z</time></trkpt><trkpt lat="37.0246111" lon="15.0322133"><ele>496.0</ele><time>2026-04-18T13:43:29.836Z</time></trkpt><trkpt lat="37.024608" lon="15.032077"><ele>496.0</ele><time>2026-04-18T13:43:30.837Z</time></trkpt><trkpt lat="37.02462" lon="15.0319213"><ele>496.0</ele><time>2026-04-18T13:43:31.837Z</time></trkpt><trkpt lat="37.0246507" lon="15.0317742"><ele>496.0</ele><time>2026-04-18T13:43:32.838Z</time></trkpt><trkpt lat="37.0246631" lon="15.0316415"><ele>496.0</ele><time>2026-04-18T13:43:33.837Z</time></trkpt><trkpt lat="37.0246816" lon="15.0315086"><ele>496.50000000000006</ele><time>2026-04-18T13:43:34.837Z</time></trkpt><trkpt lat="37.0246919" lon="15.0313939"><ele>497.0</ele><time>2026-04-18T13:43:35.837Z</time></trkpt><trkpt lat="37.0246973" lon="15.031284"><ele>497.5</ele><time>2026-04-18T13:43:36.836Z</time></trkpt><trkpt lat="37.0246778" lon="15.0311868"><ele>498.0</ele><time>2026-04-18T13:43:37.837Z</time></trkpt><trkpt lat="37.024664" lon="15.0310556"><ele>498.50000000000006</ele><time>2026-04-18T13:43:39.836Z</time></trkpt><trkpt lat="37.0247296" lon="15.030999"><ele>499.0</ele><time>2026-04-18T13:43:40.837Z</time></trkpt><trkpt lat="37.0248321" lon="15.0309418"><ele>499.0</ele><time>2026-04-18T13:43:42.835Z</time></trkpt><trkpt lat="37.0248923" lon="15.0308905"><ele>499.0</ele><time>2026-04-18T13:43:44.836Z</time></trkpt><trkpt lat="37.0248447" lon="15.030731"><ele>499.0</ele><time>2026-04-18T13:43:46.837Z</time></trkpt><trkpt lat="37.0247955" lon="15.0306213"><ele>499.0</ele><time>2026-04-18T13:43:47.836Z</time></trkpt><trkpt lat="37.0247353" lon="15.0304698"><ele>499.0</ele><time>2026-04-18T13:43:48.837Z</time></trkpt><trkpt lat="37.0246765" lon="15.0303042"><ele>500.0</ele><time>2026-04-18T13:43:49.837Z</time></trkpt><trkpt lat="37.0246167" lon="15.0301147"><ele>501.0</ele><time>2026-04-18T13:43:50.836Z</time></trkpt><trkpt lat="37.0245421" lon="15.0299338"><ele>502.0</ele><time>2026-04-18T13:43:51.836Z</time></trkpt><trkpt lat="37.0244808" lon="15.0297574"><ele>502.1666666666667</ele><time>2026-04-18T13:43:52.837Z</time></trkpt><trkpt lat="37.0244322" lon="15.0296373"><ele>502.33333333333337</ele><time>2026-04-18T13:43:53.837Z</time></trkpt><trkpt lat="37.024383" lon="15.0295402"><ele>502.5</ele><time>2026-04-18T13:43:54.835Z</time></trkpt><trkpt lat="37.0243191" lon="15.0294192"><ele>502.66666666666663</ele><time>2026-04-18T13:43:56.837Z</time></trkpt><trkpt lat="37.0242808" lon="15.0293546"><ele>502.8333333333333</ele><time>2026-04-18T13:44:00.837Z</time></trkpt><trkpt lat="37.0242612" lon="15.0292792"><ele>503.0</ele><time>2026-04-18T13:44:02.836Z</time></trkpt><trkpt lat="37.0241712" lon="15.0291513"><ele>503.0</ele><time>2026-04-18T13:44:04.837Z</time></trkpt><trkpt lat="37.0241107" lon="15.0290722"><ele>502.99999999999994</ele><time>2026-04-18T13:44:05.836Z</time></trkpt><trkpt lat="37.0240701" lon="15.0289718"><ele>502.99999999999994</ele><time>2026-04-18T13:44:06.836Z</time></trkpt><trkpt lat="37.0240337" lon="15.0288664"><ele>503.0</ele><time>2026-04-18T13:44:07.836Z</time></trkpt><trkpt lat="37.0239985" lon="15.0287517"><ele>503.0</ele><time>2026-04-18T13:44:08.836Z</time></trkpt><trkpt lat="37.0239527" lon="15.0286216"><ele>503.0</ele><time>2026-04-18T13:44:09.837Z</time></trkpt><trkpt lat="37.0239166" lon="15.0284811"><ele>503.0</ele><time>2026-04-18T13:44:10.836Z</time></trkpt><trkpt lat="37.0238624" lon="15.0283522"><ele>503.0</ele><time>2026-04-18T13:44:11.836Z</time></trkpt><trkpt lat="37.0238055" lon="15.0282221"><ele>503.0</ele><time>2026-04-18T13:44:12.836Z</time></trkpt><trkpt lat="37.0237443" lon="15.028076"><ele>504.25</ele><time>2026-04-18T13:44:13.838Z</time></trkpt><trkpt lat="37.0236838" lon="15.0279387"><ele>505.5</ele><time>2026-04-18T13:44:14.838Z</time></trkpt><trkpt lat="37.0236203" lon="15.0278256"><ele>506.75</ele><time>2026-04-18T13:44:15.835Z</time></trkpt><trkpt lat="37.0235537" lon="15.027715"><ele>508.0</ele><time>2026-04-18T13:44:16.837Z</time></trkpt><trkpt lat="37.0234892" lon="15.027593"><ele>508.0</ele><time>2026-04-18T13:44:17.836Z</time></trkpt><trkpt lat="37.0234098" lon="15.0274838"><ele>508.0</ele><time>2026-04-18T13:44:18.837Z</time></trkpt><trkpt lat="37.0233292" lon="15.0273853"><ele>508.0</ele><time>2026-04-18T13:44:19.837Z</time></trkpt><trkpt lat="37.0232502" lon="15.0272868"><ele>508.0</ele><time>2026-04-18T13:44:20.837Z</time></trkpt><trkpt lat="37.0232" lon="15.0271116"><ele>508.5</ele><time>2026-04-18T13:44:21.836Z</time></trkpt><trkpt lat="37.0231547" lon="15.0269559"><ele>509.0</ele><time>2026-04-18T13:44:22.837Z</time></trkpt><trkpt lat="37.0231029" lon="15.0267952"><ele>509.5</ele><time>2026-04-18T13:44:23.836Z</time></trkpt><trkpt lat="37.0230388" lon="15.0266343"><ele>510.0</ele><time>2026-04-18T13:44:24.835Z</time></trkpt><trkpt lat="37.0229773" lon="15.0264745"><ele>510.0</ele><time>2026-04-18T13:44:25.838Z</time></trkpt><trkpt lat="37.0229182" lon="15.02632"><ele>510.0</ele><time>2026-04-18T13:44:26.838Z</time></trkpt><trkpt lat="37.0228887" lon="15.026203"><ele>510.0</ele><time>2026-04-18T13:44:27.837Z</time></trkpt><trkpt lat="37.0228289" lon="15.026093"><ele>510.0</ele><time>2026-04-18T13:44:28.836Z</time></trkpt><trkpt lat="37.0227765" lon="15.0259776"><ele>510.0</ele><time>2026-04-18T13:44:29.837Z</time></trkpt><trkpt lat="37.0227253" lon="15.0258585"><ele>510.2</ele><time>2026-04-18T13:44:30.836Z</time></trkpt><trkpt lat="37.0226845" lon="15.0257422"><ele>510.4</ele><time>2026-04-18T13:44:31.836Z</time></trkpt><trkpt lat="37.0226516" lon="15.025653"><ele>510.6</ele><time>2026-04-18T13:44:32.836Z</time></trkpt><trkpt lat="37.0226215" lon="15.0255739"><ele>510.8</ele><time>2026-04-18T13:44:33.836Z</time></trkpt><trkpt lat="37.0225735" lon="15.0254549"><ele>511.0</ele><time>2026-04-18T13:44:35.837Z</time></trkpt><trkpt lat="37.0225313" lon="15.0253281"><ele>511.0</ele><time>2026-04-18T13:44:37.837Z</time></trkpt><trkpt lat="37.0225216" lon="15.0252404"><ele>511.0</ele><time>2026-04-18T13:44:38.838Z</time></trkpt><trkpt lat="37.0225296" lon="15.0251276"><ele>511.0</ele><time>2026-04-18T13:44:39.836Z</time></trkpt><trkpt lat="37.0225208" lon="15.0250201"><ele>511.0</ele><time>2026-04-18T13:44:40.837Z</time></trkpt><trkpt lat="37.0225096" lon="15.0248595"><ele>511.0</ele><time>2026-04-18T13:44:41.838Z</time></trkpt><trkpt lat="37.02247" lon="15.0246919"><ele>509.75</ele><time>2026-04-18T13:44:42.836Z</time></trkpt><trkpt lat="37.022412" lon="15.0245259"><ele>508.5</ele><time>2026-04-18T13:44:43.837Z</time></trkpt><trkpt lat="37.0223471" lon="15.0243876"><ele>507.25</ele><time>2026-04-18T13:44:44.837Z</time></trkpt><trkpt lat="37.0222948" lon="15.0242581"><ele>506.0</ele><time>2026-04-18T13:44:45.836Z</time></trkpt><trkpt lat="37.0222309" lon="15.0241732"><ele>508.0</ele><time>2026-04-18T13:44:46.837Z</time></trkpt><trkpt lat="37.0221595" lon="15.024086"><ele>510.0</ele><time>2026-04-18T13:44:47.838Z</time></trkpt><trkpt lat="37.0220697" lon="15.0240107"><ele>512.0</ele><time>2026-04-18T13:44:48.837Z</time></trkpt><trkpt lat="37.0219535" lon="15.023945"><ele>514.0</ele><time>2026-04-18T13:44:49.837Z</time></trkpt><trkpt lat="37.021852" lon="15.0238624"><ele>514.0</ele><time>2026-04-18T13:44:50.835Z</time></trkpt><trkpt lat="37.0217549" lon="15.0237898"><ele>514.0</ele><time>2026-04-18T13:44:51.837Z</time></trkpt><trkpt lat="37.0216729" lon="15.0237381"><ele>514.0</ele><time>2026-04-18T13:44:52.837Z</time></trkpt><trkpt lat="37.0215984" lon="15.0236934"><ele>514.0</ele><time>2026-04-18T13:44:53.836Z</time></trkpt><trkpt lat="37.0215393" lon="15.0236494"><ele>514.0</ele><time>2026-04-18T13:44:54.836Z</time></trkpt><trkpt lat="37.0214553" lon="15.0236173"><ele>514.0</ele><time>2026-04-18T13:44:56.837Z</time></trkpt><trkpt lat="37.0213647" lon="15.0235015"><ele>514.0</ele><time>2026-04-18T13:44:58.836Z</time></trkpt><trkpt lat="37.0213226" lon="15.0234281"><ele>514.0</ele><time>2026-04-18T13:44:59.836Z</time></trkpt><trkpt lat="37.0212775" lon="15.0233584"><ele>514.0</ele><time>2026-04-18T13:45:00.836Z</time></trkpt><trkpt lat="37.0212247" lon="15.023309"><ele>514.0</ele><time>2026-04-18T13:45:01.837Z</time></trkpt><trkpt lat="37.0211705" lon="15.0232664"><ele>514.0</ele><time>2026-04-18T13:45:02.837Z</time></trkpt><trkpt lat="37.021125" lon="15.0232027"><ele>514.0</ele><time>2026-04-18T13:45:03.837Z</time></trkpt><trkpt lat="37.0210731" lon="15.0231272"><ele>514.0</ele><time>2026-04-18T13:45:04.837Z</time></trkpt><trkpt lat="37.0210155" lon="15.0229827"><ele>514.0</ele><time>2026-04-18T13:45:05.836Z</time></trkpt><trkpt lat="37.020956" lon="15.0228535"><ele>514.0</ele><time>2026-04-18T13:45:06.837Z</time></trkpt><trkpt lat="37.020903" lon="15.0227562"><ele>514.0</ele><time>2026-04-18T13:45:07.837Z</time></trkpt><trkpt lat="37.020865" lon="15.022647"><ele>514.0</ele><time>2026-04-18T13:45:08.837Z</time></trkpt><trkpt lat="37.0208284" lon="15.0225523"><ele>514.0</ele><time>2026-04-18T13:45:09.835Z</time></trkpt><trkpt lat="37.0207913" lon="15.0224613"><ele>512.1666666666667</ele><time>2026-04-18T13:45:10.836Z</time></trkpt><trkpt lat="37.0207646" lon="15.0223524"><ele>510.33333333333337</ele><time>2026-04-18T13:45:11.837Z</time></trkpt><trkpt lat="37.0207383" lon="15.0222285"><ele>508.5</ele><time>2026-04-18T13:45:12.836Z</time></trkpt><trkpt lat="37.0206967" lon="15.0221503"><ele>506.66666666666663</ele><time>2026-04-18T13:45:13.835Z</time></trkpt><trkpt lat="37.0206732" lon="15.0220644"><ele>504.8333333333333</ele><time>2026-04-18T13:45:14.837Z</time></trkpt><trkpt lat="37.0206473" lon="15.0219659"><ele>503.0</ele><time>2026-04-18T13:45:15.837Z</time></trkpt><trkpt lat="37.0206347" lon="15.0218722"><ele>503.0</ele><time>2026-04-18T13:45:16.836Z</time></trkpt><trkpt lat="37.0206247" lon="15.0217844"><ele>502.99999999999994</ele><time>2026-04-18T13:45:17.837Z</time></trkpt><trkpt lat="37.0206136" lon="15.021678"><ele>502.99999999999994</ele><time>2026-04-18T13:45:18.836Z</time></trkpt><trkpt lat="37.0206041" lon="15.0215668"><ele>503.0</ele><time>2026-04-18T13:45:19.835Z</time></trkpt><trkpt lat="37.020578" lon="15.0214059"><ele>503.0</ele><time>2026-04-18T13:45:20.836Z</time></trkpt><trkpt lat="37.0205425" lon="15.0212399"><ele>503.5</ele><time>2026-04-18T13:45:21.837Z</time></trkpt><trkpt lat="37.0205113" lon="15.0210747"><ele>504.0</ele><time>2026-04-18T13:45:22.837Z</time></trkpt><trkpt lat="37.0204709" lon="15.020935"><ele>504.5</ele><time>2026-04-18T13:45:23.837Z</time></trkpt><trkpt lat="37.020432" lon="15.0208002"><ele>505.0</ele><time>2026-04-18T13:45:24.837Z</time></trkpt><trkpt lat="37.0203789" lon="15.0206817"><ele>506.0</ele><time>2026-04-18T13:45:25.838Z</time></trkpt><trkpt lat="37.0203254" lon="15.0205598"><ele>507.0</ele><time>2026-04-18T13:45:26.836Z</time></trkpt><trkpt lat="37.0202672" lon="15.0204277"><ele>508.0</ele><time>2026-04-18T13:45:27.836Z</time></trkpt><trkpt lat="37.020201" lon="15.0202848"><ele>509.0</ele><time>2026-04-18T13:45:28.836Z</time></trkpt><trkpt lat="37.0201387" lon="15.0201519"><ele>509.0</ele><time>2026-04-18T13:45:29.836Z</time></trkpt><trkpt lat="37.0200914" lon="15.020027"><ele>509.0</ele><time>2026-04-18T13:45:30.837Z</time></trkpt><trkpt lat="37.0200507" lon="15.0199075"><ele>509.0</ele><time>2026-04-18T13:45:31.835Z</time></trkpt><trkpt lat="37.0200127" lon="15.0198088"><ele>509.0</ele><time>2026-04-18T13:45:32.836Z</time></trkpt><trkpt lat="37.0199826" lon="15.0197284"><ele>509.0</ele><time>2026-04-18T13:45:33.835Z</time></trkpt><trkpt lat="37.0199521" lon="15.0196042"><ele>508.49999999999994</ele><time>2026-04-18T13:45:35.837Z</time></trkpt><trkpt lat="37.0199256" lon="15.0194833"><ele>508.0</ele><time>2026-04-18T13:45:38.836Z</time></trkpt><trkpt lat="37.0199116" lon="15.0193875"><ele>507.5</ele><time>2026-04-18T13:45:41.837Z</time></trkpt><trkpt lat="37.0198761" lon="15.0192732"><ele>507.0</ele><time>2026-04-18T13:45:44.838Z</time></trkpt><trkpt lat="37.0198631" lon="15.0191657"><ele>506.49999999999994</ele><time>2026-04-18T13:45:46.836Z</time></trkpt><trkpt lat="37.0198374" lon="15.0190742"><ele>506.0</ele><time>2026-04-18T13:45:48.837Z</time></trkpt><trkpt lat="37.0198142" lon="15.0189639"><ele>504.28571428571433</ele><time>2026-04-18T13:45:50.836Z</time></trkpt><trkpt lat="37.0197909" lon="15.0188742"><ele>502.57142857142856</ele><time>2026-04-18T13:45:52.836Z</time></trkpt><trkpt lat="37.0197797" lon="15.0187838"><ele>500.8571428571429</ele><time>2026-04-18T13:45:54.837Z</time></trkpt><trkpt lat="37.0197801" lon="15.0186822"><ele>499.14285714285717</ele><time>2026-04-18T13:45:57.835Z</time></trkpt><trkpt lat="37.0197659" lon="15.0185955"><ele>497.42857142857144</ele><time>2026-04-18T13:46:00.836Z</time></trkpt><trkpt lat="37.0197318" lon="15.018505"><ele>495.7142857142857</ele><time>2026-04-18T13:47:09.836Z</time></trkpt><trkpt lat="37.0197135" lon="15.0184235"><ele>494.0</ele><time>2026-04-18T13:47:14.837Z</time></trkpt><trkpt lat="37.0196921" lon="15.0183337"><ele>492.7142857142857</ele><time>2026-04-18T13:47:30.836Z</time></trkpt><trkpt lat="37.0196597" lon="15.0182468"><ele>491.42857142857144</ele><time>2026-04-18T13:47:34.838Z</time></trkpt><trkpt lat="37.0196227" lon="15.0181791"><ele>490.14285714285717</ele><time>2026-04-18T13:47:38.836Z</time></trkpt><trkpt lat="37.0196099" lon="15.0181009"><ele>488.8571428571429</ele><time>2026-04-18T13:47:42.836Z</time></trkpt><trkpt lat="37.019571" lon="15.0180098"><ele>487.57142857142856</ele><time>2026-04-18T13:47:47.836Z</time></trkpt><trkpt lat="37.0195523" lon="15.0179157"><ele>486.28571428571433</ele><time>2026-04-18T13:47:54.835Z</time></trkpt><trkpt lat="37.019509" lon="15.0178301"><ele>485.00000000000006</ele><time>2026-04-18T13:47:58.836Z</time></trkpt><trkpt lat="37.0194753" lon="15.0177571"><ele>484.99999999999994</ele><time>2026-04-18T13:48:01.836Z</time></trkpt><trkpt lat="37.019457" lon="15.0176632"><ele>485.0</ele><time>2026-04-18T13:48:04.836Z</time></trkpt><trkpt lat="37.019426" lon="15.0175588"><ele>485.0</ele><time>2026-04-18T13:48:07.836Z</time></trkpt><trkpt lat="37.0194068" lon="15.017471"><ele>485.0</ele><time>2026-04-18T13:48:10.836Z</time></trkpt><trkpt lat="37.0193629" lon="15.0173836"><ele>484.99999999999994</ele><time>2026-04-18T13:48:14.836Z</time></trkpt><trkpt lat="37.0193413" lon="15.0173067"><ele>485.0</ele><time>2026-04-18T13:48:17.836Z</time></trkpt><trkpt lat="37.0193133" lon="15.0172118"><ele>483.8333333333333</ele><time>2026-04-18T13:48:20.836Z</time></trkpt><trkpt lat="37.0192817" lon="15.0171141"><ele>482.66666666666663</ele><time>2026-04-18T13:48:24.837Z</time></trkpt><trkpt lat="37.0192554" lon="15.0170203"><ele>481.5</ele><time>2026-04-18T13:48:28.836Z</time></trkpt><trkpt lat="37.0192461" lon="15.0169149"><ele>480.33333333333337</ele><time>2026-04-18T13:48:31.836Z</time></trkpt><trkpt lat="37.0192162" lon="15.0168249"><ele>479.1666666666667</ele><time>2026-04-18T13:48:33.836Z</time></trkpt><trkpt lat="37.0191788" lon="15.0167018"><ele>478.0</ele><time>2026-04-18T13:48:35.836Z</time></trkpt><trkpt lat="37.0191487" lon="15.016627"><ele>475.7142857142858</ele><time>2026-04-18T13:48:37.835Z</time></trkpt><trkpt lat="37.0191292" lon="15.0165508"><ele>473.42857142857144</ele><time>2026-04-18T13:48:41.835Z</time></trkpt><trkpt lat="37.0191092" lon="15.0164654"><ele>471.14285714285717</ele><time>2026-04-18T13:48:49.836Z</time></trkpt><trkpt lat="37.019086" lon="15.0163907"><ele>468.8571428571429</ele><time>2026-04-18T13:48:52.835Z</time></trkpt><trkpt lat="37.0190775" lon="15.0162911"><ele>466.57142857142856</ele><time>2026-04-18T13:48:55.836Z</time></trkpt><trkpt lat="37.0190626" lon="15.0162004"><ele>464.2857142857143</ele><time>2026-04-18T13:48:59.838Z</time></trkpt><trkpt lat="37.0190111" lon="15.0161536"><ele>462.0</ele><time>2026-04-18T13:49:04.837Z</time></trkpt><trkpt lat="37.0189995" lon="15.0160758"><ele>462.0</ele><time>2026-04-18T13:49:08.837Z</time></trkpt><trkpt lat="37.0189975" lon="15.0159831"><ele>462.0</ele><time>2026-04-18T13:49:22.835Z</time></trkpt><trkpt lat="37.0189659" lon="15.0159043"><ele>462.0</ele><time>2026-04-18T13:49:28.837Z</time></trkpt><trkpt lat="37.0189276" lon="15.0158397"><ele>462.0</ele><time>2026-04-18T13:49:48.836Z</time></trkpt><trkpt lat="37.0188965" lon="15.0159356"><ele>462.0</ele><time>2026-04-18T13:49:52.836Z</time></trkpt><trkpt lat="37.0189098" lon="15.0160392"><ele>462.0</ele><time>2026-04-18T13:49:54.836Z</time></trkpt><trkpt lat="37.0189062" lon="15.0161335"><ele>462.0</ele><time>2026-04-18T13:49:56.836Z</time></trkpt><trkpt lat="37.0188926" lon="15.0162338"><ele>462.0</ele><time>2026-04-18T13:49:58.836Z</time></trkpt><trkpt lat="37.0188941" lon="15.0163215"><ele>462.0</ele><time>2026-04-18T13:50:00.838Z</time></trkpt><trkpt lat="37.018937" lon="15.0163892"><ele>462.0</ele><time>2026-04-18T13:50:02.836Z</time></trkpt><trkpt lat="37.0189947" lon="15.0164522"><ele>462.0</ele><time>2026-04-18T13:50:04.836Z</time></trkpt><trkpt lat="37.0190644" lon="15.0165157"><ele>462.0</ele><time>2026-04-18T13:50:06.836Z</time></trkpt><trkpt lat="37.0191215" lon="15.0166129"><ele>463.5</ele><time>2026-04-18T13:50:08.836Z</time></trkpt><trkpt lat="37.0191465" lon="15.0167099"><ele>465.0</ele><time>2026-04-18T13:50:10.838Z</time></trkpt><trkpt lat="37.0191597" lon="15.0168113"><ele>466.5</ele><time>2026-04-18T13:50:12.836Z</time></trkpt><trkpt lat="37.0191886" lon="15.0169026"><ele>468.0</ele><time>2026-04-18T13:50:14.837Z</time></trkpt><trkpt lat="37.0191963" lon="15.017008"><ele>469.5</ele><time>2026-04-18T13:50:16.837Z</time></trkpt><trkpt lat="37.019234" lon="15.017112"><ele>471.0</ele><time>2026-04-18T13:50:18.835Z</time></trkpt><trkpt lat="37.0192785" lon="15.0172184"><ele>472.1666666666667</ele><time>2026-04-18T13:50:20.835Z</time></trkpt><trkpt lat="37.0193297" lon="15.0173189"><ele>473.33333333333337</ele><time>2026-04-18T13:50:22.835Z</time></trkpt><trkpt lat="37.0193767" lon="15.0174315"><ele>474.5</ele><time>2026-04-18T13:50:24.835Z</time></trkpt><trkpt lat="37.0193993" lon="15.0175254"><ele>475.6666666666667</ele><time>2026-04-18T13:50:26.836Z</time></trkpt><trkpt lat="37.0194049" lon="15.0176336"><ele>476.83333333333337</ele><time>2026-04-18T13:50:28.836Z</time></trkpt><trkpt lat="37.0194037" lon="15.0177436"><ele>478.0</ele><time>2026-04-18T13:50:30.836Z</time></trkpt><trkpt lat="37.0194207" lon="15.0178383"><ele>479.1666666666667</ele><time>2026-04-18T13:50:32.835Z</time></trkpt><trkpt lat="37.0194553" lon="15.0179536"><ele>480.33333333333337</ele><time>2026-04-18T13:50:34.836Z</time></trkpt><trkpt lat="37.0194723" lon="15.0180383"><ele>481.5</ele><time>2026-04-18T13:50:36.836Z</time></trkpt><trkpt lat="37.0195035" lon="15.0181364"><ele>482.66666666666663</ele><time>2026-04-18T13:50:39.835Z</time></trkpt><trkpt lat="37.0195407" lon="15.018215"><ele>483.8333333333333</ele><time>2026-04-18T13:50:42.835Z</time></trkpt><trkpt lat="37.0195966" lon="15.018293"><ele>485.0</ele><time>2026-04-18T13:50:46.836Z</time></trkpt><trkpt lat="37.0196093" lon="15.0183886"><ele>486.49999999999994</ele><time>2026-04-18T13:50:49.836Z</time></trkpt><trkpt lat="37.0196147" lon="15.0184752"><ele>488.0</ele><time>2026-04-18T13:50:52.835Z</time></trkpt><trkpt lat="37.0196159" lon="15.0185775"><ele>489.5</ele><time>2026-04-18T13:50:55.835Z</time></trkpt><trkpt lat="37.0196769" lon="15.0186502"><ele>491.0</ele><time>2026-04-18T13:51:27.835Z</time></trkpt><trkpt lat="37.0197439" lon="15.0186912"><ele>492.49999999999994</ele><time>2026-04-18T13:51:31.836Z</time></trkpt><trkpt lat="37.0197913" lon="15.0187637"><ele>494.0</ele><time>2026-04-18T13:51:58.836Z</time></trkpt><trkpt lat="37.0197976" lon="15.0188465"><ele>493.99999999999994</ele><time>2026-04-18T13:52:01.836Z</time></trkpt><trkpt lat="37.0198415" lon="15.0189238"><ele>494.0</ele><time>2026-04-18T13:52:04.835Z</time></trkpt><trkpt lat="37.019847" lon="15.0190201"><ele>494.0</ele><time>2026-04-18T13:52:07.836Z</time></trkpt><trkpt lat="37.0198752" lon="15.0191087"><ele>494.0</ele><time>2026-04-18T13:52:10.836Z</time></trkpt><trkpt lat="37.0199062" lon="15.0192105"><ele>493.99999999999994</ele><time>2026-04-18T13:52:13.836Z</time></trkpt><trkpt lat="37.0199047" lon="15.0193105"><ele>494.0</ele><time>2026-04-18T13:52:15.836Z</time></trkpt><trkpt lat="37.0199294" lon="15.0194144"><ele>495.99999999999994</ele><time>2026-04-18T13:52:18.835Z</time></trkpt><trkpt lat="37.0199449" lon="15.0195004"><ele>498.0</ele><time>2026-04-18T13:52:21.836Z</time></trkpt><trkpt lat="37.0199666" lon="15.0195866"><ele>500.0</ele><time>2026-04-18T13:52:24.836Z</time></trkpt><trkpt lat="37.0200012" lon="15.0197159"><ele>502.0</ele><time>2026-04-18T13:52:27.836Z</time></trkpt><trkpt lat="37.0200471" lon="15.0198231"><ele>503.99999999999994</ele><time>2026-04-18T13:52:29.837Z</time></trkpt><trkpt lat="37.0200912" lon="15.0199254"><ele>506.0</ele><time>2026-04-18T13:52:31.836Z</time></trkpt><trkpt lat="37.0201311" lon="15.0200469"><ele>506.6</ele><time>2026-04-18T13:52:33.837Z</time></trkpt><trkpt lat="37.0201883" lon="15.0201545"><ele>507.20000000000005</ele><time>2026-04-18T13:52:35.836Z</time></trkpt><trkpt lat="37.0202341" lon="15.0202639"><ele>507.79999999999995</ele><time>2026-04-18T13:52:37.836Z</time></trkpt><trkpt lat="37.0202672" lon="15.0203436"><ele>508.4</ele><time>2026-04-18T13:52:38.836Z</time></trkpt><trkpt lat="37.0203267" lon="15.0204645"><ele>509.0</ele><time>2026-04-18T13:52:40.836Z</time></trkpt><trkpt lat="37.020362" lon="15.0205388"><ele>509.0</ele><time>2026-04-18T13:52:42.835Z</time></trkpt><trkpt lat="37.0203808" lon="15.0206413"><ele>509.0</ele><time>2026-04-18T13:56:46.835Z</time></trkpt><trkpt lat="37.0204304" lon="15.0207346"><ele>509.0</ele><time>2026-04-18T13:56:48.835Z</time></trkpt><trkpt lat="37.0204735" lon="15.0208531"><ele>509.0</ele><time>2026-04-18T13:56:50.834Z</time></trkpt><trkpt lat="37.0205044" lon="15.0209788"><ele>509.0</ele><time>2026-04-18T13:56:52.836Z</time></trkpt><trkpt lat="37.0205309" lon="15.0210993"><ele>508.2</ele><time>2026-04-18T13:56:54.835Z</time></trkpt><trkpt lat="37.0205652" lon="15.0212384"><ele>507.4</ele><time>2026-04-18T13:56:56.836Z</time></trkpt><trkpt lat="37.0205944" lon="15.0213958"><ele>506.6</ele><time>2026-04-18T13:56:58.835Z</time></trkpt><trkpt lat="37.0206161" lon="15.0215297"><ele>505.8</ele><time>2026-04-18T13:57:00.837Z</time></trkpt><trkpt lat="37.020626" lon="15.0216393"><ele>505.0</ele><time>2026-04-18T13:57:02.835Z</time></trkpt><trkpt lat="37.0206459" lon="15.0217415"><ele>504.6666666666667</ele><time>2026-04-18T13:57:04.835Z</time></trkpt><trkpt lat="37.0206584" lon="15.0218384"><ele>504.33333333333337</ele><time>2026-04-18T13:57:06.835Z</time></trkpt><trkpt lat="37.020678" lon="15.021929"><ele>504.0</ele><time>2026-04-18T13:57:08.836Z</time></trkpt><trkpt lat="37.0207" lon="15.0220245"><ele>503.66666666666663</ele><time>2026-04-18T13:57:10.835Z</time></trkpt><trkpt lat="37.0207404" lon="15.0221321"><ele>503.3333333333333</ele><time>2026-04-18T13:57:25.835Z</time></trkpt><trkpt lat="37.0207729" lon="15.0222356"><ele>503.0</ele><time>2026-04-18T13:57:27.835Z</time></trkpt><trkpt lat="37.0207959" lon="15.0223265"><ele>504.3333333333333</ele><time>2026-04-18T13:57:29.835Z</time></trkpt><trkpt lat="37.0208217" lon="15.0224031"><ele>505.66666666666663</ele><time>2026-04-18T13:57:31.834Z</time></trkpt><trkpt lat="37.0208465" lon="15.0225037"><ele>507.0</ele><time>2026-04-18T13:57:33.835Z</time></trkpt><trkpt lat="37.020884" lon="15.0226015"><ele>508.33333333333337</ele><time>2026-04-18T13:57:35.834Z</time></trkpt><trkpt lat="37.0209291" lon="15.0227039"><ele>509.6666666666667</ele><time>2026-04-18T13:57:37.835Z</time></trkpt><trkpt lat="37.0209804" lon="15.0228249"><ele>511.0</ele><time>2026-04-18T13:57:39.835Z</time></trkpt><trkpt lat="37.0210321" lon="15.0229435"><ele>511.50000000000006</ele><time>2026-04-18T13:57:41.835Z</time></trkpt><trkpt lat="37.0210796" lon="15.0230154"><ele>512.0</ele><time>2026-04-18T13:57:42.836Z</time></trkpt><trkpt lat="37.021143" lon="15.023141"><ele>512.5</ele><time>2026-04-18T13:57:44.835Z</time></trkpt><trkpt lat="37.0212006" lon="15.0232461"><ele>513.0</ele><time>2026-04-18T13:57:46.836Z</time></trkpt><trkpt lat="37.0212514" lon="15.0233093"><ele>513.5</ele><time>2026-04-18T13:57:48.836Z</time></trkpt><trkpt lat="37.0213132" lon="15.0233487"><ele>514.0</ele><time>2026-04-18T13:57:50.834Z</time></trkpt><trkpt lat="37.0213615" lon="15.0234113"><ele>514.0</ele><time>2026-04-18T13:57:52.834Z</time></trkpt><trkpt lat="37.0214089" lon="15.0234937"><ele>514.0</ele><time>2026-04-18T13:57:54.836Z</time></trkpt><trkpt lat="37.021462" lon="15.0235691"><ele>514.0</ele><time>2026-04-18T13:57:56.835Z</time></trkpt><trkpt lat="37.0215221" lon="15.0236356"><ele>514.0</ele><time>2026-04-18T13:57:58.836Z</time></trkpt><trkpt lat="37.0215864" lon="15.0236876"><ele>514.0</ele><time>2026-04-18T13:58:00.835Z</time></trkpt><trkpt lat="37.0216597" lon="15.0237367"><ele>514.0</ele><time>2026-04-18T13:58:02.837Z</time></trkpt><trkpt lat="37.0217238" lon="15.0237787"><ele>514.0</ele><time>2026-04-18T13:58:03.835Z</time></trkpt><trkpt lat="37.0217866" lon="15.0238289"><ele>514.0</ele><time>2026-04-18T13:58:04.836Z</time></trkpt><trkpt lat="37.0218965" lon="15.0238911"><ele>514.0</ele><time>2026-04-18T13:58:05.836Z</time></trkpt><trkpt lat="37.0219783" lon="15.0239503"><ele>514.0</ele><time>2026-04-18T13:58:06.834Z</time></trkpt><trkpt lat="37.0220532" lon="15.0240019"><ele>514.0</ele><time>2026-04-18T13:58:07.836Z</time></trkpt><trkpt lat="37.0221199" lon="15.0240547"><ele>514.0</ele><time>2026-04-18T13:58:08.836Z</time></trkpt><trkpt lat="37.0221663" lon="15.0241103"><ele>514.0</ele><time>2026-04-18T13:58:09.835Z</time></trkpt><trkpt lat="37.0222136" lon="15.0241628"><ele>514.0</ele><time>2026-04-18T13:58:10.835Z</time></trkpt><trkpt lat="37.022274" lon="15.0242571"><ele>514.0</ele><time>2026-04-18T13:58:12.835Z</time></trkpt><trkpt lat="37.0223436" lon="15.0243792"><ele>514.0</ele><time>2026-04-18T13:58:14.835Z</time></trkpt><trkpt lat="37.0223815" lon="15.0244657"><ele>514.0</ele><time>2026-04-18T13:58:15.835Z</time></trkpt><trkpt lat="37.0224179" lon="15.0245632"><ele>513.5</ele><time>2026-04-18T13:58:16.834Z</time></trkpt><trkpt lat="37.02245" lon="15.0246623"><ele>513.0</ele><time>2026-04-18T13:58:17.836Z</time></trkpt><trkpt lat="37.0224819" lon="15.0247599"><ele>512.5</ele><time>2026-04-18T13:58:18.836Z</time></trkpt><trkpt lat="37.0225088" lon="15.0248635"><ele>512.0</ele><time>2026-04-18T13:58:19.836Z</time></trkpt><trkpt lat="37.0225275" lon="15.0249562"><ele>511.50000000000006</ele><time>2026-04-18T13:58:20.836Z</time></trkpt><trkpt lat="37.0225415" lon="15.0250338"><ele>511.0</ele><time>2026-04-18T13:58:21.835Z</time></trkpt><trkpt lat="37.0225282" lon="15.025191"><ele>511.00000000000006</ele><time>2026-04-18T13:58:23.834Z</time></trkpt><trkpt lat="37.0225284" lon="15.0252715"><ele>511.0</ele><time>2026-04-18T13:58:24.835Z</time></trkpt><trkpt lat="37.0225522" lon="15.0254192"><ele>511.0</ele><time>2026-04-18T13:58:26.834Z</time></trkpt><trkpt lat="37.0225803" lon="15.0254987"><ele>511.0</ele><time>2026-04-18T13:58:27.835Z</time></trkpt><trkpt lat="37.022615" lon="15.025581"><ele>511.00000000000006</ele><time>2026-04-18T13:58:28.835Z</time></trkpt><trkpt lat="37.0226528" lon="15.0256625"><ele>511.0</ele><time>2026-04-18T13:58:29.835Z</time></trkpt><trkpt lat="37.0226874" lon="15.0257521"><ele>510.8</ele><time>2026-04-18T13:58:30.834Z</time></trkpt><trkpt lat="37.0227323" lon="15.0258371"><ele>510.6</ele><time>2026-04-18T13:58:31.835Z</time></trkpt><trkpt lat="37.0227825" lon="15.0259316"><ele>510.4</ele><time>2026-04-18T13:58:32.836Z</time></trkpt><trkpt lat="37.0228427" lon="15.0260504"><ele>510.2</ele><time>2026-04-18T13:58:33.835Z</time></trkpt><trkpt lat="37.0228993" lon="15.0261749"><ele>510.0</ele><time>2026-04-18T13:58:34.835Z</time></trkpt><trkpt lat="37.022946" lon="15.0263171"><ele>510.0</ele><time>2026-04-18T13:58:35.835Z</time></trkpt><trkpt lat="37.0229876" lon="15.0264322"><ele>510.0</ele><time>2026-04-18T13:58:36.835Z</time></trkpt><trkpt lat="37.0230332" lon="15.0265419"><ele>510.0</ele><time>2026-04-18T13:58:37.834Z</time></trkpt><trkpt lat="37.023076" lon="15.0266444"><ele>510.0</ele><time>2026-04-18T13:58:38.834Z</time></trkpt><trkpt lat="37.0231044" lon="15.0267395"><ele>510.0</ele><time>2026-04-18T13:58:39.835Z</time></trkpt><trkpt lat="37.0231326" lon="15.0268319"><ele>510.4</ele><time>2026-04-18T13:58:40.836Z</time></trkpt><trkpt lat="37.0231657" lon="15.026937"><ele>510.8</ele><time>2026-04-18T13:58:41.835Z</time></trkpt><trkpt lat="37.0232007" lon="15.0270448"><ele>511.20000000000005</ele><time>2026-04-18T13:58:42.835Z</time></trkpt><trkpt lat="37.0232304" lon="15.0271477"><ele>511.6</ele><time>2026-04-18T13:58:43.835Z</time></trkpt><trkpt lat="37.0232699" lon="15.0272477"><ele>512.0</ele><time>2026-04-18T13:58:44.836Z</time></trkpt><trkpt lat="37.0233282" lon="15.0273387"><ele>512.0</ele><time>2026-04-18T13:58:45.835Z</time></trkpt><trkpt lat="37.0233889" lon="15.0274251"><ele>512.0</ele><time>2026-04-18T13:58:46.835Z</time></trkpt><trkpt lat="37.0234512" lon="15.0275209"><ele>512.0</ele><time>2026-04-18T13:58:47.837Z</time></trkpt><trkpt lat="37.023517" lon="15.0276133"><ele>512.0</ele><time>2026-04-18T13:58:48.836Z</time></trkpt><trkpt lat="37.0235814" lon="15.0277297"><ele>512.0</ele><time>2026-04-18T13:58:49.834Z</time></trkpt><trkpt lat="37.0236499" lon="15.0278501"><ele>511.0</ele><time>2026-04-18T13:58:50.835Z</time></trkpt><trkpt lat="37.0237174" lon="15.0279906"><ele>510.0</ele><time>2026-04-18T13:58:51.834Z</time></trkpt><trkpt lat="37.023774" lon="15.0281259"><ele>509.0</ele><time>2026-04-18T13:58:52.834Z</time></trkpt><trkpt lat="37.0238213" lon="15.0282575"><ele>508.0</ele><time>2026-04-18T13:58:53.834Z</time></trkpt><trkpt lat="37.0238669" lon="15.0283772"><ele>507.0</ele><time>2026-04-18T13:58:54.834Z</time></trkpt><trkpt lat="37.023911" lon="15.0284909"><ele>505.99999999999994</ele><time>2026-04-18T13:58:55.835Z</time></trkpt><trkpt lat="37.0239546" lon="15.0285908"><ele>504.99999999999994</ele><time>2026-04-18T13:58:56.835Z</time></trkpt><trkpt lat="37.0239944" lon="15.0287056"><ele>504.0</ele><time>2026-04-18T13:58:57.836Z</time></trkpt><trkpt lat="37.0240295" lon="15.0288102"><ele>503.0</ele><time>2026-04-18T13:58:58.834Z</time></trkpt><trkpt lat="37.024074" lon="15.0289064"><ele>502.99999999999994</ele><time>2026-04-18T13:58:59.835Z</time></trkpt><trkpt lat="37.0241194" lon="15.0289993"><ele>503.0</ele><time>2026-04-18T13:59:00.836Z</time></trkpt><trkpt lat="37.0241657" lon="15.0290721"><ele>503.0</ele><time>2026-04-18T13:59:01.835Z</time></trkpt><trkpt lat="37.0242281" lon="15.0291644"><ele>503.0</ele><time>2026-04-18T13:59:03.835Z</time></trkpt><trkpt lat="37.0242701" lon="15.0292251"><ele>502.99999999999994</ele><time>2026-04-18T13:59:05.835Z</time></trkpt><trkpt lat="37.0243208" lon="15.0293083"><ele>503.0</ele><time>2026-04-18T13:59:07.834Z</time></trkpt><trkpt lat="37.0243741" lon="15.0294028"><ele>502.99999999999994</ele><time>2026-04-18T13:59:09.835Z</time></trkpt><trkpt lat="37.0244366" lon="15.029536"><ele>503.0</ele><time>2026-04-18T13:59:11.836Z</time></trkpt><trkpt lat="37.0244671" lon="15.0296115"><ele>503.0</ele><time>2026-04-18T13:59:12.835Z</time></trkpt><trkpt lat="37.0244993" lon="15.0296837"><ele>503.0</ele><time>2026-04-18T13:59:13.835Z</time></trkpt><trkpt lat="37.024537" lon="15.029778"><ele>502.99999999999994</ele><time>2026-04-18T13:59:14.836Z</time></trkpt><trkpt lat="37.0245689" lon="15.02987"><ele>503.0</ele><time>2026-04-18T13:59:15.834Z</time></trkpt><trkpt lat="37.0245967" lon="15.0299479"><ele>502.8333333333333</ele><time>2026-04-18T13:59:16.835Z</time></trkpt><trkpt lat="37.0246273" lon="15.0300328"><ele>502.66666666666663</ele><time>2026-04-18T13:59:17.835Z</time></trkpt><trkpt lat="37.0246737" lon="15.030168"><ele>502.5</ele><time>2026-04-18T13:59:19.836Z</time></trkpt><trkpt lat="37.0247092" lon="15.0302364"><ele>502.33333333333337</ele><time>2026-04-18T13:59:20.835Z</time></trkpt><trkpt lat="37.0247382" lon="15.0303151"><ele>502.1666666666667</ele><time>2026-04-18T13:59:21.835Z</time></trkpt><trkpt lat="37.024761" lon="15.0303965"><ele>502.0</ele><time>2026-04-18T13:59:22.835Z</time></trkpt><trkpt lat="37.0247925" lon="15.0304684"><ele>502.0</ele><time>2026-04-18T13:59:23.836Z</time></trkpt><trkpt lat="37.024857" lon="15.0305957"><ele>502.00000000000006</ele><time>2026-04-18T13:59:25.837Z</time></trkpt><trkpt lat="37.0249038" lon="15.030716"><ele>502.00000000000006</ele><time>2026-04-18T13:59:27.834Z</time></trkpt><trkpt lat="37.0249265" lon="15.0308035"><ele>502.0</ele><time>2026-04-18T13:59:29.836Z</time></trkpt><trkpt lat="37.0250189" lon="15.0308555"><ele>502.0</ele><time>2026-04-18T13:59:33.835Z</time></trkpt><trkpt lat="37.0251341" lon="15.0308266"><ele>501.8</ele><time>2026-04-18T13:59:35.834Z</time></trkpt><trkpt lat="37.0252011" lon="15.0308007"><ele>501.6</ele><time>2026-04-18T13:59:36.834Z</time></trkpt><trkpt lat="37.0252719" lon="15.0307786"><ele>501.40000000000003</ele><time>2026-04-18T13:59:37.835Z</time></trkpt><trkpt lat="37.0253725" lon="15.0307556"><ele>501.20000000000005</ele><time>2026-04-18T13:59:39.835Z</time></trkpt><trkpt lat="37.0254819" lon="15.0307298"><ele>501.0</ele><time>2026-04-18T13:59:41.835Z</time></trkpt><trkpt lat="37.0256127" lon="15.0306999"><ele>501.0</ele><time>2026-04-18T13:59:43.835Z</time></trkpt><trkpt lat="37.0256829" lon="15.0306766"><ele>501.0</ele><time>2026-04-18T13:59:44.835Z</time></trkpt><trkpt lat="37.0257571" lon="15.0306486"><ele>501.0</ele><time>2026-04-18T13:59:45.835Z</time></trkpt><trkpt lat="37.0258313" lon="15.0306202"><ele>501.0</ele><time>2026-04-18T13:59:46.834Z</time></trkpt><trkpt lat="37.0259086" lon="15.0305945"><ele>501.0</ele><time>2026-04-18T13:59:47.835Z</time></trkpt><trkpt lat="37.0259825" lon="15.0305681"><ele>501.0</ele><time>2026-04-18T13:59:48.835Z</time></trkpt><trkpt lat="37.0260511" lon="15.0305435"><ele>500.5</ele><time>2026-04-18T13:59:49.835Z</time></trkpt><trkpt lat="37.0261128" lon="15.0305257"><ele>500.0</ele><time>2026-04-18T13:59:50.834Z</time></trkpt><trkpt lat="37.0262306" lon="15.0304904"><ele>499.5</ele><time>2026-04-18T13:59:52.835Z</time></trkpt><trkpt lat="37.0263481" lon="15.0304555"><ele>499.0</ele><time>2026-04-18T13:59:54.835Z</time></trkpt><trkpt lat="37.0265148" lon="15.0304643"><ele>499.00000000000006</ele><time>2026-04-18T13:59:56.836Z</time></trkpt><trkpt lat="37.0265805" lon="15.0304605"><ele>499.0</ele><time>2026-04-18T13:59:57.835Z</time></trkpt><trkpt lat="37.0266502" lon="15.030458"><ele>499.0</ele><time>2026-04-18T13:59:58.835Z</time></trkpt><trkpt lat="37.0267679" lon="15.0304615"><ele>499.0</ele><time>2026-04-18T14:00:00.835Z</time></trkpt><trkpt lat="37.0268398" lon="15.0304713"><ele>499.00000000000006</ele><time>2026-04-18T14:00:01.835Z</time></trkpt><trkpt lat="37.0269136" lon="15.0304757"><ele>499.0</ele><time>2026-04-18T14:00:02.835Z</time></trkpt><trkpt lat="37.0269946" lon="15.0304835"><ele>498.33333333333337</ele><time>2026-04-18T14:00:03.836Z</time></trkpt><trkpt lat="37.0270799" lon="15.0305032"><ele>497.6666666666667</ele><time>2026-04-18T14:00:04.835Z</time></trkpt><trkpt lat="37.0271672" lon="15.0305061"><ele>497.0</ele><time>2026-04-18T14:00:05.835Z</time></trkpt><trkpt lat="37.0272444" lon="15.0305138"><ele>496.33333333333337</ele><time>2026-04-18T14:00:06.835Z</time></trkpt><trkpt lat="37.0273247" lon="15.0305278"><ele>495.6666666666667</ele><time>2026-04-18T14:00:07.834Z</time></trkpt><trkpt lat="37.0273913" lon="15.0305407"><ele>495.0</ele><time>2026-04-18T14:00:08.835Z</time></trkpt><trkpt lat="37.027454" lon="15.0305495"><ele>494.6666666666667</ele><time>2026-04-18T14:00:09.834Z</time></trkpt><trkpt lat="37.0275606" lon="15.0305639"><ele>494.33333333333337</ele><time>2026-04-18T14:00:11.835Z</time></trkpt><trkpt lat="37.027655" lon="15.0305768"><ele>494.0</ele><time>2026-04-18T14:00:13.834Z</time></trkpt><trkpt lat="37.0277262" lon="15.0305967"><ele>493.6666666666667</ele><time>2026-04-18T14:00:15.835Z</time></trkpt><trkpt lat="37.0277726" lon="15.0307191"><ele>493.33333333333337</ele><time>2026-04-18T14:00:17.836Z</time></trkpt><trkpt lat="37.0277989" lon="15.0307947"><ele>493.0</ele><time>2026-04-18T14:00:18.835Z</time></trkpt><trkpt lat="37.0278175" lon="15.0308951"><ele>493.00000000000006</ele><time>2026-04-18T14:00:19.834Z</time></trkpt><trkpt lat="37.0278367" lon="15.031003"><ele>493.0</ele><time>2026-04-18T14:00:20.834Z</time></trkpt><trkpt lat="37.0278543" lon="15.0311067"><ele>493.0</ele><time>2026-04-18T14:00:21.835Z</time></trkpt><trkpt lat="37.0278659" lon="15.0312052"><ele>493.0</ele><time>2026-04-18T14:00:22.835Z</time></trkpt><trkpt lat="37.0278647" lon="15.0312964"><ele>493.00000000000006</ele><time>2026-04-18T14:00:23.835Z</time></trkpt><trkpt lat="37.0278598" lon="15.0313982"><ele>493.0</ele><time>2026-04-18T14:00:24.834Z</time></trkpt><trkpt lat="37.0278559" lon="15.0314992"><ele>493.0</ele><time>2026-04-18T14:00:25.835Z</time></trkpt><trkpt lat="37.0278498" lon="15.0316017"><ele>493.0</ele><time>2026-04-18T14:00:26.834Z</time></trkpt><trkpt lat="37.0278483" lon="15.0317013"><ele>493.0</ele><time>2026-04-18T14:00:27.835Z</time></trkpt><trkpt lat="37.0278403" lon="15.0317922"><ele>493.0</ele><time>2026-04-18T14:00:28.835Z</time></trkpt><trkpt lat="37.027833" lon="15.031881"><ele>493.0</ele><time>2026-04-18T14:00:29.834Z</time></trkpt><trkpt lat="37.0278133" lon="15.0319613"><ele>493.0</ele><time>2026-04-18T14:00:30.835Z</time></trkpt><trkpt lat="37.0278064" lon="15.0320525"><ele>493.0</ele><time>2026-04-18T14:00:31.836Z</time></trkpt><trkpt lat="37.027815" lon="15.0321474"><ele>492.83333333333337</ele><time>2026-04-18T14:00:32.834Z</time></trkpt><trkpt lat="37.0278353" lon="15.0322318"><ele>492.6666666666667</ele><time>2026-04-18T14:00:33.835Z</time></trkpt><trkpt lat="37.0278645" lon="15.0323123"><ele>492.5</ele><time>2026-04-18T14:00:34.835Z</time></trkpt><trkpt lat="37.0279038" lon="15.0323954"><ele>492.33333333333337</ele><time>2026-04-18T14:00:35.835Z</time></trkpt><trkpt lat="37.0279345" lon="15.0324911"><ele>492.1666666666667</ele><time>2026-04-18T14:00:36.836Z</time></trkpt><trkpt lat="37.0279643" lon="15.0325949"><ele>492.0</ele><time>2026-04-18T14:00:37.835Z</time></trkpt><trkpt lat="37.0279918" lon="15.0326992"><ele>490.6666666666667</ele><time>2026-04-18T14:00:38.836Z</time></trkpt><trkpt lat="37.0280215" lon="15.032794"><ele>489.33333333333337</ele><time>2026-04-18T14:00:39.835Z</time></trkpt><trkpt lat="37.0280465" lon="15.0328838"><ele>488.0</ele><time>2026-04-18T14:00:40.836Z</time></trkpt><trkpt lat="37.0280674" lon="15.0329644"><ele>486.6666666666667</ele><time>2026-04-18T14:00:41.835Z</time></trkpt><trkpt lat="37.0280728" lon="15.033083"><ele>485.33333333333337</ele><time>2026-04-18T14:00:43.836Z</time></trkpt><trkpt lat="37.028103" lon="15.0331587"><ele>484.0</ele><time>2026-04-18T14:05:22.833Z</time></trkpt><trkpt lat="37.0280996" lon="15.0332641"><ele>483.33333333333337</ele><time>2026-04-18T14:05:24.834Z</time></trkpt><trkpt lat="37.0280935" lon="15.0334191"><ele>482.6666666666667</ele><time>2026-04-18T14:05:26.835Z</time></trkpt><trkpt lat="37.0280872" lon="15.0335118"><ele>482.0</ele><time>2026-04-18T14:05:27.834Z</time></trkpt><trkpt lat="37.0280817" lon="15.0336021"><ele>481.33333333333337</ele><time>2026-04-18T14:05:28.835Z</time></trkpt><trkpt lat="37.0280763" lon="15.0336923"><ele>480.6666666666667</ele><time>2026-04-18T14:05:29.835Z</time></trkpt><trkpt lat="37.0280588" lon="15.0337813"><ele>480.0</ele><time>2026-04-18T14:05:30.834Z</time></trkpt><trkpt lat="37.02804" lon="15.0338712"><ele>480.0</ele><time>2026-04-18T14:05:31.834Z</time></trkpt><trkpt lat="37.0280083" lon="15.033962"><ele>480.0</ele><time>2026-04-18T14:05:32.835Z</time></trkpt><trkpt lat="37.0279639" lon="15.0340659"><ele>480.0</ele><time>2026-04-18T14:05:33.834Z</time></trkpt><trkpt lat="37.0279125" lon="15.0341759"><ele>480.0</ele><time>2026-04-18T14:05:34.835Z</time></trkpt><trkpt lat="37.0278647" lon="15.0342801"><ele>480.0</ele><time>2026-04-18T14:05:35.835Z</time></trkpt><trkpt lat="37.027831" lon="15.0343832"><ele>480.4</ele><time>2026-04-18T14:05:36.833Z</time></trkpt><trkpt lat="37.0277881" lon="15.0344917"><ele>480.8</ele><time>2026-04-18T14:05:37.835Z</time></trkpt><trkpt lat="37.0277485" lon="15.0345994"><ele>481.20000000000005</ele><time>2026-04-18T14:05:38.834Z</time></trkpt><trkpt lat="37.0277073" lon="15.0347022"><ele>481.6</ele><time>2026-04-18T14:05:39.835Z</time></trkpt><trkpt lat="37.0276796" lon="15.0348138"><ele>482.0</ele><time>2026-04-18T14:05:40.834Z</time></trkpt><trkpt lat="37.0276525" lon="15.0349123"><ele>482.6</ele><time>2026-04-18T14:05:41.835Z</time></trkpt><trkpt lat="37.0276215" lon="15.0350164"><ele>483.20000000000005</ele><time>2026-04-18T14:05:42.833Z</time></trkpt><trkpt lat="37.0275873" lon="15.0351174"><ele>483.8</ele><time>2026-04-18T14:05:43.835Z</time></trkpt><trkpt lat="37.0275479" lon="15.0352205"><ele>484.4</ele><time>2026-04-18T14:05:44.836Z</time></trkpt><trkpt lat="37.0274996" lon="15.0353205"><ele>485.0</ele><time>2026-04-18T14:05:45.836Z</time></trkpt><trkpt lat="37.0274523" lon="15.0354178"><ele>483.99999999999994</ele><time>2026-04-18T14:05:46.834Z</time></trkpt><trkpt lat="37.0274135" lon="15.0355183"><ele>483.0</ele><time>2026-04-18T14:05:47.835Z</time></trkpt><trkpt lat="37.0273735" lon="15.0356118"><ele>482.0</ele><time>2026-04-18T14:05:48.836Z</time></trkpt><trkpt lat="37.027333" lon="15.0357137"><ele>481.0</ele><time>2026-04-18T14:05:49.836Z</time></trkpt><trkpt lat="37.0273" lon="15.0358162"><ele>479.99999999999994</ele><time>2026-04-18T14:05:50.833Z</time></trkpt><trkpt lat="37.0272676" lon="15.0359127"><ele>479.0</ele><time>2026-04-18T14:05:51.835Z</time></trkpt><trkpt lat="37.0272473" lon="15.0360244"><ele>479.0</ele><time>2026-04-18T14:05:52.834Z</time></trkpt><trkpt lat="37.0272336" lon="15.0361419"><ele>479.0</ele><time>2026-04-18T14:05:53.836Z</time></trkpt><trkpt lat="37.0272177" lon="15.0362585"><ele>479.0</ele><time>2026-04-18T14:05:54.833Z</time></trkpt><trkpt lat="37.0272093" lon="15.0363796"><ele>479.0</ele><time>2026-04-18T14:05:55.834Z</time></trkpt><trkpt lat="37.0271969" lon="15.0364999"><ele>479.0</ele><time>2026-04-18T14:05:56.835Z</time></trkpt><trkpt lat="37.0271901" lon="15.0366112"><ele>479.99999999999994</ele><time>2026-04-18T14:05:57.834Z</time></trkpt><trkpt lat="37.0271962" lon="15.0367195"><ele>481.0</ele><time>2026-04-18T14:05:58.834Z</time></trkpt><trkpt lat="37.0271982" lon="15.0368202"><ele>482.0</ele><time>2026-04-18T14:05:59.835Z</time></trkpt><trkpt lat="37.0271915" lon="15.0369267"><ele>483.0</ele><time>2026-04-18T14:06:00.835Z</time></trkpt><trkpt lat="37.0271925" lon="15.0370344"><ele>483.99999999999994</ele><time>2026-04-18T14:06:01.834Z</time></trkpt><trkpt lat="37.0271961" lon="15.0371404"><ele>485.0</ele><time>2026-04-18T14:06:02.835Z</time></trkpt><trkpt lat="37.0272027" lon="15.0372439"><ele>484.99999999999994</ele><time>2026-04-18T14:06:03.835Z</time></trkpt><trkpt lat="37.0272158" lon="15.037345"><ele>485.0</ele><time>2026-04-18T14:06:04.835Z</time></trkpt><trkpt lat="37.0272521" lon="15.0374426"><ele>485.0</ele><time>2026-04-18T14:06:05.835Z</time></trkpt><trkpt lat="37.0272848" lon="15.0375324"><ele>485.0</ele><time>2026-04-18T14:06:06.834Z</time></trkpt><trkpt lat="37.0273261" lon="15.0376114"><ele>484.99999999999994</ele><time>2026-04-18T14:06:07.835Z</time></trkpt><trkpt lat="37.0273702" lon="15.0376851"><ele>485.0</ele><time>2026-04-18T14:06:08.835Z</time></trkpt><trkpt lat="37.0274223" lon="15.0377531"><ele>487.3333333333333</ele><time>2026-04-18T14:06:09.836Z</time></trkpt><trkpt lat="37.0274795" lon="15.0378045"><ele>489.66666666666663</ele><time>2026-04-18T14:06:10.835Z</time></trkpt><trkpt lat="37.0275178" lon="15.03787"><ele>492.0</ele><time>2026-04-18T14:06:11.835Z</time></trkpt><trkpt lat="37.0275706" lon="15.0379989"><ele>494.33333333333337</ele><time>2026-04-18T14:06:13.835Z</time></trkpt><trkpt lat="37.0275823" lon="15.0380805"><ele>496.6666666666667</ele><time>2026-04-18T14:06:14.835Z</time></trkpt><trkpt lat="37.0275865" lon="15.0381776"><ele>499.0</ele><time>2026-04-18T14:06:15.835Z</time></trkpt><trkpt lat="37.0275893" lon="15.0382756"><ele>498.33333333333337</ele><time>2026-04-18T14:06:16.836Z</time></trkpt><trkpt lat="37.0275923" lon="15.0383869"><ele>497.6666666666667</ele><time>2026-04-18T14:06:17.834Z</time></trkpt><trkpt lat="37.0275972" lon="15.0384877"><ele>497.0</ele><time>2026-04-18T14:06:18.835Z</time></trkpt><trkpt lat="37.0276025" lon="15.0386123"><ele>496.33333333333337</ele><time>2026-04-18T14:06:19.835Z</time></trkpt><trkpt lat="37.0276116" lon="15.0387269"><ele>495.6666666666667</ele><time>2026-04-18T14:06:20.834Z</time></trkpt><trkpt lat="37.0276186" lon="15.0388317"><ele>495.0</ele><time>2026-04-18T14:06:21.835Z</time></trkpt><trkpt lat="37.0276225" lon="15.0389409"><ele>495.0</ele><time>2026-04-18T14:06:22.834Z</time></trkpt><trkpt lat="37.0276223" lon="15.0390434"><ele>495.0</ele><time>2026-04-18T14:06:23.835Z</time></trkpt><trkpt lat="37.0276181" lon="15.0391346"><ele>495.0</ele><time>2026-04-18T14:06:24.835Z</time></trkpt><trkpt lat="37.0275936" lon="15.0392754"><ele>495.0</ele><time>2026-04-18T14:06:26.835Z</time></trkpt><trkpt lat="37.0275459" lon="15.0393575"><ele>495.0</ele><time>2026-04-18T14:06:28.835Z</time></trkpt><trkpt lat="37.0274615" lon="15.039451"><ele>493.6</ele><time>2026-04-18T14:06:30.835Z</time></trkpt><trkpt lat="37.0273577" lon="15.0395481"><ele>492.2</ele><time>2026-04-18T14:06:32.834Z</time></trkpt><trkpt lat="37.0272656" lon="15.0396354"><ele>490.79999999999995</ele><time>2026-04-18T14:06:34.835Z</time></trkpt><trkpt lat="37.0271937" lon="15.0397064"><ele>489.4</ele><time>2026-04-18T14:06:36.834Z</time></trkpt><trkpt lat="37.0271465" lon="15.0397694"><ele>488.0</ele><time>2026-04-18T14:06:38.839Z</time></trkpt><trkpt lat="37.0271304" lon="15.0398534"><ele>488.0</ele><time>2026-04-18T14:06:43.835Z</time></trkpt><trkpt lat="37.0272002" lon="15.0399315"><ele>487.99999999999994</ele><time>2026-04-18T14:06:46.835Z</time></trkpt><trkpt lat="37.0273107" lon="15.0400017"><ele>487.99999999999994</ele><time>2026-04-18T14:06:48.835Z</time></trkpt><trkpt lat="37.0274283" lon="15.0400602"><ele>488.0</ele><time>2026-04-18T14:06:50.833Z</time></trkpt><trkpt lat="37.0275082" lon="15.0400979"><ele>488.0</ele><time>2026-04-18T14:06:51.835Z</time></trkpt><trkpt lat="37.0275928" lon="15.0401426"><ele>488.0</ele><time>2026-04-18T14:06:52.835Z</time></trkpt><trkpt lat="37.0276748" lon="15.0401772"><ele>487.99999999999994</ele><time>2026-04-18T14:06:53.835Z</time></trkpt><trkpt lat="37.0277595" lon="15.0402142"><ele>487.99999999999994</ele><time>2026-04-18T14:06:54.835Z</time></trkpt><trkpt lat="37.0278465" lon="15.0402528"><ele>488.0</ele><time>2026-04-18T14:06:55.835Z</time></trkpt><trkpt lat="37.0279411" lon="15.0403021"><ele>488.0</ele><time>2026-04-18T14:06:56.834Z</time></trkpt><trkpt lat="37.0280304" lon="15.0403517"><ele>488.0</ele><time>2026-04-18T14:06:57.835Z</time></trkpt><trkpt lat="37.028118" lon="15.0404044"><ele>487.99999999999994</ele><time>2026-04-18T14:06:58.834Z</time></trkpt><trkpt lat="37.028213" lon="15.0404608"><ele>487.99999999999994</ele><time>2026-04-18T14:06:59.834Z</time></trkpt><trkpt lat="37.0283018" lon="15.0405146"><ele>488.0</ele><time>2026-04-18T14:07:00.836Z</time></trkpt><trkpt lat="37.0283897" lon="15.0405769"><ele>488.0</ele><time>2026-04-18T14:07:01.835Z</time></trkpt><trkpt lat="37.0284726" lon="15.040639"><ele>487.79999999999995</ele><time>2026-04-18T14:07:02.834Z</time></trkpt><trkpt lat="37.0285557" lon="15.0407032"><ele>487.59999999999997</ele><time>2026-04-18T14:07:03.835Z</time></trkpt><trkpt lat="37.0286416" lon="15.0407754"><ele>487.40000000000003</ele><time>2026-04-18T14:07:04.835Z</time></trkpt><trkpt lat="37.0287354" lon="15.0408789"><ele>487.20000000000005</ele><time>2026-04-18T14:07:05.835Z</time></trkpt><trkpt lat="37.028812" lon="15.0409512"><ele>487.0</ele><time>2026-04-18T14:07:06.833Z</time></trkpt><trkpt lat="37.0288986" lon="15.0410403"><ele>487.0</ele><time>2026-04-18T14:07:07.834Z</time></trkpt><trkpt lat="37.0289735" lon="15.0411215"><ele>487.00000000000006</ele><time>2026-04-18T14:07:08.835Z</time></trkpt><trkpt lat="37.0290444" lon="15.0412046"><ele>487.00000000000006</ele><time>2026-04-18T14:07:09.835Z</time></trkpt><trkpt lat="37.0291147" lon="15.0412892"><ele>487.0</ele><time>2026-04-18T14:07:10.835Z</time></trkpt><trkpt lat="37.029185" lon="15.0413869"><ele>487.0</ele><time>2026-04-18T14:07:11.834Z</time></trkpt><trkpt lat="37.0292479" lon="15.0414862"><ele>485.6</ele><time>2026-04-18T14:07:12.833Z</time></trkpt><trkpt lat="37.0293145" lon="15.0415878"><ele>484.20000000000005</ele><time>2026-04-18T14:07:13.834Z</time></trkpt><trkpt lat="37.0293801" lon="15.0416902"><ele>482.8</ele><time>2026-04-18T14:07:14.835Z</time></trkpt><trkpt lat="37.0294538" lon="15.0417825"><ele>481.4</ele><time>2026-04-18T14:07:15.833Z</time></trkpt><trkpt lat="37.0295066" lon="15.0418639"><ele>480.0</ele><time>2026-04-18T14:07:16.835Z</time></trkpt><trkpt lat="37.0295525" lon="15.041937"><ele>480.0</ele><time>2026-04-18T14:07:17.835Z</time></trkpt><trkpt lat="37.0295833" lon="15.0420067"><ele>480.0</ele><time>2026-04-18T14:07:18.834Z</time></trkpt><trkpt lat="37.029597" lon="15.0420858"><ele>480.0</ele><time>2026-04-18T14:07:19.835Z</time></trkpt><trkpt lat="37.0296019" lon="15.042171"><ele>480.0</ele><time>2026-04-18T14:07:20.835Z</time></trkpt><trkpt lat="37.0295988" lon="15.0422665"><ele>480.0</ele><time>2026-04-18T14:07:21.835Z</time></trkpt><trkpt lat="37.0295975" lon="15.042371"><ele>480.0</ele><time>2026-04-18T14:07:22.833Z</time></trkpt><trkpt lat="37.029591" lon="15.0424884"><ele>480.4</ele><time>2026-04-18T14:07:23.834Z</time></trkpt><trkpt lat="37.0295849" lon="15.0425977"><ele>480.8</ele><time>2026-04-18T14:07:24.834Z</time></trkpt><trkpt lat="37.0295815" lon="15.042714"><ele>481.20000000000005</ele><time>2026-04-18T14:07:25.835Z</time></trkpt><trkpt lat="37.0295758" lon="15.0428323"><ele>481.6</ele><time>2026-04-18T14:07:26.834Z</time></trkpt><trkpt lat="37.029572" lon="15.0429539"><ele>482.0</ele><time>2026-04-18T14:07:27.834Z</time></trkpt><trkpt lat="37.0295669" lon="15.0430852"><ele>482.0</ele><time>2026-04-18T14:07:28.835Z</time></trkpt><trkpt lat="37.0295603" lon="15.0432171"><ele>482.00000000000006</ele><time>2026-04-18T14:07:29.834Z</time></trkpt><trkpt lat="37.029559" lon="15.0433488"><ele>482.00000000000006</ele><time>2026-04-18T14:07:30.833Z</time></trkpt><trkpt lat="37.0295545" lon="15.0434789"><ele>482.0</ele><time>2026-04-18T14:07:31.834Z</time></trkpt><trkpt lat="37.0295655" lon="15.0436128"><ele>482.0</ele><time>2026-04-18T14:07:32.835Z</time></trkpt><trkpt lat="37.0295925" lon="15.0437441"><ele>481.40000000000003</ele><time>2026-04-18T14:07:33.835Z</time></trkpt><trkpt lat="37.0296362" lon="15.0438682"><ele>480.80000000000007</ele><time>2026-04-18T14:07:34.835Z</time></trkpt><trkpt lat="37.0296898" lon="15.0439849"><ele>480.2</ele><time>2026-04-18T14:07:35.835Z</time></trkpt><trkpt lat="37.0297626" lon="15.0440858"><ele>479.6</ele><time>2026-04-18T14:07:36.835Z</time></trkpt><trkpt lat="37.0298411" lon="15.044176"><ele>479.0</ele><time>2026-04-18T14:07:37.834Z</time></trkpt><trkpt lat="37.0299183" lon="15.0442723"><ele>475.6</ele><time>2026-04-18T14:07:38.835Z</time></trkpt><trkpt lat="37.0299992" lon="15.0443617"><ele>472.2</ele><time>2026-04-18T14:07:39.834Z</time></trkpt><trkpt lat="37.0300775" lon="15.0444552"><ele>468.80000000000007</ele><time>2026-04-18T14:07:40.835Z</time></trkpt><trkpt lat="37.0301541" lon="15.0445473"><ele>465.40000000000003</ele><time>2026-04-18T14:07:41.834Z</time></trkpt><trkpt lat="37.0302322" lon="15.0446349"><ele>462.0</ele><time>2026-04-18T14:07:42.834Z</time></trkpt><trkpt lat="37.030302" lon="15.0447257"><ele>462.0</ele><time>2026-04-18T14:07:43.833Z</time></trkpt><trkpt lat="37.0303688" lon="15.0448072"><ele>462.0</ele><time>2026-04-18T14:07:44.835Z</time></trkpt><trkpt lat="37.0304211" lon="15.0448974"><ele>462.0</ele><time>2026-04-18T14:07:45.834Z</time></trkpt><trkpt lat="37.0304644" lon="15.04499"><ele>462.0</ele><time>2026-04-18T14:07:46.835Z</time></trkpt><trkpt lat="37.030501" lon="15.04509"><ele>462.0</ele><time>2026-04-18T14:07:47.833Z</time></trkpt><trkpt lat="37.0305364" lon="15.0451983"><ele>462.0</ele><time>2026-04-18T14:07:48.835Z</time></trkpt><trkpt lat="37.0305401" lon="15.0453202"><ele>462.8</ele><time>2026-04-18T14:07:49.834Z</time></trkpt><trkpt lat="37.0305271" lon="15.0454408"><ele>463.6</ele><time>2026-04-18T14:07:50.834Z</time></trkpt><trkpt lat="37.0305094" lon="15.0455575"><ele>464.40000000000003</ele><time>2026-04-18T14:07:51.834Z</time></trkpt><trkpt lat="37.0304851" lon="15.0456727"><ele>465.20000000000005</ele><time>2026-04-18T14:07:52.834Z</time></trkpt><trkpt lat="37.0304674" lon="15.045789"><ele>466.0</ele><time>2026-04-18T14:07:53.835Z</time></trkpt><trkpt lat="37.0304474" lon="15.0459052"><ele>466.4</ele><time>2026-04-18T14:07:54.834Z</time></trkpt><trkpt lat="37.0304279" lon="15.0460214"><ele>466.8</ele><time>2026-04-18T14:07:55.836Z</time></trkpt><trkpt lat="37.0304053" lon="15.0461352"><ele>467.19999999999993</ele><time>2026-04-18T14:07:56.834Z</time></trkpt><trkpt lat="37.0303842" lon="15.0462518"><ele>467.59999999999997</ele><time>2026-04-18T14:07:57.834Z</time></trkpt><trkpt lat="37.030363" lon="15.0463635"><ele>468.0</ele><time>2026-04-18T14:07:58.835Z</time></trkpt><trkpt lat="37.0303409" lon="15.0464732"><ele>468.0</ele><time>2026-04-18T14:07:59.834Z</time></trkpt><trkpt lat="37.0303239" lon="15.0465797"><ele>468.0</ele><time>2026-04-18T14:08:00.834Z</time></trkpt><trkpt lat="37.0303057" lon="15.0466893"><ele>468.0</ele><time>2026-04-18T14:08:01.835Z</time></trkpt><trkpt lat="37.0302918" lon="15.0467953"><ele>468.0</ele><time>2026-04-18T14:08:02.836Z</time></trkpt><trkpt lat="37.0302797" lon="15.046897"><ele>468.0</ele><time>2026-04-18T14:08:03.836Z</time></trkpt><trkpt lat="37.0302587" lon="15.0470089"><ele>468.0</ele><time>2026-04-18T14:08:04.834Z</time></trkpt><trkpt lat="37.0302388" lon="15.0471224"><ele>467.59999999999997</ele><time>2026-04-18T14:08:05.834Z</time></trkpt><trkpt lat="37.0302247" lon="15.0472457"><ele>467.19999999999993</ele><time>2026-04-18T14:08:06.834Z</time></trkpt><trkpt lat="37.0302032" lon="15.0473672"><ele>466.8</ele><time>2026-04-18T14:08:07.834Z</time></trkpt><trkpt lat="37.0301826" lon="15.0474934"><ele>466.4</ele><time>2026-04-18T14:08:08.833Z</time></trkpt><trkpt lat="37.0301587" lon="15.0476261"><ele>466.0</ele><time>2026-04-18T14:08:09.835Z</time></trkpt><trkpt lat="37.0301379" lon="15.0477594"><ele>463.75</ele><time>2026-04-18T14:08:10.835Z</time></trkpt><trkpt lat="37.0301186" lon="15.0478987"><ele>461.5</ele><time>2026-04-18T14:08:11.834Z</time></trkpt><trkpt lat="37.0300911" lon="15.0480426"><ele>459.25</ele><time>2026-04-18T14:08:12.836Z</time></trkpt><trkpt lat="37.030066" lon="15.0481943"><ele>457.0</ele><time>2026-04-18T14:08:13.834Z</time></trkpt><trkpt lat="37.0300429" lon="15.0483509"><ele>456.5</ele><time>2026-04-18T14:08:14.834Z</time></trkpt><trkpt lat="37.0300152" lon="15.048512"><ele>456.0</ele><time>2026-04-18T14:08:15.835Z</time></trkpt><trkpt lat="37.029978" lon="15.0486761"><ele>455.5</ele><time>2026-04-18T14:08:16.835Z</time></trkpt><trkpt lat="37.0299451" lon="15.048827"><ele>455.0</ele><time>2026-04-18T14:08:17.834Z</time></trkpt><trkpt lat="37.0299207" lon="15.0489673"><ele>457.8</ele><time>2026-04-18T14:08:18.835Z</time></trkpt><trkpt lat="37.0298903" lon="15.0491035"><ele>460.6</ele><time>2026-04-18T14:08:19.835Z</time></trkpt><trkpt lat="37.0298631" lon="15.0492301"><ele>463.4</ele><time>2026-04-18T14:08:20.833Z</time></trkpt><trkpt lat="37.0298412" lon="15.0493577"><ele>466.2</ele><time>2026-04-18T14:08:21.834Z</time></trkpt><trkpt lat="37.0298163" lon="15.0494867"><ele>469.0</ele><time>2026-04-18T14:08:22.835Z</time></trkpt><trkpt lat="37.029811" lon="15.0496092"><ele>469.0</ele><time>2026-04-18T14:08:23.834Z</time></trkpt><trkpt lat="37.0298202" lon="15.0497345"><ele>469.0</ele><time>2026-04-18T14:08:24.834Z</time></trkpt><trkpt lat="37.0298407" lon="15.0498605"><ele>469.0</ele><time>2026-04-18T14:08:25.833Z</time></trkpt><trkpt lat="37.0298634" lon="15.0499775"><ele>469.0</ele><time>2026-04-18T14:08:26.833Z</time></trkpt><trkpt lat="37.0298988" lon="15.0500898"><ele>469.0</ele><time>2026-04-18T14:08:27.835Z</time></trkpt><trkpt lat="37.0299418" lon="15.0501987"><ele>466.00000000000006</ele><time>2026-04-18T14:08:28.834Z</time></trkpt><trkpt lat="37.0299865" lon="15.0503043"><ele>463.0</ele><time>2026-04-18T14:08:29.835Z</time></trkpt><trkpt lat="37.0300367" lon="15.050412"><ele>460.0</ele><time>2026-04-18T14:08:30.834Z</time></trkpt><trkpt lat="37.030083" lon="15.0505098"><ele>457.0</ele><time>2026-04-18T14:08:31.834Z</time></trkpt><trkpt lat="37.0301388" lon="15.0505827"><ele>454.00000000000006</ele><time>2026-04-18T14:08:32.833Z</time></trkpt><trkpt lat="37.0302045" lon="15.0506327"><ele>451.0</ele><time>2026-04-18T14:08:33.835Z</time></trkpt><trkpt lat="37.0302777" lon="15.05067"><ele>451.00000000000006</ele><time>2026-04-18T14:08:34.835Z</time></trkpt><trkpt lat="37.0303532" lon="15.0506679"><ele>451.0</ele><time>2026-04-18T14:08:35.834Z</time></trkpt><trkpt lat="37.030438" lon="15.0506299"><ele>451.0</ele><time>2026-04-18T14:08:36.835Z</time></trkpt><trkpt lat="37.0305163" lon="15.0505777"><ele>451.0</ele><time>2026-04-18T14:08:37.835Z</time></trkpt><trkpt lat="37.0305809" lon="15.0504962"><ele>451.00000000000006</ele><time>2026-04-18T14:08:38.835Z</time></trkpt><trkpt lat="37.0306496" lon="15.0504229"><ele>451.0</ele><time>2026-04-18T14:08:39.834Z</time></trkpt><trkpt lat="37.0307197" lon="15.0503518"><ele>451.0</ele><time>2026-04-18T14:08:40.835Z</time></trkpt><trkpt lat="37.0307924" lon="15.0502629"><ele>451.0</ele><time>2026-04-18T14:08:41.835Z</time></trkpt><trkpt lat="37.030868" lon="15.0501655"><ele>451.0</ele><time>2026-04-18T14:08:42.834Z</time></trkpt><trkpt lat="37.0309471" lon="15.0500805"><ele>451.0</ele><time>2026-04-18T14:08:43.834Z</time></trkpt><trkpt lat="37.0310213" lon="15.0499906"><ele>451.0</ele><time>2026-04-18T14:08:44.833Z</time></trkpt><trkpt lat="37.0310904" lon="15.0499062"><ele>451.33333333333337</ele><time>2026-04-18T14:08:45.835Z</time></trkpt><trkpt lat="37.0311568" lon="15.0498324"><ele>451.6666666666667</ele><time>2026-04-18T14:08:46.834Z</time></trkpt><trkpt lat="37.0312241" lon="15.0497549"><ele>452.0</ele><time>2026-04-18T14:08:47.835Z</time></trkpt><trkpt lat="37.0312939" lon="15.0496855"><ele>452.33333333333337</ele><time>2026-04-18T14:08:48.834Z</time></trkpt><trkpt lat="37.031364" lon="15.049626"><ele>452.6666666666667</ele><time>2026-04-18T14:08:49.836Z</time></trkpt><trkpt lat="37.0314385" lon="15.0495803"><ele>453.0</ele><time>2026-04-18T14:08:50.834Z</time></trkpt><trkpt lat="37.0315304" lon="15.0495617"><ele>453.0</ele><time>2026-04-18T14:08:51.834Z</time></trkpt><trkpt lat="37.0316212" lon="15.0495621"><ele>452.99999999999994</ele><time>2026-04-18T14:08:52.835Z</time></trkpt><trkpt lat="37.0317183" lon="15.0495636"><ele>452.99999999999994</ele><time>2026-04-18T14:08:53.834Z</time></trkpt><trkpt lat="37.0318091" lon="15.0495997"><ele>453.0</ele><time>2026-04-18T14:08:54.834Z</time></trkpt><trkpt lat="37.0319056" lon="15.0496397"><ele>453.0</ele><time>2026-04-18T14:08:55.834Z</time></trkpt><trkpt lat="37.0320082" lon="15.0496911"><ele>451.59999999999997</ele><time>2026-04-18T14:08:56.835Z</time></trkpt><trkpt lat="37.0321079" lon="15.0497299"><ele>450.19999999999993</ele><time>2026-04-18T14:08:57.835Z</time></trkpt><trkpt lat="37.0322184" lon="15.0497763"><ele>448.8</ele><time>2026-04-18T14:08:58.834Z</time></trkpt><trkpt lat="37.0323199" lon="15.0498151"><ele>447.4</ele><time>2026-04-18T14:08:59.834Z</time></trkpt><trkpt lat="37.0324192" lon="15.0498519"><ele>446.0</ele><time>2026-04-18T14:09:00.835Z</time></trkpt><trkpt lat="37.0325197" lon="15.0498913"><ele>445.6</ele><time>2026-04-18T14:09:01.834Z</time></trkpt><trkpt lat="37.0326178" lon="15.0499229"><ele>445.20000000000005</ele><time>2026-04-18T14:09:02.835Z</time></trkpt><trkpt lat="37.0327128" lon="15.0499472"><ele>444.79999999999995</ele><time>2026-04-18T14:09:03.835Z</time></trkpt><trkpt lat="37.0328096" lon="15.0499497"><ele>444.4</ele><time>2026-04-18T14:09:04.834Z</time></trkpt><trkpt lat="37.0329096" lon="15.0499373"><ele>444.0</ele><time>2026-04-18T14:09:05.835Z</time></trkpt><trkpt lat="37.0330112" lon="15.0499024"><ele>444.0</ele><time>2026-04-18T14:09:06.834Z</time></trkpt><trkpt lat="37.0331208" lon="15.0498393"><ele>444.0</ele><time>2026-04-18T14:09:07.834Z</time></trkpt><trkpt lat="37.0332212" lon="15.0497726"><ele>444.0</ele><time>2026-04-18T14:09:08.835Z</time></trkpt><trkpt lat="37.0333116" lon="15.0496904"><ele>444.0</ele><time>2026-04-18T14:09:09.835Z</time></trkpt><trkpt lat="37.0333918" lon="15.0496218"><ele>444.0</ele><time>2026-04-18T14:09:10.835Z</time></trkpt><trkpt lat="37.0334773" lon="15.0495675"><ele>442.79999999999995</ele><time>2026-04-18T14:09:11.833Z</time></trkpt><trkpt lat="37.0335638" lon="15.0495283"><ele>441.59999999999997</ele><time>2026-04-18T14:09:12.835Z</time></trkpt><trkpt lat="37.0336582" lon="15.0495212"><ele>440.4</ele><time>2026-04-18T14:09:13.835Z</time></trkpt><trkpt lat="37.0337423" lon="15.0495389"><ele>439.2</ele><time>2026-04-18T14:09:14.835Z</time></trkpt><trkpt lat="37.0338295" lon="15.0495788"><ele>438.0</ele><time>2026-04-18T14:09:15.834Z</time></trkpt><trkpt lat="37.0339096" lon="15.0496436"><ele>438.0</ele><time>2026-04-18T14:09:16.834Z</time></trkpt><trkpt lat="37.0339895" lon="15.0497115"><ele>437.99999999999994</ele><time>2026-04-18T14:09:17.836Z</time></trkpt><trkpt lat="37.0340694" lon="15.0497916"><ele>437.99999999999994</ele><time>2026-04-18T14:09:18.835Z</time></trkpt><trkpt lat="37.0341556" lon="15.0498593"><ele>438.0</ele><time>2026-04-18T14:09:19.834Z</time></trkpt><trkpt lat="37.0342385" lon="15.0499449"><ele>438.0</ele><time>2026-04-18T14:09:20.834Z</time></trkpt><trkpt lat="37.0343154" lon="15.0500268"><ele>436.5</ele><time>2026-04-18T14:09:21.836Z</time></trkpt><trkpt lat="37.0343851" lon="15.050118"><ele>435.0</ele><time>2026-04-18T14:09:22.836Z</time></trkpt><trkpt lat="37.0344342" lon="15.050203"><ele>433.5</ele><time>2026-04-18T14:09:23.833Z</time></trkpt><trkpt lat="37.0344777" lon="15.0502868"><ele>432.0</ele><time>2026-04-18T14:09:24.834Z</time></trkpt><trkpt lat="37.0345316" lon="15.0503473"><ele>430.5</ele><time>2026-04-18T14:09:25.834Z</time></trkpt><trkpt lat="37.0346207" lon="15.0504272"><ele>429.0</ele><time>2026-04-18T14:09:27.833Z</time></trkpt><trkpt lat="37.0347131" lon="15.0504826"><ele>429.0</ele><time>2026-04-18T14:09:29.833Z</time></trkpt><trkpt lat="37.0347907" lon="15.0505741"><ele>429.0</ele><time>2026-04-18T14:09:31.835Z</time></trkpt><trkpt lat="37.0348592" lon="15.0506994"><ele>429.0</ele><time>2026-04-18T14:09:33.834Z</time></trkpt><trkpt lat="37.0349115" lon="15.0508257"><ele>429.0</ele><time>2026-04-18T14:09:35.835Z</time></trkpt><trkpt lat="37.0349566" lon="15.05096"><ele>429.0</ele><time>2026-04-18T14:09:37.834Z</time></trkpt><trkpt lat="37.0349995" lon="15.0511066"><ele>429.0</ele><time>2026-04-18T14:09:39.835Z</time></trkpt><trkpt lat="37.0350249" lon="15.0512435"><ele>429.0</ele><time>2026-04-18T14:09:41.834Z</time></trkpt><trkpt lat="37.0350492" lon="15.0513756"><ele>429.0</ele><time>2026-04-18T14:09:43.834Z</time></trkpt><trkpt lat="37.035053" lon="15.0514571"><ele>429.0</ele><time>2026-04-18T14:09:44.834Z</time></trkpt><trkpt lat="37.0350642" lon="15.0516279"><ele>429.0</ele><time>2026-04-18T14:09:46.835Z</time></trkpt><trkpt lat="37.0350663" lon="15.051708"><ele>429.0</ele><time>2026-04-18T14:09:47.835Z</time></trkpt><trkpt lat="37.0350699" lon="15.0517947"><ele>429.0</ele><time>2026-04-18T14:09:48.833Z</time></trkpt><trkpt lat="37.035059" lon="15.0518854"><ele>429.0</ele><time>2026-04-18T14:09:49.834Z</time></trkpt><trkpt lat="37.0350642" lon="15.0519663"><ele>429.0</ele><time>2026-04-18T14:09:50.835Z</time></trkpt><trkpt lat="37.0350642" lon="15.0520491"><ele>429.0</ele><time>2026-04-18T14:09:51.835Z</time></trkpt><trkpt lat="37.0350711" lon="15.0521286"><ele>429.0</ele><time>2026-04-18T14:09:52.835Z</time></trkpt><trkpt lat="37.0350777" lon="15.0522178"><ele>429.0</ele><time>2026-04-18T14:09:53.834Z</time></trkpt><trkpt lat="37.0350962" lon="15.052315"><ele>429.0</ele><time>2026-04-18T14:09:54.836Z</time></trkpt><trkpt lat="37.0351144" lon="15.0524044"><ele>429.0</ele><time>2026-04-18T14:09:55.834Z</time></trkpt><trkpt lat="37.0351308" lon="15.0525003"><ele>429.0</ele><time>2026-04-18T14:09:56.834Z</time></trkpt><trkpt lat="37.0351561" lon="15.0525983"><ele>429.0</ele><time>2026-04-18T14:09:57.834Z</time></trkpt><trkpt lat="37.0351727" lon="15.052702"><ele>429.0</ele><time>2026-04-18T14:09:58.834Z</time></trkpt><trkpt lat="37.0351864" lon="15.0528077"><ele>428.6666666666667</ele><time>2026-04-18T14:09:59.834Z</time></trkpt><trkpt lat="37.0352018" lon="15.0529219"><ele>428.33333333333337</ele><time>2026-04-18T14:10:00.833Z</time></trkpt><trkpt lat="37.0352098" lon="15.0530317"><ele>428.0</ele><time>2026-04-18T14:10:01.834Z</time></trkpt><trkpt lat="37.0352228" lon="15.0531388"><ele>427.6666666666667</ele><time>2026-04-18T14:10:02.833Z</time></trkpt><trkpt lat="37.0352416" lon="15.0532362"><ele>427.33333333333337</ele><time>2026-04-18T14:10:03.835Z</time></trkpt><trkpt lat="37.0352722" lon="15.0533394"><ele>427.0</ele><time>2026-04-18T14:10:04.834Z</time></trkpt><trkpt lat="37.0353025" lon="15.0534456"><ele>425.50000000000006</ele><time>2026-04-18T14:10:05.834Z</time></trkpt><trkpt lat="37.0353233" lon="15.0535558"><ele>424.0</ele><time>2026-04-18T14:10:06.835Z</time></trkpt><trkpt lat="37.0353364" lon="15.0536638"><ele>422.5</ele><time>2026-04-18T14:10:07.834Z</time></trkpt><trkpt lat="37.0353454" lon="15.0537687"><ele>421.0</ele><time>2026-04-18T14:10:08.833Z</time></trkpt><trkpt lat="37.0353486" lon="15.0538793"><ele>419.50000000000006</ele><time>2026-04-18T14:10:09.834Z</time></trkpt><trkpt lat="37.03535" lon="15.0539846"><ele>418.0</ele><time>2026-04-18T14:10:10.834Z</time></trkpt><trkpt lat="37.0353444" lon="15.0540854"><ele>416.50000000000006</ele><time>2026-04-18T14:10:11.835Z</time></trkpt><trkpt lat="37.0353361" lon="15.0541819"><ele>415.0</ele><time>2026-04-18T14:10:12.834Z</time></trkpt><trkpt lat="37.0353284" lon="15.0542805"><ele>413.5</ele><time>2026-04-18T14:10:13.834Z</time></trkpt><trkpt lat="37.0353203" lon="15.0543815"><ele>412.0</ele><time>2026-04-18T14:10:14.835Z</time></trkpt><trkpt lat="37.035316" lon="15.0544776"><ele>410.50000000000006</ele><time>2026-04-18T14:10:15.834Z</time></trkpt><trkpt lat="37.0353146" lon="15.054574"><ele>409.0</ele><time>2026-04-18T14:10:16.834Z</time></trkpt><trkpt lat="37.0353171" lon="15.0546767"><ele>409.00000000000006</ele><time>2026-04-18T14:10:17.834Z</time></trkpt><trkpt lat="37.0353175" lon="15.0547783"><ele>409.0</ele><time>2026-04-18T14:10:18.835Z</time></trkpt><trkpt lat="37.0353127" lon="15.0548744"><ele>409.0</ele><time>2026-04-18T14:10:19.833Z</time></trkpt><trkpt lat="37.0353094" lon="15.0549652"><ele>409.0</ele><time>2026-04-18T14:10:20.834Z</time></trkpt><trkpt lat="37.0353029" lon="15.0550534"><ele>409.00000000000006</ele><time>2026-04-18T14:10:21.834Z</time></trkpt><trkpt lat="37.0352976" lon="15.0551344"><ele>409.0</ele><time>2026-04-18T14:10:22.834Z</time></trkpt><trkpt lat="37.0353179" lon="15.0552733"><ele>406.79999999999995</ele><time>2026-04-18T14:10:24.835Z</time></trkpt><trkpt lat="37.0353687" lon="15.0553985"><ele>404.59999999999997</ele><time>2026-04-18T14:10:26.835Z</time></trkpt><trkpt lat="37.0354361" lon="15.0555102"><ele>402.4</ele><time>2026-04-18T14:10:28.834Z</time></trkpt><trkpt lat="37.0354806" lon="15.0555753"><ele>400.2</ele><time>2026-04-18T14:10:29.834Z</time></trkpt><trkpt lat="37.03554" lon="15.0556694"><ele>398.0</ele><time>2026-04-18T14:10:31.836Z</time></trkpt><trkpt lat="37.0355906" lon="15.0557642"><ele>397.49999999999994</ele><time>2026-04-18T14:10:33.835Z</time></trkpt><trkpt lat="37.0356402" lon="15.0558512"><ele>397.0</ele><time>2026-04-18T14:10:35.834Z</time></trkpt><trkpt lat="37.0356883" lon="15.0559543"><ele>396.5</ele><time>2026-04-18T14:10:37.834Z</time></trkpt><trkpt lat="37.035739" lon="15.0560511"><ele>396.0</ele><time>2026-04-18T14:10:39.833Z</time></trkpt><trkpt lat="37.0357857" lon="15.0561352"><ele>395.49999999999994</ele><time>2026-04-18T14:10:41.835Z</time></trkpt><trkpt lat="37.0358345" lon="15.0562186"><ele>395.0</ele><time>2026-04-18T14:10:43.835Z</time></trkpt><trkpt lat="37.0358754" lon="15.0562898"><ele>392.8333333333333</ele><time>2026-04-18T14:10:45.835Z</time></trkpt><trkpt lat="37.0359432" lon="15.0563036"><ele>390.66666666666663</ele><time>2026-04-18T14:10:50.835Z</time></trkpt><trkpt lat="37.0359762" lon="15.056196"><ele>388.5</ele><time>2026-04-18T14:10:52.833Z</time></trkpt><trkpt lat="37.0360255" lon="15.0561154"><ele>386.3333333333333</ele><time>2026-04-18T14:10:54.835Z</time></trkpt><trkpt lat="37.0360708" lon="15.0560441"><ele>384.16666666666663</ele><time>2026-04-18T14:10:56.835Z</time></trkpt><trkpt lat="37.0361302" lon="15.0560747"><ele>382.0</ele><time>2026-04-18T14:10:59.836Z</time></trkpt><trkpt lat="37.0361196" lon="15.0561711"><ele>382.0</ele><time>2026-04-18T14:11:01.834Z</time></trkpt><trkpt lat="37.0361117" lon="15.0562581"><ele>382.0</ele><time>2026-04-18T14:11:02.834Z</time></trkpt><trkpt lat="37.036084" lon="15.05638"><ele>382.0</ele><time>2026-04-18T14:11:04.834Z</time></trkpt><trkpt lat="37.0360615" lon="15.0564695"><ele>382.0</ele><time>2026-04-18T14:11:05.833Z</time></trkpt><trkpt lat="37.0360185" lon="15.0566147"><ele>382.0</ele><time>2026-04-18T14:11:07.836Z</time></trkpt><trkpt lat="37.0359861" lon="15.0567601"><ele>382.0</ele><time>2026-04-18T14:11:09.834Z</time></trkpt><trkpt lat="37.0359445" lon="15.0568931"><ele>382.0</ele><time>2026-04-18T14:11:11.835Z</time></trkpt><trkpt lat="37.0358998" lon="15.0570289"><ele>382.0</ele><time>2026-04-18T14:11:13.833Z</time></trkpt><trkpt lat="37.0358426" lon="15.0571556"><ele>382.0</ele><time>2026-04-18T14:11:15.835Z</time></trkpt><trkpt lat="37.0358063" lon="15.0572392"><ele>382.0</ele><time>2026-04-18T14:11:16.835Z</time></trkpt><trkpt lat="37.0357547" lon="15.0573369"><ele>383.3333333333333</ele><time>2026-04-18T14:11:17.833Z</time></trkpt><trkpt lat="37.0357111" lon="15.0574232"><ele>384.66666666666663</ele><time>2026-04-18T14:11:18.835Z</time></trkpt><trkpt lat="37.0356665" lon="15.0575027"><ele>386.0</ele><time>2026-04-18T14:11:19.835Z</time></trkpt><trkpt lat="37.0356204" lon="15.0575775"><ele>387.3333333333333</ele><time>2026-04-18T14:11:20.833Z</time></trkpt><trkpt lat="37.0355705" lon="15.0576522"><ele>388.6666666666667</ele><time>2026-04-18T14:11:21.834Z</time></trkpt><trkpt lat="37.0355211" lon="15.0577249"><ele>390.0</ele><time>2026-04-18T14:11:22.834Z</time></trkpt><trkpt lat="37.0354826" lon="15.0577981"><ele>390.0</ele><time>2026-04-18T14:11:23.834Z</time></trkpt><trkpt lat="37.035429" lon="15.0578819"><ele>390.0</ele><time>2026-04-18T14:11:24.834Z</time></trkpt><trkpt lat="37.0353924" lon="15.0579659"><ele>390.0</ele><time>2026-04-18T14:11:25.834Z</time></trkpt><trkpt lat="37.0353492" lon="15.0580476"><ele>390.0</ele><time>2026-04-18T14:11:26.834Z</time></trkpt><trkpt lat="37.0352927" lon="15.0581333"><ele>390.0</ele><time>2026-04-18T14:11:27.833Z</time></trkpt><trkpt lat="37.0352395" lon="15.0582078"><ele>390.0</ele><time>2026-04-18T14:11:28.833Z</time></trkpt><trkpt lat="37.0351948" lon="15.0582827"><ele>390.4</ele><time>2026-04-18T14:11:29.833Z</time></trkpt><trkpt lat="37.0351137" lon="15.058421"><ele>390.8</ele><time>2026-04-18T14:11:31.834Z</time></trkpt><trkpt lat="37.035064" lon="15.058496"><ele>391.20000000000005</ele><time>2026-04-18T14:11:32.833Z</time></trkpt><trkpt lat="37.0350121" lon="15.0585788"><ele>391.6</ele><time>2026-04-18T14:11:33.834Z</time></trkpt><trkpt lat="37.0349619" lon="15.0586547"><ele>392.0</ele><time>2026-04-18T14:11:34.836Z</time></trkpt><trkpt lat="37.0349126" lon="15.0587314"><ele>391.99999999999994</ele><time>2026-04-18T14:11:35.834Z</time></trkpt><trkpt lat="37.034869" lon="15.0588057"><ele>392.0</ele><time>2026-04-18T14:11:36.834Z</time></trkpt><trkpt lat="37.034822" lon="15.0588702"><ele>392.0</ele><time>2026-04-18T14:11:37.834Z</time></trkpt><trkpt lat="37.0347768" lon="15.0589381"><ele>392.0</ele><time>2026-04-18T14:11:38.833Z</time></trkpt><trkpt lat="37.0347356" lon="15.0590016"><ele>391.99999999999994</ele><time>2026-04-18T14:11:39.834Z</time></trkpt><trkpt lat="37.0346509" lon="15.0591191"><ele>392.0</ele><time>2026-04-18T14:11:41.834Z</time></trkpt><trkpt lat="37.0346107" lon="15.0591935"><ele>390.99999999999994</ele><time>2026-04-18T14:11:42.834Z</time></trkpt><trkpt lat="37.0345695" lon="15.0592696"><ele>390.0</ele><time>2026-04-18T14:11:43.834Z</time></trkpt><trkpt lat="37.0345276" lon="15.0593334"><ele>389.0</ele><time>2026-04-18T14:11:44.835Z</time></trkpt><trkpt lat="37.0344803" lon="15.0594277"><ele>388.0</ele><time>2026-04-18T14:11:46.833Z</time></trkpt><trkpt lat="37.0344297" lon="15.0594843"><ele>386.99999999999994</ele><time>2026-04-18T14:11:48.834Z</time></trkpt><trkpt lat="37.0343332" lon="15.0594576"><ele>386.0</ele><time>2026-04-18T14:11:50.834Z</time></trkpt><trkpt lat="37.034268" lon="15.0593993"><ele>385.99999999999994</ele><time>2026-04-18T14:11:52.834Z</time></trkpt><trkpt lat="37.0341781" lon="15.0593557"><ele>386.0</ele><time>2026-04-18T14:11:54.835Z</time></trkpt><trkpt lat="37.0341081" lon="15.0592866"><ele>386.0</ele><time>2026-04-18T14:11:57.833Z</time></trkpt><trkpt lat="37.0340433" lon="15.0592404"><ele>386.0</ele><time>2026-04-18T14:11:58.834Z</time></trkpt><trkpt lat="37.0339713" lon="15.0591943"><ele>385.99999999999994</ele><time>2026-04-18T14:11:59.835Z</time></trkpt><trkpt lat="37.03389" lon="15.0591344"><ele>386.0</ele><time>2026-04-18T14:12:00.833Z</time></trkpt><trkpt lat="37.0338361" lon="15.0590827"><ele>389.6</ele><time>2026-04-18T14:12:01.834Z</time></trkpt><trkpt lat="37.0337719" lon="15.0590394"><ele>393.20000000000005</ele><time>2026-04-18T14:12:03.835Z</time></trkpt><trkpt lat="37.0338131" lon="15.05888"><ele>396.79999999999995</ele><time>2026-04-18T14:12:05.834Z</time></trkpt><trkpt lat="37.0338648" lon="15.0587961"><ele>400.4</ele><time>2026-04-18T14:12:06.834Z</time></trkpt><trkpt lat="37.0339423" lon="15.0586565"><ele>404.0</ele><time>2026-04-18T14:12:07.834Z</time></trkpt><trkpt lat="37.034046" lon="15.0584819"><ele>401.66666666666663</ele><time>2026-04-18T14:12:08.834Z</time></trkpt><trkpt lat="37.0341563" lon="15.0582996"><ele>399.33333333333337</ele><time>2026-04-18T14:12:09.834Z</time></trkpt><trkpt lat="37.0342498" lon="15.0581403"><ele>397.0</ele><time>2026-04-18T14:12:10.834Z</time></trkpt><trkpt lat="37.0343345" lon="15.0580052"><ele>397.0</ele><time>2026-04-18T14:12:11.834Z</time></trkpt><trkpt lat="37.0344017" lon="15.0578809"><ele>397.0</ele><time>2026-04-18T14:12:12.834Z</time></trkpt><trkpt lat="37.0344729" lon="15.0577776"><ele>397.0</ele><time>2026-04-18T14:12:13.834Z</time></trkpt><trkpt lat="37.0345418" lon="15.0576629"><ele>397.0</ele><time>2026-04-18T14:12:14.835Z</time></trkpt><trkpt lat="37.0346313" lon="15.0575215"><ele>398.8</ele><time>2026-04-18T14:12:15.835Z</time></trkpt><trkpt lat="37.0346985" lon="15.0573956"><ele>400.6</ele><time>2026-04-18T14:12:16.835Z</time></trkpt><trkpt lat="37.0347686" lon="15.0572821"><ele>402.40000000000003</ele><time>2026-04-18T14:12:17.836Z</time></trkpt><trkpt lat="37.0348352" lon="15.0571784"><ele>404.20000000000005</ele><time>2026-04-18T14:12:18.834Z</time></trkpt><trkpt lat="37.0348821" lon="15.0570874"><ele>406.0</ele><time>2026-04-18T14:12:19.836Z</time></trkpt><trkpt lat="37.0349306" lon="15.0570307"><ele>406.0</ele><time>2026-04-18T14:12:20.833Z</time></trkpt><trkpt lat="37.0348898" lon="15.056957"><ele>406.0</ele><time>2026-04-18T14:12:23.834Z</time></trkpt><trkpt lat="37.0347998" lon="15.0569111"><ele>406.0</ele><time>2026-04-18T14:12:24.834Z</time></trkpt><trkpt lat="37.0346915" lon="15.0568429"><ele>406.0</ele><time>2026-04-18T14:12:25.834Z</time></trkpt><trkpt lat="37.0346127" lon="15.0567757"><ele>406.0</ele><time>2026-04-18T14:12:26.835Z</time></trkpt><trkpt lat="37.0345295" lon="15.0567075"><ele>406.0</ele><time>2026-04-18T14:12:28.835Z</time></trkpt><trkpt lat="37.0345169" lon="15.0567872"><ele>406.0</ele><time>2026-04-18T14:12:30.834Z</time></trkpt><trkpt lat="37.0344882" lon="15.0568692"><ele>406.0</ele><time>2026-04-18T14:12:32.834Z</time></trkpt></trkseg></trk></gpx>